AC1901 / C-FMLV 7700 Squawk Report (9th of August, 2019)

Aircraft B763 Reg No. C-FMLV Age 23 years old
Model 767 Jet engines 2 First flight 08-07-96
Registered 04-03-16 Rollout N/A Delivered 17-07-96
Construction No. 26327 Line No. 0621 Series 316(ER)
ADSHEX C020E4 Airline name Air Canada Rouge Owner Aercap Holdings N.V.
Airfield based Toronto-Lester B.Pearson Int'l~ON~C First tracked 2017-07-13 08:13:00

Flight history for C-FMLV

Route Flight No Date Playback
Calgary International (YYC) - Toronto Pearson International (YYZ) AC1596 2019-09-21 21:52:00
Toronto Pearson International (YYZ) - Calgary International (YYC) AC1597 2019-09-21 21:37:00
???? N/A 2019-09-21 16:39:00
Toronto Pearson International (YYZ) - Edinburgh (EDI) AC1904 2019-09-21 05:58:00
Venezia Tessera (VCE) - Toronto Pearson International (YYZ) AC1907 2019-09-20 23:11:00
Toronto Pearson International (YYZ) - Venezia Tessera (VCE) AC1906 2019-09-20 09:37:00
Venezia Tessera (VCE) - Toronto Pearson International (YYZ) AC1907 2019-09-20 00:57:00
Toronto Pearson International (YYZ) - Venezia Tessera (VCE) AC1906 2019-09-19 08:14:00
Eleftherios Venizelos Intl (ATH) - Toronto Pearson International (YYZ) AC1901 2019-09-18 23:13:00
Pierre Elliott Trudeau (YUL) - Eleftherios Venizelos Intl (ATH) AC1902 2019-09-18 10:05:00
Eleftherios Venizelos Intl (ATH) - Pierre Elliott Trudeau (YUL) AC1903 2019-09-17 20:45:00
Pierre Elliott Trudeau (YUL) - Eleftherios Venizelos Intl (ATH) AC1902 2019-09-17 08:20:00
Eleftherios Venizelos Intl (ATH) - Pierre Elliott Trudeau (YUL) AC1903 2019-09-12 18:53:00
Pierre Elliott Trudeau (YUL) - Eleftherios Venizelos Intl (ATH) AC1902 2019-09-12 05:09:00
Eleftherios Venizelos Intl (ATH) - Pierre Elliott Trudeau (YUL) AC1903 2019-09-09 18:47:00
Toronto Pearson International (YYZ) - Eleftherios Venizelos Intl (ATH) AC1900 2019-09-09 05:37:00
???? N/A 2019-09-08 20:47:00
Toronto Pearson International (YYZ) - Zagreb (ZAG) AC1968 2019-09-08 04:56:00
Warsaw Chopin (WAW) - Toronto Pearson International (YYZ) AC1927 2019-09-07 17:18:00
Toronto Pearson International (YYZ) - Warsaw Chopin (WAW) AC1926 2019-09-07 08:27:00
Time Lat Lon Altitude Heading Speed Vertical Rate
2019-08-09 15:10:19 GMT 53.433113 -6.254068 0 337 0 0
2019-08-09 15:10:03 GMT 53.433105 -6.254065 0 337 0 0
2019-08-09 15:09:53 GMT 53.433102 -6.254088 0 337 1 0
2019-08-09 15:09:42 GMT 53.433056 -6.254048 0 337 3 0
2019-08-09 15:09:31 GMT 53.432968 -6.253987 0 337 4 0
2019-08-09 15:09:21 GMT 53.432819 -6.253869 0 337 5 0
2019-08-09 15:09:06 GMT 53.432693 -6.253771 0 337 0 0
2019-08-09 15:08:49 GMT 53.432693 -6.253786 0 337 0 0
2019-08-09 15:08:39 GMT 53.432648 -6.253745 0 340 4 0
2019-08-09 15:08:29 GMT 53.432499 -6.253634 0 354 6 0
2019-08-09 15:08:19 GMT 53.432259 -6.253595 0 39 7 0
2019-08-09 15:08:08 GMT 53.432064 -6.253928 0 64 10 0
2019-08-09 15:07:58 GMT 53.431904 -6.254533 0 53 9 0
2019-08-09 15:07:48 GMT 53.431618 -6.254909 0 14 8 0
2019-08-09 15:07:37 GMT 53.431263 -6.254811 0 337 9 0
2019-08-09 15:07:13 GMT 53.431023 -6.254654 0 337 0 0
2019-08-09 15:07:03 GMT 53.431019 -6.254654 0 337 0 0
2019-08-09 15:06:55 GMT 53.431023 -6.254654 0 337 0 0
2019-08-09 15:06:45 GMT 53.431019 -6.254654 0 337 0 0
2019-08-09 15:06:35 GMT 53.431023 -6.254654 0 337 0 0
2019-08-09 15:06:24 GMT 53.430874 -6.254536 0 337 6 0
2019-08-09 15:06:12 GMT 53.430565 -6.254301 0 337 10 0
2019-08-09 15:06:02 GMT 53.430096 -6.253967 0 337 13 0
2019-08-09 15:05:52 GMT 53.429562 -6.253584 0 337 12 0
2019-08-09 15:05:41 GMT 53.429085 -6.253240 0 337 13 0
2019-08-09 15:05:31 GMT 53.428562 -6.252857 0 334 13 0
2019-08-09 15:05:20 GMT 53.427956 -6.252412 0 337 13 0
2019-08-09 15:05:10 GMT 53.427547 -6.252109 0 334 9 0
2019-08-09 15:05:00 GMT 53.427258 -6.251968 0 22 6 0
2019-08-09 15:04:48 GMT 53.427109 -6.252049 0 42 3 0
2019-08-09 15:04:38 GMT 53.426994 -6.252221 0 45 5 0
2019-08-09 15:04:29 GMT 53.426754 -6.252633 0 45 11 0
2019-08-09 15:04:18 GMT 53.426388 -6.253241 0 45 14 0
2019-08-09 15:04:09 GMT 53.426010 -6.253908 0 45 13 0
2019-08-09 15:03:58 GMT 53.425598 -6.254615 0 47 12 0
2019-08-09 15:03:48 GMT 53.425266 -6.255184 0 45 7 0
2019-08-09 15:03:37 GMT 53.425140 -6.255401 0 45 1 0
2019-08-09 15:03:12 GMT 53.425129 -6.255419 0 45 0 0
2019-08-09 15:02:57 GMT 53.425129 -6.255421 0 45 0 0
2019-08-09 15:02:22 GMT 53.425129 -6.255419 0 45 0 0
2019-08-09 15:02:12 GMT 53.425129 -6.255421 0 45 0 0
2019-08-09 15:01:57 GMT 53.425129 -6.255419 0 45 0 0
2019-08-09 15:01:17 GMT 53.425129 -6.255421 0 45 0 0
2019-08-09 15:01:07 GMT 53.425129 -6.255419 0 45 0 0
2019-08-09 15:00:37 GMT 53.425129 -6.255421 0 45 0 0
2019-08-09 15:00:22 GMT 53.425129 -6.255419 0 45 0 0
2019-08-09 15:00:12 GMT 53.425129 -6.255421 0 45 0 0
2019-08-09 14:59:42 GMT 53.425129 -6.255419 0 45 0 0
2019-08-09 14:59:32 GMT 53.425129 -6.255421 0 45 0 0
2019-08-09 14:59:22 GMT 53.425129 -6.255419 0 45 0 0
2019-08-09 14:59:03 GMT 53.425129 -6.255421 0 45 0 0
2019-08-09 14:58:53 GMT 53.425095 -6.255482 0 45 6 0
2019-08-09 14:58:43 GMT 53.424850 -6.255906 0 45 10 0
2019-08-09 14:58:32 GMT 53.424419 -6.256633 0 45 20 0
2019-08-09 14:58:22 GMT 53.423779 -6.257724 0 45 21 0
2019-08-09 14:58:11 GMT 53.423138 -6.258813 0 45 19 0
2019-08-09 14:58:01 GMT 53.422565 -6.259794 0 45 18 0
2019-08-09 14:57:51 GMT 53.422005 -6.260755 0 45 20 0
2019-08-09 14:57:33 GMT 53.421055 -6.263156 0 75 24 0
2019-08-09 14:57:28 GMT 53.421009 -6.264090 0 92 26 0
2019-08-09 14:57:13 GMT 53.421249 -6.268505 0 95 61 0
2019-08-09 14:56:57 GMT 53.421848 -6.279333 0 95 140 0
2019-08-09 14:56:46 GMT 53.422508 -6.291046 1,000 94 151 -832
2019-08-09 14:56:38 GMT 53.422989 -6.300424 1,125 94 152 -704
2019-08-09 14:56:28 GMT 53.423626 -6.312292 1,250 95 147 -960
2019-08-09 14:56:18 GMT 53.424278 -6.323844 1,400 95 148 -768
2019-08-09 14:56:05 GMT 53.425095 -6.339190 1,525 94 153 -768
2019-08-09 14:55:57 GMT 53.425552 -6.348293 1,675 94 148 -1024
2019-08-09 14:55:46 GMT 53.426189 -6.360761 1,825 95 150 -960
2019-08-09 14:55:36 GMT 53.426842 -6.372151 1,975 94 150 -960
2019-08-09 14:55:25 GMT 53.427521 -6.385332 2,125 96 152 -960
2019-08-09 14:55:15 GMT 53.428188 -6.396386 2,275 95 147 -704
2019-08-09 14:55:05 GMT 53.428940 -6.409973 2,400 94 150 -832
2019-08-09 14:54:55 GMT 53.429352 -6.420216 2,525 96 148 -1088
2019-08-09 14:54:44 GMT 53.430084 -6.432024 2,650 94 148 -640
2019-08-09 14:54:34 GMT 53.430679 -6.444188 2,775 94 155 -1152
2019-08-09 14:54:23 GMT 53.431412 -6.456979 2,950 94 149 -896
2019-08-09 14:54:14 GMT 53.431961 -6.467958 3,075 95 149 -704
2019-08-09 14:54:03 GMT 53.432693 -6.480207 3,200 94 153 -768
2019-08-09 14:53:52 GMT 53.433266 -6.493081 3,375 95 158 -960
2019-08-09 14:53:42 GMT 53.433975 -6.506182 3,500 95 166 -960
2019-08-09 14:53:32 GMT 53.434753 -6.519287 3,825 95 166 -960
2019-08-09 14:53:24 GMT 53.435257 -6.529332 3,825 92 170 -1728
2019-08-09 14:53:21 GMT 53.435349 -6.533412 3,900 94 169 -1728
2019-08-09 14:53:14 GMT 53.435871 -6.544216 4,125 94 167 -1792
2019-08-09 14:53:10 GMT 53.436058 -6.547286 4,200 95 168 -1664
2019-08-09 14:53:01 GMT 53.436996 -6.562526 4,475 97 171 -1152
2019-08-09 14:52:50 GMT 53.438004 -6.573434 4,650 101 172 -1280
2019-08-09 14:52:47 GMT 53.438477 -6.577095 4,675 102 172 -1280
2019-08-09 14:52:42 GMT 53.439972 -6.584342 4,825 116 171 -960
2019-08-09 14:52:39 GMT 53.440758 -6.587112 4,875 126 198 -640
2019-08-09 14:52:31 GMT 53.444138 -6.596427 4,975 124 176 -960
2019-08-09 14:52:28 GMT 53.445740 -6.600360 5,050 124 178 -1216
2019-08-09 14:52:19 GMT 53.449677 -6.610003 5,200 124 186 -896
2019-08-09 14:52:10 GMT 53.454117 -6.620754 5,350 124 194 -896
2019-08-09 14:52:07 GMT 53.455841 -6.624998 5,350 124 194 -896
2019-08-09 14:51:59 GMT 53.460022 -6.635193 5,475 124 199 -384
2019-08-09 14:51:54 GMT 53.462311 -6.640751 5,525 126 198 -640
2019-08-09 14:51:49 GMT 53.465572 -6.647698 5,550 128 195 256
2019-08-09 14:51:45 GMT 53.467480 -6.651899 5,525 131 194 640
2019-08-09 14:51:38 GMT 53.471436 -6.660300 5,550 130 194 576
2019-08-09 14:51:34 GMT 53.474232 -6.665228 5,525 137 194 640
2019-08-09 14:51:28 GMT 53.480759 -6.674194 5,425 142 197 896
2019-08-09 14:51:17 GMT 53.489273 -6.682826 5,375 156 197 -192
2019-08-09 14:51:09 GMT 53.493458 -6.684454 5,375 172 195 128
2019-08-09 14:51:05 GMT 53.496902 -6.684938 5,400 178 195 64
2019-08-09 14:50:59 GMT 53.502113 -6.685181 5,375 177 195 192
2019-08-09 14:50:56 GMT 53.504303 -6.685342 5,375 177 195 0
2019-08-09 14:50:52 GMT 53.510075 -6.685585 5,350 179 197 320
2019-08-09 14:50:49 GMT 53.511566 -6.685585 5,350 182 199 0
2019-08-09 14:50:46 GMT 53.513626 -6.685416 5,350 184 199 -384
2019-08-09 14:50:39 GMT 53.521362 -6.682670 5,475 201 198 -896
2019-08-09 14:50:34 GMT 53.524063 -6.680394 5,550 213 199 -1600
2019-08-09 14:50:28 GMT 53.528557 -6.673952 5,675 232 208 -832
2019-08-09 14:50:25 GMT 53.530060 -6.670741 5,725 237 209 -1408
2019-08-09 14:50:22 GMT 53.531845 -6.665641 5,800 244 215 -1408
2019-08-09 14:50:18 GMT 53.533173 -6.660226 5,925 252 219 -1216
2019-08-09 14:50:14 GMT 53.534225 -6.653948 5,950 259 224 -1152
2019-08-09 14:50:09 GMT 53.535259 -6.644143 6,100 262 226 -1088
2019-08-09 14:50:05 GMT 53.535873 -6.636998 6,125 262 226 -1088
2019-08-09 14:50:02 GMT 53.536285 -6.631975 6,175 262 226 -1088
2019-08-09 14:49:57 GMT 53.537121 -6.622575 6,275 262 227 -960
2019-08-09 14:49:52 GMT 53.537960 -6.613608 6,350 262 228 -896
2019-08-09 14:49:46 GMT 53.538750 -6.604964 6,425 262 230 -768
2019-08-09 14:49:41 GMT 53.539673 -6.594857 6,475 261 233 -512
2019-08-09 14:49:37 GMT 53.540451 -6.586932 6,525 261 235 -576
2019-08-09 14:49:33 GMT 53.540985 -6.581538 6,550 261 238 -640
2019-08-09 14:49:29 GMT 53.542053 -6.570766 6,600 261 240 -640
2019-08-09 14:49:26 GMT 53.542236 -6.568726 6,625 261 240 -640
2019-08-09 14:49:23 GMT 53.542786 -6.563232 6,650 261 243 -640
2019-08-09 14:49:20 GMT 53.543381 -6.557425 6,675 261 244 -640
2019-08-09 14:49:15 GMT 53.544250 -6.548636 6,725 261 246 -704
2019-08-09 14:49:12 GMT 53.544846 -6.542986 6,775 261 249 -640
2019-08-09 14:49:09 GMT 53.545456 -6.537269 6,800 261 250 -576
2019-08-09 14:49:06 GMT 53.546200 -6.529999 6,850 260 252 -768
2019-08-09 14:49:02 GMT 53.547035 -6.522244 6,900 261 254 -768
2019-08-09 14:48:59 GMT 53.547550 -6.517154 6,925 260 256 -640
2019-08-09 14:48:56 GMT 53.548325 -6.509870 6,950 260 258 -320
2019-08-09 14:48:52 GMT 53.549103 -6.503200 7,000 260 272 0
2019-08-09 14:48:49 GMT 53.549831 -6.496555 7,000 260 262 -512
2019-08-09 14:48:45 GMT 53.550659 -6.489153 7,025 260 265 -576
2019-08-09 14:48:42 GMT 53.551437 -6.482091 7,075 260 266 -640
2019-08-09 14:48:38 GMT 53.552345 -6.474340 7,100 260 268 -704
2019-08-09 14:48:34 GMT 53.553085 -6.467730 7,150 259 270 -768
2019-08-09 14:48:31 GMT 53.553864 -6.461373 7,175 259 271 -896
2019-08-09 14:48:28 GMT 53.555649 -6.446309 7,250 259 272 -1280
2019-08-09 14:48:25 GMT 53.555649 -6.446309 7,325 259 272 -1408
2019-08-09 14:48:20 GMT 53.556519 -6.438773 7,400 260 272 -1408
2019-08-09 14:48:17 GMT 53.557373 -6.431122 7,475 260 272 -1472
2019-08-09 14:48:13 GMT 53.558117 -6.424498 7,550 259 272 -1472
2019-08-09 14:48:10 GMT 53.558853 -6.418056 7,625 260 271 -1408
2019-08-09 14:48:06 GMT 53.559860 -6.409345 7,725 260 271 -1408
2019-08-09 14:48:03 GMT 53.560539 -6.403494 7,800 260 272 -1408
2019-08-09 14:48:00 GMT 53.561279 -6.396868 7,875 260 272 -1408
2019-08-09 14:47:57 GMT 53.561966 -6.391061 8,000 259 272 -1408
2019-08-09 14:47:53 GMT 53.563110 -6.381330 8,050 259 273 -1408
2019-08-09 14:47:49 GMT 53.565125 -6.364458 9,125 259 273 -1344
2019-08-09 14:47:45 GMT 53.565125 -6.364458 8,225 259 274 -1408
2019-08-09 14:47:42 GMT 53.565704 -6.359468 8,275 259 274 -1408
2019-08-09 14:47:39 GMT 53.567413 -6.345075 8,425 259 274 -1344
2019-08-09 14:47:35 GMT 53.567413 -6.345075 8,425 259 274 -1344
2019-08-09 14:47:32 GMT 53.568146 -6.338797 8,750 258 274 -1408
2019-08-09 14:47:29 GMT 53.569016 -6.331499 8,650 258 274 -1408
2019-08-09 14:47:26 GMT 53.569794 -6.325221 8,650 258 275 -1344
2019-08-09 14:47:23 GMT 53.570965 -6.316492 8,750 257 274 -1472
2019-08-09 14:47:19 GMT 53.572037 -6.308818 8,825 257 274 -1408
2019-08-09 14:47:14 GMT 53.573059 -6.301305 8,900 257 275 -1344
2019-08-09 14:47:11 GMT 53.574966 -6.287319 9,125 258 277 -1216
2019-08-09 14:47:08 GMT 53.574966 -6.287319 9,025 258 276 -1280
2019-08-09 14:47:05 GMT 53.576923 -6.272789 9,175 258 277 -1216
2019-08-09 14:47:01 GMT 53.576923 -6.272789 9,175 258 279 -1280
2019-08-09 14:46:56 GMT 53.578506 -6.260995 10,950 258 281 -1600
2019-08-09 14:46:53 GMT 53.579063 -6.256956 9,325 258 280 -1216
2019-08-09 14:46:50 GMT 53.579994 -6.250171 9,375 258 281 -1280
2019-08-09 14:46:47 GMT 53.582108 -6.234820 9,550 258 281 -1536
2019-08-09 14:46:43 GMT 53.582108 -6.234820 9,600 257 281 -1600
2019-08-09 14:46:39 GMT 53.583160 -6.227129 9,675 257 282 -1536
2019-08-09 14:46:35 GMT 53.585678 -6.208845 9,875 257 282 -1664
2019-08-09 14:46:31 GMT 53.585678 -6.208845 9,900 258 281 -1664
2019-08-09 14:46:27 GMT 53.586746 -6.200732 10,025 258 281 -1600
2019-08-09 14:46:24 GMT 53.587864 -6.192169 10,100 258 281 -1536
2019-08-09 14:46:19 GMT 53.588886 -6.184495 10,175 258 281 -1472
2019-08-09 14:46:15 GMT 53.589981 -6.176121 10,275 259 282 -1408
2019-08-09 14:46:12 GMT 53.591171 -6.166077 10,400 260 282 -1472
2019-08-09 14:46:09 GMT 53.591675 -6.161761 10,425 260 282 -1472
2019-08-09 14:46:04 GMT 53.592636 -6.152893 10,525 261 282 -1472
2019-08-09 14:46:01 GMT 53.593369 -6.145046 10,650 263 284 -1408
2019-08-09 14:45:58 GMT 53.593964 -6.138297 10,675 263 285 -1408
2019-08-09 14:45:54 GMT 53.594559 -6.130371 10,775 264 284 -1472
2019-08-09 14:45:51 GMT 53.595245 -6.120719 10,875 264 285 -1472
2019-08-09 14:45:48 GMT 53.595592 -6.115184 10,925 264 285 -1472
2019-08-09 14:45:45 GMT 53.595978 -6.109026 11,000 264 285 -1408
2019-08-09 14:45:41 GMT 53.596710 -6.098432 11,100 264 285 -1408
2019-08-09 14:45:37 GMT 53.597168 -6.090663 11,200 264 286 -1344
2019-08-09 14:45:33 GMT 53.597717 -6.082738 11,275 264 285 -1408
2019-08-09 14:45:27 GMT 53.598618 -6.069058 11,400 264 286 -1280
2019-08-09 14:45:22 GMT 53.599274 -6.059038 11,500 264 287 -1152
2019-08-09 14:45:19 GMT 53.599731 -6.052211 11,575 265 288 -1152
2019-08-09 14:45:16 GMT 53.600201 -6.045308 11,625 265 288 -1152
2019-08-09 14:45:12 GMT 53.601196 -6.029218 11,725 264 288 -1408
2019-08-09 14:45:09 GMT 53.601196 -6.029218 11,775 264 288 -1344
2019-08-09 14:45:06 GMT 53.601746 -6.021449 11,825 264 289 -1408
2019-08-09 14:45:02 GMT 53.602249 -6.013602 11,925 264 289 -1472
2019-08-09 14:44:58 GMT 53.603210 -5.998378 12,025 264 289 -1536
2019-08-09 14:44:55 GMT 53.603210 -5.998378 12,075 264 289 -1536
2019-08-09 14:44:52 GMT 53.603691 -5.991507 12,150 264 288 -1472
2019-08-09 14:44:48 GMT 53.604218 -5.983233 12,250 264 288 -1472
2019-08-09 14:44:45 GMT 53.604767 -5.975228 12,275 264 288 -1472
2019-08-09 14:44:42 GMT 53.605316 -5.967460 12,825 264 289 -1408
2019-08-09 14:44:39 GMT 53.605682 -5.962045 12,475 264 288 -1536
2019-08-09 14:44:35 GMT 53.606369 -5.951843 12,575 264 288 -1536
2019-08-09 14:44:32 GMT 53.607182 -5.939807 12,675 264 288 -1472
2019-08-09 14:44:26 GMT 53.607468 -5.935521 12,750 264 289 -1408
2019-08-09 14:44:23 GMT 53.608017 -5.927281 12,850 264 289 -1472
2019-08-09 14:44:20 GMT 53.608383 -5.921474 13,375 264 293 -1344
2019-08-09 14:44:15 GMT 53.609184 -5.909514 13,025 264 290 -1344
2019-08-09 14:44:11 GMT 53.609802 -5.899423 13,200 264 292 -1344
2019-08-09 14:44:07 GMT 53.610256 -5.892469 13,250 264 292 -1344
2019-08-09 14:44:04 GMT 53.610722 -5.884714 13,275 264 293 -1344
2019-08-09 14:44:00 GMT 53.611465 -5.873162 13,325 264 293 -1344
2019-08-09 14:43:57 GMT 53.611725 -5.869760 13,350 264 293 -1344
2019-08-09 14:43:54 GMT 53.612137 -5.862932 13,450 264 294 -1344
2019-08-09 14:43:51 GMT 53.612675 -5.854501 14,050 264 299 -1216
2019-08-09 14:43:48 GMT 53.613140 -5.847231 14,050 264 299 -1216
2019-08-09 14:43:43 GMT 53.613739 -5.837821 13,725 265 296 -1344
2019-08-09 14:43:40 GMT 53.614151 -5.831151 13,800 264 297 -1344
2019-08-09 14:43:37 GMT 53.614655 -5.823853 13,850 264 299 -1216
2019-08-09 14:43:34 GMT 53.615234 -5.814595 13,925 264 298 -1280
2019-08-09 14:43:30 GMT 53.615753 -5.806588 14,000 264 298 -1216
2019-08-09 14:43:27 GMT 53.616211 -5.800075 14,050 265 303 -1088
2019-08-09 14:43:24 GMT 53.616669 -5.793169 14,125 264 300 -1152
2019-08-09 14:43:18 GMT 53.617538 -5.780143 14,200 264 301 -1088
2019-08-09 14:43:15 GMT 53.618179 -5.770020 14,325 265 303 -1152
2019-08-09 14:43:12 GMT 53.618496 -5.764914 14,325 265 304 -1152
2019-08-09 14:43:08 GMT 53.619049 -5.755894 14,375 265 305 -1152
2019-08-09 14:43:04 GMT 53.620358 -5.734863 14,525 265 306 -1280
2019-08-09 14:43:01 GMT 53.620358 -5.734863 14,600 265 306 -1344
2019-08-09 14:42:57 GMT 53.620743 -5.728271 14,625 265 306 -1344
2019-08-09 14:42:54 GMT 53.621155 -5.721601 14,750 265 307 -1280
2019-08-09 14:42:51 GMT 53.621613 -5.714460 14,775 265 307 -1344
2019-08-09 14:42:48 GMT 53.622070 -5.706613 14,800 265 307 -1344
2019-08-09 14:42:45 GMT 53.622299 -5.702532 14,875 265 308 -1344
2019-08-09 14:42:42 GMT 53.622757 -5.694920 14,950 265 308 -1344
2019-08-09 14:42:39 GMT 53.623291 -5.686798 15,000 265 308 -1344
2019-08-09 14:42:36 GMT 53.623756 -5.679447 15,100 264 308 -1408
2019-08-09 14:42:32 GMT 53.624313 -5.670561 15,175 264 309 -1472
2019-08-09 14:42:28 GMT 53.624954 -5.659842 15,275 265 309 -1472
2019-08-09 14:42:25 GMT 53.625320 -5.653878 15,850 265 311 -1344
2019-08-09 14:42:22 GMT 53.625851 -5.645519 15,425 265 309 -1472
2019-08-09 14:42:18 GMT 53.626827 -5.629928 15,850 265 311 -1344
2019-08-09 14:42:11 GMT 53.627434 -5.620315 15,650 265 310 -1216
2019-08-09 14:42:08 GMT 53.627991 -5.609975 15,750 265 311 -1280
2019-08-09 14:42:05 GMT 53.628342 -5.604675 15,900 265 311 -1408
2019-08-09 14:42:01 GMT 53.628891 -5.595023 15,875 265 312 -1408
2019-08-09 14:41:58 GMT 53.629250 -5.589052 15,975 265 312 -1472
2019-08-09 14:41:55 GMT 53.629807 -5.579843 16,075 265 312 -1472
2019-08-09 14:41:51 GMT 53.630356 -5.570696 16,400 265 313 -1408
2019-08-09 14:41:47 GMT 53.630951 -5.560730 16,200 265 313 -1408
2019-08-09 14:41:44 GMT 53.631317 -5.554452 16,375 265 313 -1408
2019-08-09 14:41:38 GMT 53.632229 -5.539694 16,350 265 313 -1408
2019-08-09 14:41:34 GMT 53.632927 -5.528466 16,500 265 314 -1472
2019-08-09 14:41:30 GMT 53.633377 -5.520238 16,575 265 315 -1472
2019-08-09 14:41:25 GMT 53.634182 -5.506574 16,975 265 315 -1536
2019-08-09 14:41:22 GMT 53.634880 -5.494376 16,850 265 316 -1536
2019-08-09 14:41:15 GMT 53.635578 -5.482339 17,025 265 316 -1600
2019-08-09 14:41:12 GMT 53.635895 -5.477469 16,975 265 316 -1600
2019-08-09 14:41:09 GMT 53.636948 -5.459420 17,250 265 315 -1664
2019-08-09 14:41:05 GMT 53.636948 -5.459420 17,250 265 315 -1664
2019-08-09 14:41:01 GMT 53.637451 -5.450867 17,275 265 315 -1664
2019-08-09 14:40:58 GMT 53.638325 -5.437425 17,450 264 315 -1536
2019-08-09 14:40:54 GMT 53.638744 -5.430316 17,475 264 315 -1536
2019-08-09 14:40:51 GMT 53.639008 -5.426147 17,575 264 315 -1536
2019-08-09 14:40:47 GMT 53.639957 -5.412221 17,700 264 315 -1536
2019-08-09 14:40:44 GMT 53.640381 -5.405901 17,850 264 317 -1600
2019-08-09 14:40:41 GMT 53.640747 -5.400507 18,275 264 318 -1536
2019-08-09 14:40:38 GMT 53.641258 -5.393399 19,000 264 317 -1600
2019-08-09 14:40:34 GMT 53.641937 -5.383615 18,000 264 317 -1600
2019-08-09 14:40:31 GMT 53.642487 -5.376081 18,100 264 317 -1536
2019-08-09 14:40:28 GMT 53.643028 -5.368437 18,150 264 318 -1536
2019-08-09 14:40:24 GMT 53.643585 -5.360601 18,250 264 318 -1536
2019-08-09 14:40:21 GMT 53.644890 -5.342668 19,675 270 330 -1536
2019-08-09 14:40:18 GMT 53.644890 -5.342668 18,400 263 318 -1472
2019-08-09 14:40:13 GMT 53.646332 -5.323504 18,575 263 319 -1472
2019-08-09 14:40:10 GMT 53.646332 -5.323504 18,600 263 320 -1408
2019-08-09 14:40:06 GMT 53.646984 -5.314798 18,675 263 320 -1472
2019-08-09 14:40:03 GMT 53.647476 -5.308908 19,050 263 322 -1408
2019-08-09 14:39:59 GMT 53.648335 -5.298480 18,850 263 322 -1408
2019-08-09 14:39:55 GMT 53.649220 -5.287574 18,900 265 325 -1536
2019-08-09 14:39:52 GMT 53.649826 -5.279335 19,025 264 324 -1536
2019-08-09 14:39:49 GMT 53.650269 -5.273124 19,075 265 325 -1536
2019-08-09 14:39:46 GMT 53.650661 -5.265521 19,150 267 326 -1536
2019-08-09 14:39:42 GMT 53.651047 -5.255702 19,300 269 328 -1536
2019-08-09 14:39:39 GMT 53.651184 -5.246756 19,300 270 331 -1536
2019-08-09 14:39:34 GMT 53.651268 -5.234016 19,450 270 330 -1472
2019-08-09 14:39:31 GMT 53.651321 -5.226039 19,625 270 331 -1536
2019-08-09 14:39:28 GMT 53.651360 -5.219637 19,700 270 331 -1536
2019-08-09 14:39:25 GMT 53.651455 -5.212205 19,650 270 331 -1536
2019-08-09 14:39:21 GMT 53.651546 -5.199603 19,825 270 332 -1600
2019-08-09 14:39:17 GMT 53.651592 -5.192090 19,850 270 332 -1600
2019-08-09 14:39:13 GMT 53.651733 -5.177150 20,225 270 333 -1600
2019-08-09 14:39:10 GMT 53.651779 -5.173026 20,075 270 333 -1600
2019-08-09 14:39:07 GMT 53.651825 -5.165771 20,275 270 333 -1600
2019-08-09 14:39:03 GMT 53.651917 -5.154864 20,225 270 333 -1600
2019-08-09 14:38:59 GMT 53.652008 -5.145839 20,325 269 333 -1664
2019-08-09 14:38:56 GMT 53.652145 -5.130066 22,150 270 341 -1408
2019-08-09 14:38:53 GMT 53.652145 -5.130066 20,475 270 334 -1600
2019-08-09 14:38:49 GMT 53.652245 -5.119387 20,575 270 334 -1600
2019-08-09 14:38:46 GMT 53.652340 -5.110097 20,675 270 335 -1472
2019-08-09 14:38:43 GMT 53.652386 -5.102261 20,750 270 335 -1536
2019-08-09 14:38:40 GMT 53.652431 -5.091355 20,850 270 336 -1536
2019-08-09 14:38:37 GMT 53.652466 -5.087455 20,925 270 336 -1536
2019-08-09 14:38:34 GMT 53.652512 -5.078587 20,975 270 336 -1600
2019-08-09 14:38:31 GMT 53.652512 -5.071995 21,050 270 336 -1600
2019-08-09 14:38:28 GMT 53.652557 -5.063677 21,175 270 337 -1600
2019-08-09 14:38:24 GMT 53.652649 -5.051592 21,900 270 338 -1472
2019-08-09 14:38:21 GMT 53.652695 -5.043509 21,325 270 338 -1472
2019-08-09 14:38:18 GMT 53.652740 -5.035897 21,375 270 338 -1536
2019-08-09 14:38:15 GMT 53.652760 -5.030123 21,450 270 338 -1472
2019-08-09 14:38:12 GMT 53.652878 -5.008824 21,625 270 340 -1408
2019-08-09 14:38:08 GMT 53.652878 -5.008824 21,675 270 342 -1408
2019-08-09 14:38:02 GMT 53.652924 -4.995091 21,775 270 341 -1408
2019-08-09 14:37:59 GMT 53.652943 -4.988197 21,925 270 342 -1408
2019-08-09 14:37:56 GMT 53.652969 -4.977277 21,950 270 342 -1408
2019-08-09 14:37:53 GMT 53.652969 -4.968253 21,950 270 342 -1408
2019-08-09 14:37:50 GMT 53.652988 -4.962670 22,050 270 343 -1408
2019-08-09 14:37:47 GMT 53.652988 -4.955723 22,100 270 344 -1408
2019-08-09 14:37:44 GMT 53.652988 -4.939082 22,275 270 345 -1408
2019-08-09 14:37:41 GMT 53.652988 -4.939082 22,250 270 346 -1408
2019-08-09 14:37:37 GMT 53.653015 -4.921640 22,375 270 347 -1472
2019-08-09 14:37:34 GMT 53.653038 -4.920017 22,400 270 347 -1536
2019-08-09 14:37:31 GMT 53.653061 -4.913243 22,700 270 348 -1728
2019-08-09 14:37:28 GMT 53.653084 -4.902730 22,650 270 348 -1792
2019-08-09 14:37:23 GMT 53.653130 -4.892470 22,700 270 348 -1856
2019-08-09 14:37:20 GMT 53.653198 -4.880048 22,775 270 348 -1856
2019-08-09 14:37:15 GMT 53.653221 -4.866782 22,950 270 348 -1920
2019-08-09 14:37:12 GMT 53.653290 -4.858390 23,025 270 348 -1728
2019-08-09 14:37:09 GMT 53.653290 -4.852975 23,275 269 349 -1664
2019-08-09 14:37:06 GMT 53.653381 -4.841047 23,275 270 348 -1792
2019-08-09 14:37:03 GMT 53.653381 -4.835711 23,350 270 348 -1728
2019-08-09 14:36:59 GMT 53.653473 -4.825431 23,450 270 348 -1728
2019-08-09 14:36:55 GMT 53.653564 -4.815151 23,600 270 348 -1664
2019-08-09 14:36:52 GMT 53.653641 -4.806519 23,800 270 349 -1664
2019-08-09 14:36:49 GMT 53.653690 -4.798602 23,725 270 349 -1664
2019-08-09 14:36:46 GMT 53.653969 -4.775337 23,875 269 349 -1664
2019-08-09 14:36:42 GMT 53.653969 -4.775337 24,025 269 349 -1664
2019-08-09 14:36:39 GMT 53.654068 -4.768223 24,025 269 349 -1728
2019-08-09 14:36:35 GMT 53.654247 -4.757646 24,200 269 350 -1792
2019-08-09 14:36:32 GMT 53.654343 -4.752529 24,200 269 350 -1792
2019-08-09 14:36:29 GMT 53.654480 -4.744317 24,275 269 350 -1792
2019-08-09 14:36:26 GMT 53.654621 -4.735915 24,350 269 350 -1856
2019-08-09 14:36:23 GMT 53.654758 -4.728806 24,450 269 351 -1856
2019-08-09 14:36:20 GMT 53.654945 -4.720082 24,700 268 351 0
2019-08-09 14:36:17 GMT 53.655212 -4.707799 24,700 268 351 -1856
2019-08-09 14:36:12 GMT 53.655441 -4.698539 24,800 268 351 -1920
2019-08-09 14:36:09 GMT 53.655670 -4.690063 25,000 267 351 -1856
2019-08-09 14:36:06 GMT 53.655876 -4.680822 25,050 267 351 -1856
2019-08-09 14:36:03 GMT 53.656063 -4.675329 25,150 267 351 -1728
2019-08-09 14:36:00 GMT 53.656387 -4.665797 25,250 267 351 -1856
2019-08-09 14:35:57 GMT 53.656631 -4.658752 25,250 267 351 -1728
2019-08-09 14:35:54 GMT 53.657089 -4.640390 25,450 269 353 -1600
2019-08-09 14:35:51 GMT 53.657089 -4.640390 25,475 270 354 -1600
2019-08-09 14:35:48 GMT 53.657181 -4.634049 25,625 274 356 -1536
2019-08-09 14:35:45 GMT 53.657135 -4.625793 25,625 274 356 -1536
2019-08-09 14:35:41 GMT 53.656769 -4.611668 25,775 275 359 -1472
2019-08-09 14:35:38 GMT 53.656433 -4.604483 26,000 275 360 -1408
2019-08-09 14:35:34 GMT 53.655533 -4.585536 27,025 275 360 -1408
2019-08-09 14:35:28 GMT 53.655132 -4.577179 26,000 275 361 -1472
2019-08-09 14:35:25 GMT 53.654755 -4.568821 26,125 275 363 -1472
2019-08-09 14:35:22 GMT 53.653919 -4.550521 26,275 275 365 -1472
2019-08-09 14:35:19 GMT 53.653919 -4.550521 26,225 275 364 -1472
2019-08-09 14:35:16 GMT 53.653595 -4.543412 26,325 275 366 -1408
2019-08-09 14:35:13 GMT 53.653038 -4.531537 26,375 275 366 -1408
2019-08-09 14:35:10 GMT 53.652664 -4.523297 26,400 275 367 -1344
2019-08-09 14:35:07 GMT 53.651962 -4.508475 26,575 275 369 -1472
2019-08-09 14:35:01 GMT 53.651546 -4.499952 26,650 275 369 -1600
2019-08-09 14:34:58 GMT 53.651127 -4.491066 26,725 275 370 -1664
2019-08-09 14:34:55 GMT 53.650681 -4.481873 26,975 275 371 -1600
2019-08-09 14:34:52 GMT 53.650337 -4.474424 26,875 275 371 -1600
2019-08-09 14:34:49 GMT 53.649918 -4.465538 27,025 275 371 -1728
2019-08-09 14:34:46 GMT 53.649498 -4.456572 27,025 275 371 -1728
2019-08-09 14:34:43 GMT 53.649170 -4.448521 27,200 275 372 -1728
2019-08-09 14:34:39 GMT 53.648254 -4.428667 27,325 275 372 -1792
2019-08-09 14:34:36 GMT 53.647869 -4.419978 27,350 275 372 -1792
2019-08-09 14:34:33 GMT 53.647869 -4.419978 27,425 275 372 -1728
2019-08-09 14:34:29 GMT 53.647404 -4.408991 27,525 275 372 -1728
2019-08-09 14:34:26 GMT 53.646286 -4.382979 28,075 275 375 -1856
2019-08-09 14:34:21 GMT 53.646057 -4.377424 27,800 275 373 -1792
2019-08-09 14:34:15 GMT 53.645542 -4.365531 27,950 275 375 -1856
2019-08-09 14:34:10 GMT 53.644936 -4.351878 28,225 275 375 -1856
2019-08-09 14:34:07 GMT 53.644592 -4.344936 28,300 275 375 -1856
2019-08-09 14:34:04 GMT 53.644192 -4.336207 28,225 275 375 -1856
2019-08-09 14:34:01 GMT 53.643353 -4.316415 28,900 274 377 -1600
2019-08-09 14:33:58 GMT 53.643353 -4.316415 28,475 275 375 -1792
2019-08-09 14:33:55 GMT 53.642990 -4.307661 28,800 274 375 -1856
2019-08-09 14:33:52 GMT 53.642715 -4.300991 28,850 274 377 -1600
2019-08-09 14:33:47 GMT 53.642075 -4.285531 28,775 274 376 -1792
2019-08-09 14:33:44 GMT 53.641754 -4.277056 28,875 274 377 -1664
2019-08-09 14:33:41 GMT 53.641399 -4.268916 29,200 274 387 -1024
2019-08-09 14:33:36 GMT 53.640747 -4.251552 29,125 274 378 -1344
2019-08-09 14:33:33 GMT 53.640518 -4.245745 29,175 274 379 -1216
2019-08-09 14:33:30 GMT 53.640198 -4.237191 29,450 274 381 -1024
2019-08-09 14:33:27 GMT 53.639862 -4.229171 29,275 274 382 -960
2019-08-09 14:33:24 GMT 53.639374 -4.215533 29,350 274 385 -1024
2019-08-09 14:33:17 GMT 53.638653 -4.197262 29,400 274 387 -1088
2019-08-09 14:33:14 GMT 53.638325 -4.189103 29,475 274 388 -1024
2019-08-09 14:33:11 GMT 53.638000 -4.181553 29,500 274 390 -1024
2019-08-09 14:33:08 GMT 53.637070 -4.158810 29,700 274 401 -768
2019-08-09 14:33:05 GMT 53.637070 -4.158810 29,625 275 394 -896
2019-08-09 14:33:01 GMT 53.636627 -4.148359 29,675 275 397 -704
2019-08-09 14:32:58 GMT 53.636169 -4.137294 29,725 275 400 -832
2019-08-09 14:32:55 GMT 53.635895 -4.131095 29,750 275 401 -768
2019-08-09 14:32:52 GMT 53.635021 -4.110260 29,825 275 406 -640
2019-08-09 14:32:49 GMT 53.635021 -4.110260 29,850 274 403 -768
2019-08-09 14:32:46 GMT 53.634556 -4.098951 29,900 275 408 -640
2019-08-09 14:32:43 GMT 53.634201 -4.090759 29,925 275 409 -640
2019-08-09 14:32:40 GMT 53.633835 -4.081892 29,925 274 412 -640
2019-08-09 14:32:37 GMT 53.633530 -4.074231 29,975 274 411 -640
2019-08-09 14:32:34 GMT 53.633148 -4.064628 30,000 274 414 -704
2019-08-09 14:32:31 GMT 53.632645 -4.052699 31,200 274 429 -1920
2019-08-09 14:32:25 GMT 53.631866 -4.033160 30,275 275 423 -1472
2019-08-09 14:32:22 GMT 53.631577 -4.026974 30,400 275 425 -1920
2019-08-09 14:32:19 GMT 53.631088 -4.015503 30,300 275 424 -1536
2019-08-09 14:32:16 GMT 53.630550 -4.004355 30,375 275 425 -1856
2019-08-09 14:32:13 GMT 53.630173 -3.995806 30,500 275 426 -1856
2019-08-09 14:32:10 GMT 53.629623 -3.984270 30,575 275 426 -1920
2019-08-09 14:32:07 GMT 53.629204 -3.975677 30,650 275 427 -1920
2019-08-09 14:32:04 GMT 53.628845 -3.968026 30,775 275 427 -1920
2019-08-09 14:32:01 GMT 53.627991 -3.946838 30,900 274 428 -1920
2019-08-09 14:31:55 GMT 53.627609 -3.936951 31,125 274 429 -1920
2019-08-09 14:31:52 GMT 53.627151 -3.924630 31,150 274 429 -1920
2019-08-09 14:31:48 GMT 53.626781 -3.914606 31,325 274 430 -1920
2019-08-09 14:31:45 GMT 53.626316 -3.902651 31,425 274 430 -1984
2019-08-09 14:31:42 GMT 53.625992 -3.894573 31,500 274 432 -1920
2019-08-09 14:31:39 GMT 53.625458 -3.881548 31,525 275 432 -1920
2019-08-09 14:31:35 GMT 53.624817 -3.867501 31,725 275 434 -1920
2019-08-09 14:31:32 GMT 53.623989 -3.849012 31,850 275 434 -2048
2019-08-09 14:31:29 GMT 53.623989 -3.849012 31,925 275 435 -1920
2019-08-09 14:31:26 GMT 53.623444 -3.836897 31,975 275 435 -1920
2019-08-09 14:31:23 GMT 53.623058 -3.828089 32,025 275 435 -1856
2019-08-09 14:31:20 GMT 53.622711 -3.821045 32,225 275 437 -2048
2019-08-09 14:31:17 GMT 53.622265 -3.810883 32,775 275 439 -1536
2019-08-09 14:31:14 GMT 53.621662 -3.796665 32,375 275 437 -2048
2019-08-09 14:31:11 GMT 53.621246 -3.787144 32,550 275 439 -1664
2019-08-09 14:31:07 GMT 53.620731 -3.775339 32,600 275 439 -1600
2019-08-09 14:31:04 GMT 53.620239 -3.765093 32,750 275 439 -1600
2019-08-09 14:31:01 GMT 53.619507 -3.750889 32,825 276 439 -1216
2019-08-09 14:30:58 GMT 53.619053 -3.742380 32,825 276 441 -1024
2019-08-09 14:30:55 GMT 53.618450 -3.731797 32,875 276 441 -896
2019-08-09 14:30:52 GMT 53.617859 -3.722246 32,900 277 441 -768
2019-08-09 14:30:48 GMT 53.616898 -3.707650 33,050 278 443 -704
2019-08-09 14:30:45 GMT 53.616447 -3.701504 33,025 279 443 -704
2019-08-09 14:30:42 GMT 53.615330 -3.687852 33,025 279 443 -640
2019-08-09 14:30:39 GMT 53.614353 -3.676946 33,075 279 444 -640
2019-08-09 14:30:36 GMT 53.613739 -3.670846 33,075 280 445 -704
2019-08-09 14:30:33 GMT 53.612595 -3.659310 33,125 281 445 -768
2019-08-09 14:30:30 GMT 53.611607 -3.650127 33,150 282 446 -832
2019-08-09 14:30:27 GMT 53.610115 -3.637848 33,200 282 447 -832
2019-08-09 14:30:24 GMT 53.609207 -3.630746 34,000 287 448 -64
2019-08-09 14:30:21 GMT 53.607136 -3.615875 33,400 285 448 -1344
2019-08-09 14:30:18 GMT 53.605694 -3.606424 33,375 285 448 -1408
2019-08-09 14:30:15 GMT 53.604218 -3.597002 33,450 287 448 -1280
2019-08-09 14:30:12 GMT 53.602386 -3.586309 33,500 287 448 -1216
2019-08-09 14:30:09 GMT 53.598999 -3.566633 33,600 287 448 -1216
2019-08-09 14:30:06 GMT 53.598999 -3.566633 33,625 287 448 -1216
2019-08-09 14:30:03 GMT 53.597397 -3.557608 33,650 287 448 -1216
2019-08-09 14:30:00 GMT 53.595978 -3.549290 33,825 287 447 -1024
2019-08-09 14:29:57 GMT 53.593689 -3.536264 33,775 287 447 -1152
2019-08-09 14:29:54 GMT 53.589958 -3.514979 33,850 287 447 -960
2019-08-09 14:29:50 GMT 53.589958 -3.514979 33,925 287 447 -768
2019-08-09 14:29:47 GMT 53.587910 -3.503346 33,975 287 448 -192
2019-08-09 14:29:44 GMT 53.586411 -3.494673 33,975 287 448 -128
2019-08-09 14:29:41 GMT 53.582695 -3.473699 33,975 287 448 -128
2019-08-09 14:29:38 GMT 53.581146 -3.465009 33,975 287 449 -128
2019-08-09 14:29:35 GMT 53.579578 -3.456008 34,000 287 449 -128
2019-08-09 14:29:29 GMT 53.575947 -3.434924 34,000 287 449 0
2019-08-09 14:29:26 GMT 53.575947 -3.434924 33,975 287 449 -64
2019-08-09 14:29:23 GMT 53.572315 -3.414244 33,975 287 449 0
2019-08-09 14:29:20 GMT 53.572315 -3.414244 33,975 287 449 0
2019-08-09 14:29:17 GMT 53.570267 -3.402530 33,975 287 449 64
2019-08-09 14:29:13 GMT 53.566635 -3.382173 34,000 287 449 -64
2019-08-09 14:29:07 GMT 53.563065 -3.361816 34,000 287 449 64
2019-08-09 14:29:04 GMT 53.563065 -3.361816 34,000 287 449 64
2019-08-09 14:29:01 GMT 53.560867 -3.349496 33,975 287 449 -64
2019-08-09 14:28:58 GMT 53.559376 -3.340813 33,975 287 449 -64
2019-08-09 14:28:54 GMT 53.554916 -3.315752 34,000 287 449 -64
2019-08-09 14:28:50 GMT 53.554916 -3.315752 34,000 287 449 0
2019-08-09 14:28:47 GMT 53.553230 -3.305996 33,975 287 449 64
2019-08-09 14:28:44 GMT 53.551086 -3.294040 33,975 287 449 64
2019-08-09 14:28:40 GMT 53.548805 -3.281358 33,975 287 449 -64
2019-08-09 14:28:37 GMT 53.546906 -3.270630 33,975 287 450 64
2019-08-09 14:28:32 GMT 53.543930 -3.253601 33,975 287 450 -64
2019-08-09 14:28:29 GMT 53.540752 -3.235474 33,975 287 450 0
2019-08-09 14:28:26 GMT 53.540752 -3.235474 34,000 287 450 -64
2019-08-09 14:28:22 GMT 53.538437 -3.222447 34,000 287 450 -128
2019-08-09 14:28:19 GMT 53.536514 -3.211775 34,000 287 451 -64
2019-08-09 14:28:16 GMT 53.534409 -3.200082 34,000 287 451 -64
2019-08-09 14:28:12 GMT 53.532372 -3.188701 34,000 287 451 -64
2019-08-09 14:28:09 GMT 53.530277 -3.176988 34,000 287 451 -64
2019-08-09 14:28:06 GMT 53.528687 -3.168300 34,000 287 451 -64
2019-08-09 14:28:03 GMT 53.526489 -3.155901 34,000 287 452 0
2019-08-09 14:28:00 GMT 53.525070 -3.148211 34,000 287 451 -128
2019-08-09 14:27:57 GMT 53.523102 -3.137146 34,000 287 451 -64
2019-08-09 14:27:54 GMT 53.521225 -3.126787 34,000 287 452 0
2019-08-09 14:27:51 GMT 53.519524 -3.117371 34,000 287 452 64
2019-08-09 14:27:48 GMT 53.518250 -3.110308 34,000 287 452 64
2019-08-09 14:27:44 GMT 53.515568 -3.095236 34,000 287 452 0
2019-08-09 14:27:41 GMT 53.513008 -3.081180 34,000 287 452 0
2019-08-09 14:27:38 GMT 53.511890 -3.074799 34,000 287 452 0
2019-08-09 14:27:35 GMT 53.509472 -3.061389 34,000 287 452 0
2019-08-09 14:27:31 GMT 53.505386 -3.038583 33,975 287 452 0
2019-08-09 14:27:28 GMT 53.505386 -3.038583 33,975 287 452 64
2019-08-09 14:27:24 GMT 53.503139 -3.026168 33,975 287 452 64
2019-08-09 14:27:21 GMT 53.501358 -3.016139 33,975 287 452 64
2019-08-09 14:27:17 GMT 53.499275 -3.004438 33,975 287 452 64
2019-08-09 14:27:14 GMT 53.496716 -2.990301 33,975 287 452 -64
2019-08-09 14:27:11 GMT 53.495087 -2.981253 33,975 287 452 -128
2019-08-09 14:27:07 GMT 53.492805 -2.968570 34,000 287 451 -64
2019-08-09 14:27:04 GMT 53.490875 -2.957912 34,000 287 451 -64
2019-08-09 14:27:01 GMT 53.489365 -2.949515 34,000 287 451 64
2019-08-09 14:26:58 GMT 53.486752 -2.935127 34,000 287 451 128
2019-08-09 14:26:55 GMT 53.485291 -2.927150 34,000 287 451 128
2019-08-09 14:26:52 GMT 53.483734 -2.918440 34,000 287 451 0
2019-08-09 14:26:49 GMT 53.481995 -2.908787 33,975 287 451 0
2019-08-09 14:26:46 GMT 53.480347 -2.899763 33,975 287 451 64
2019-08-09 14:26:43 GMT 53.478188 -2.887708 33,975 287 451 128
2019-08-09 14:26:40 GMT 53.476685 -2.879360 33,975 287 451 -64
2019-08-09 14:26:37 GMT 53.474880 -2.869290 33,975 287 452 -64
2019-08-09 14:26:34 GMT 53.470924 -2.847236 33,975 287 451 -128
2019-08-09 14:26:31 GMT 53.469131 -2.837219 34,000 287 451 -128
2019-08-09 14:26:28 GMT 53.469131 -2.837219 34,000 287 451 -192
2019-08-09 14:26:24 GMT 53.466923 -2.824860 34,000 287 451 -64
2019-08-09 14:26:21 GMT 53.465332 -2.816110 34,000 288 452 -64
2019-08-09 14:26:18 GMT 53.461578 -2.795393 34,000 288 451 -64
2019-08-09 14:26:15 GMT 53.459660 -2.785034 34,000 288 452 64
2019-08-09 14:26:09 GMT 53.457890 -2.775421 34,000 287 450 0
2019-08-09 14:26:05 GMT 53.455704 -2.763385 34,000 288 451 -64
2019-08-09 14:26:02 GMT 53.453655 -2.752398 34,000 288 451 -64
2019-08-09 14:25:59 GMT 53.451977 -2.743351 34,000 288 451 0
2019-08-09 14:25:56 GMT 53.448349 -2.723746 34,000 288 450 -64
2019-08-09 14:25:53 GMT 53.445831 -2.709699 34,000 287 450 -64
2019-08-09 14:25:50 GMT 53.445831 -2.709699 33,975 288 451 -192
2019-08-09 14:25:47 GMT 53.444733 -2.703735 34,000 287 450 0
2019-08-09 14:25:44 GMT 53.442760 -2.693104 34,000 288 450 64
2019-08-09 14:25:41 GMT 53.440567 -2.680743 34,000 287 450 64
2019-08-09 14:25:38 GMT 53.438782 -2.671090 34,000 288 450 64
2019-08-09 14:25:35 GMT 53.436989 -2.661034 34,000 288 450 0
2019-08-09 14:25:32 GMT 53.435715 -2.654061 34,000 288 450 0
2019-08-09 14:25:29 GMT 53.432194 -2.635103 34,000 288 450 -128
2019-08-09 14:25:23 GMT 53.429855 -2.622123 34,000 288 450 -64
2019-08-09 14:25:20 GMT 53.427933 -2.611764 34,000 288 451 64
2019-08-09 14:25:16 GMT 53.423302 -2.586472 34,000 288 451 -64
2019-08-09 14:25:13 GMT 53.422230 -2.580495 34,000 288 451 0
2019-08-09 14:25:10 GMT 53.419601 -2.566171 34,000 288 451 -64
2019-08-09 14:25:07 GMT 53.419601 -2.566171 34,000 288 451 -64
2019-08-09 14:25:04 GMT 53.416580 -2.549848 34,000 288 451 64
2019-08-09 14:25:01 GMT 53.416580 -2.549848 34,000 288 451 0
2019-08-09 14:24:58 GMT 53.413990 -2.536226 34,000 288 451 64
2019-08-09 14:24:55 GMT 53.412781 -2.529602 34,000 288 451 64
2019-08-09 14:24:52 GMT 53.408478 -2.506217 34,000 288 452 0
2019-08-09 14:24:45 GMT 53.406555 -2.495937 34,000 288 451 -64
2019-08-09 14:24:42 GMT 53.404541 -2.484950 34,000 288 451 -64
2019-08-09 14:24:39 GMT 53.402260 -2.472651 34,000 288 451 0
2019-08-09 14:24:36 GMT 53.401062 -2.466274 34,000 288 451 0
2019-08-09 14:24:33 GMT 53.399460 -2.457642 33,975 288 451 64
2019-08-09 14:24:30 GMT 53.397217 -2.445714 34,000 288 450 64
2019-08-09 14:24:27 GMT 53.395325 -2.435734 34,000 288 451 64
2019-08-09 14:24:24 GMT 53.393463 -2.425781 34,000 288 451 64
2019-08-09 14:24:21 GMT 53.391769 -2.416757 33,975 288 451 0
2019-08-09 14:24:18 GMT 53.388748 -2.400434 33,975 288 451 64
2019-08-09 14:24:15 GMT 53.387642 -2.394454 33,975 288 451 0
2019-08-09 14:24:12 GMT 53.386433 -2.387830 33,975 288 451 -64
2019-08-09 14:24:09 GMT 53.383778 -2.373532 33,975 288 451 -128
2019-08-09 14:24:06 GMT 53.382523 -2.366827 34,000 288 451 -192
2019-08-09 14:24:03 GMT 53.380096 -2.353821 34,000 288 451 -128
2019-08-09 14:24:00 GMT 53.377167 -2.338230 34,000 288 451 0
2019-08-09 14:23:54 GMT 53.375015 -2.326590 34,000 288 451 0
2019-08-09 14:23:51 GMT 53.373367 -2.317958 34,000 288 450 64
2019-08-09 14:23:48 GMT 53.370743 -2.303978 34,000 288 452 0
2019-08-09 14:23:45 GMT 53.369068 -2.295335 34,000 288 451 -64
2019-08-09 14:23:42 GMT 53.367279 -2.285706 34,000 288 451 -64
2019-08-09 14:23:39 GMT 53.363205 -2.264125 34,000 288 451 -128
2019-08-09 14:23:36 GMT 53.363205 -2.264125 34,000 288 451 -128
2019-08-09 14:23:33 GMT 53.359909 -2.246469 34,000 288 451 -128
2019-08-09 14:23:30 GMT 53.358124 -2.236895 34,000 288 451 128
2019-08-09 14:23:27 GMT 53.358124 -2.236895 34,000 288 451 0
2019-08-09 14:23:24 GMT 53.356033 -2.225539 34,000 288 451 64
2019-08-09 14:23:21 GMT 53.354324 -2.216256 34,000 288 451 128
2019-08-09 14:23:18 GMT 53.352680 -2.207606 34,000 288 450 64
2019-08-09 14:23:15 GMT 53.348602 -2.185730 34,000 288 450 0
2019-08-09 14:23:12 GMT 53.348602 -2.185730 34,000 288 450 0
2019-08-09 14:23:09 GMT 53.346817 -2.176424 34,000 288 450 0
2019-08-09 14:23:06 GMT 53.344666 -2.164856 34,000 288 450 0
2019-08-09 14:23:03 GMT 53.341183 -2.146292 34,000 288 450 0
2019-08-09 14:23:00 GMT 53.341183 -2.146292 34,000 288 450 0
2019-08-09 14:22:57 GMT 53.339172 -2.135664 34,000 288 450 0
2019-08-09 14:22:54 GMT 53.337891 -2.128993 34,000 288 450 0
2019-08-09 14:22:51 GMT 53.335373 -2.115731 34,000 288 450 0
2019-08-09 14:22:48 GMT 53.333450 -2.105451 34,000 288 451 -64
2019-08-09 14:22:45 GMT 53.331688 -2.096208 34,000 288 450 64
2019-08-09 14:22:42 GMT 53.329685 -2.085625 34,000 288 450 0
2019-08-09 14:22:39 GMT 53.328094 -2.077279 34,000 288 450 0
2019-08-09 14:22:36 GMT 53.325851 -2.065351 33,975 288 450 0
2019-08-09 14:22:33 GMT 53.324379 -2.057755 33,975 288 450 0
2019-08-09 14:22:30 GMT 53.322189 -2.046123 33,975 288 450 -64
2019-08-09 14:22:27 GMT 53.320374 -2.036510 33,975 288 450 -64
2019-08-09 14:22:24 GMT 53.317905 -2.023262 33,975 288 450 -64
2019-08-09 14:22:21 GMT 53.316326 -2.015022 33,975 288 450 -64
2019-08-09 14:22:18 GMT 53.315323 -2.009713 33,975 288 450 -64
2019-08-09 14:22:15 GMT 53.311390 -1.988929 33,975 288 450 -64
2019-08-09 14:22:09 GMT 53.308643 -1.974712 33,975 288 449 0
2019-08-09 14:22:06 GMT 53.306969 -1.965826 33,975 288 449 64
2019-08-09 14:22:03 GMT 53.303513 -1.948033 33,975 288 448 -128
2019-08-09 14:22:00 GMT 53.301544 -1.937753 33,975 288 449 0
2019-08-09 14:21:57 GMT 53.299164 -1.925276 33,975 288 449 -128
2019-08-09 14:21:53 GMT 53.299164 -1.925276 33,975 288 449 -128
2019-08-09 14:21:50 GMT 53.294724 -1.902170 34,000 288 448 0
2019-08-09 14:21:47 GMT 53.292538 -1.890699 34,000 288 448 -128
2019-08-09 14:21:43 GMT 53.292538 -1.890699 34,000 288 448 -128
2019-08-09 14:21:40 GMT 53.290970 -1.882429 34,000 288 448 -128
2019-08-09 14:21:37 GMT 53.289230 -1.873250 34,000 288 448 0
2019-08-09 14:21:34 GMT 53.287308 -1.863360 34,000 288 448 0
2019-08-09 14:21:31 GMT 53.285320 -1.852893 34,000 288 448 64
2019-08-09 14:21:28 GMT 53.283367 -1.842714 34,000 288 448 64
2019-08-09 14:21:25 GMT 53.281494 -1.832833 34,000 288 448 64
2019-08-09 14:21:22 GMT 53.279892 -1.824594 34,000 288 448 64
2019-08-09 14:21:19 GMT 53.277374 -1.811489 34,000 288 448 64
2019-08-09 14:21:16 GMT 53.275497 -1.801596 33,975 288 448 -64
2019-08-09 14:21:13 GMT 53.274216 -1.795009 33,975 288 449 64
2019-08-09 14:21:10 GMT 53.271423 -1.780256 34,000 288 447 64
2019-08-09 14:21:04 GMT 53.266434 -1.753889 33,975 288 449 64
2019-08-09 14:21:01 GMT 53.266434 -1.753889 33,975 288 449 128
2019-08-09 14:20:58 GMT 53.264191 -1.742039 33,975 288 449 0
2019-08-09 14:20:55 GMT 53.262772 -1.734820 33,975 288 449 -64
2019-08-09 14:20:52 GMT 53.260647 -1.723642 33,975 288 448 0
2019-08-09 14:20:49 GMT 53.256737 -1.703608 33,975 288 448 0
2019-08-09 14:20:46 GMT 53.254623 -1.692758 33,975 288 448 0
2019-08-09 14:20:43 GMT 53.254623 -1.692758 33,975 288 448 0
2019-08-09 14:20:40 GMT 53.251152 -1.674688 33,975 288 448 -64
2019-08-09 14:20:37 GMT 53.251152 -1.674688 34,000 288 447 0
2019-08-09 14:20:34 GMT 53.248947 -1.663173 34,000 288 447 0
2019-08-09 14:20:31 GMT 53.247482 -1.655247 34,000 288 447 0
2019-08-09 14:20:28 GMT 53.245331 -1.643749 34,000 288 447 0
2019-08-09 14:20:25 GMT 53.244049 -1.636806 34,000 288 448 -64
2019-08-09 14:20:22 GMT 53.242168 -1.626946 34,000 288 448 0
2019-08-09 14:20:19 GMT 53.239243 -1.611537 33,975 288 448 64
2019-08-09 14:20:16 GMT 53.238026 -1.605296 34,000 289 446 -192
2019-08-09 14:20:13 GMT 53.236534 -1.597703 33,975 289 449 192
2019-08-09 14:20:10 GMT 53.232559 -1.577715 33,975 289 446 -192
2019-08-09 14:20:04 GMT 53.230156 -1.565956 34,000 289 447 -640
2019-08-09 14:20:01 GMT 53.227875 -1.554889 34,050 289 447 -256
2019-08-09 14:19:58 GMT 53.226292 -1.547053 34,050 289 444 -256
2019-08-09 14:19:55 GMT 53.224091 -1.535967 34,075 289 446 -256
2019-08-09 14:19:52 GMT 53.222763 -1.529454 34,050 288 442 -320
2019-08-09 14:19:49 GMT 53.220245 -1.517133 34,050 289 446 -256
2019-08-09 14:19:46 GMT 53.218460 -1.508030 34,050 288 443 -256
2019-08-09 14:19:43 GMT 53.216263 -1.496652 34,050 288 443 -128
2019-08-09 14:19:40 GMT 53.212326 -1.476249 34,075 288 441 -256
2019-08-09 14:19:37 GMT 53.212326 -1.476249 34,050 288 440 768
2019-08-09 14:19:34 GMT 53.211090 -1.469735 34,050 287 440 704
2019-08-09 14:19:31 GMT 53.209023 -1.458435 34,025 288 440 832
2019-08-09 14:19:28 GMT 53.207474 -1.450038 34,000 288 440 704
2019-08-09 14:19:24 GMT 53.202988 -1.426810 33,950 289 442 192
2019-08-09 14:19:21 GMT 53.200970 -1.416429 33,925 289 443 0
2019-08-09 14:19:18 GMT 53.198593 -1.404473 33,950 289 444 0
2019-08-09 14:19:15 GMT 53.196964 -1.396314 33,950 289 445 -384
2019-08-09 14:19:12 GMT 53.195435 -1.388593 33,975 289 444 -256
2019-08-09 14:19:09 GMT 53.193939 -1.381046 33,975 289 445 -384
2019-08-09 14:19:03 GMT 53.191681 -1.369760 34,000 289 445 -512
2019-08-09 14:19:00 GMT 53.189423 -1.358346 34,025 288 443 -192
2019-08-09 14:18:57 GMT 53.187515 -1.348653 34,025 288 443 -64
2019-08-09 14:18:54 GMT 53.185776 -1.339547 34,025 289 443 0
2019-08-09 14:18:51 GMT 53.184025 -1.330800 34,000 289 443 0
2019-08-09 14:18:48 GMT 53.182159 -1.321420 34,000 289 435 0
2019-08-09 14:18:45 GMT 53.179825 -1.309806 34,000 289 443 0
2019-08-09 14:18:41 GMT 53.177601 -1.298487 34,000 289 443 0
2019-08-09 14:18:38 GMT 53.175270 -1.286854 34,000 289 443 0
2019-08-09 14:18:35 GMT 53.173965 -1.280457 34,000 289 439 128
2019-08-09 14:18:32 GMT 53.171360 -1.267548 34,000 289 442 -64
2019-08-09 14:18:29 GMT 53.169918 -1.260439 34,000 289 441 -128
2019-08-09 14:18:26 GMT 53.167191 -1.246634 34,000 289 440 -128
2019-08-09 14:18:23 GMT 53.164379 -1.232488 34,000 289 440 -128
2019-08-09 14:18:17 GMT 53.162201 -1.221209 34,000 289 439 128
2019-08-09 14:18:14 GMT 53.160652 -1.213505 34,000 289 440 64
2019-08-09 14:18:11 GMT 53.157722 -1.198802 34,000 289 439 64
2019-08-09 14:18:08 GMT 53.156342 -1.192017 34,000 289 439 64
2019-08-09 14:18:05 GMT 53.154228 -1.181515 34,000 289 439 64
2019-08-09 14:18:02 GMT 53.152039 -1.170593 34,000 289 439 0
2019-08-09 14:17:59 GMT 53.149933 -1.160392 34,000 289 438 -64
2019-08-09 14:17:56 GMT 53.148285 -1.152073 34,000 289 438 -64
2019-08-09 14:17:53 GMT 53.146866 -1.145089 33,975 289 437 -128
2019-08-09 14:17:50 GMT 53.144623 -1.133868 34,000 289 438 -64
2019-08-09 14:17:47 GMT 53.142963 -1.125614 34,000 289 437 -128
2019-08-09 14:17:44 GMT 53.140682 -1.114143 34,000 289 437 -64
2019-08-09 14:17:41 GMT 53.138626 -1.103969 34,000 289 437 -64
2019-08-09 14:17:38 GMT 53.136635 -1.094109 34,000 289 434 0
2019-08-09 14:17:35 GMT 53.134911 -1.085465 34,000 289 436 -64
2019-08-09 14:17:29 GMT 53.129059 -1.056571 34,000 289 435 0
2019-08-09 14:17:26 GMT 53.129059 -1.056571 34,000 289 435 0
2019-08-09 14:17:23 GMT 53.127277 -1.047740 34,000 289 435 0
2019-08-09 14:17:20 GMT 53.125534 -1.038836 34,000 289 435 -64
2019-08-09 14:17:17 GMT 53.123016 -1.026202 34,000 289 435 -64
2019-08-09 14:17:14 GMT 53.121735 -1.019871 34,000 289 435 0
2019-08-09 14:17:11 GMT 53.119595 -1.009046 34,000 289 435 0
2019-08-09 14:17:08 GMT 53.115738 -0.990104 34,000 288 431 -64
2019-08-09 14:17:02 GMT 53.113823 -0.980611 34,000 289 434 0
2019-08-09 14:16:59 GMT 53.112007 -0.971805 34,000 289 434 64
2019-08-09 14:16:56 GMT 53.109863 -0.961061 34,000 289 434 64
2019-08-09 14:16:53 GMT 53.107956 -0.951573 33,975 289 434 0
2019-08-09 14:16:50 GMT 53.106079 -0.942078 33,975 289 433 -64
2019-08-09 14:16:46 GMT 53.104000 -0.931657 33,975 289 433 0
2019-08-09 14:16:43 GMT 53.102463 -0.923740 34,000 289 433 -64
2019-08-09 14:16:40 GMT 53.100632 -0.914612 34,000 289 433 64
2019-08-09 14:16:37 GMT 53.098068 -0.901350 33,975 289 432 0
2019-08-09 14:16:31 GMT 53.094635 -0.884018 33,975 289 432 0
2019-08-09 14:16:28 GMT 53.092407 -0.872628 33,975 289 432 0
2019-08-09 14:16:25 GMT 53.090874 -0.864781 33,975 289 432 0
2019-08-09 14:16:22 GMT 53.089142 -0.855942 33,975 288 430 64
2019-08-09 14:16:19 GMT 53.086868 -0.844299 33,975 288 430 64
2019-08-09 14:16:16 GMT 53.085022 -0.834885 33,975 288 431 0
2019-08-09 14:16:13 GMT 53.082916 -0.824127 33,975 288 431 -64
2019-08-09 14:16:10 GMT 53.079838 -0.808437 33,975 288 431 -64
2019-08-09 14:16:07 GMT 53.079838 -0.808437 33,975 288 431 0
2019-08-09 14:16:01 GMT 53.074345 -0.779794 33,975 288 431 0
2019-08-09 14:15:58 GMT 53.074345 -0.779794 33,975 288 430 0
2019-08-09 14:15:55 GMT 53.072018 -0.767473 33,975 288 431 0
2019-08-09 14:15:51 GMT 53.070236 -0.758057 33,975 288 430 64
2019-08-09 14:15:48 GMT 53.068851 -0.750837 33,975 288 430 64
2019-08-09 14:15:45 GMT 53.066292 -0.737261 33,975 288 431 0
2019-08-09 14:15:42 GMT 53.064651 -0.728455 33,975 288 430 -64
2019-08-09 14:15:39 GMT 53.063171 -0.720546 33,975 288 431 -64
2019-08-09 14:15:36 GMT 53.061264 -0.710502 33,975 288 431 -64
2019-08-09 14:15:33 GMT 53.059479 -0.701370 34,000 289 431 -64
2019-08-09 14:15:30 GMT 53.056915 -0.688858 34,000 290 432 -128
2019-08-09 14:15:27 GMT 53.053864 -0.674404 34,000 291 435 -128
2019-08-09 14:15:24 GMT 53.051071 -0.662240 34,000 291 435 -64
2019-08-09 14:15:21 GMT 53.051071 -0.662240 34,000 292 436 -128
2019-08-09 14:15:18 GMT 53.048790 -0.652588 34,000 292 437 -64
2019-08-09 14:15:15 GMT 53.046936 -0.644836 34,000 293 436 -128
2019-08-09 14:15:12 GMT 53.045113 -0.637364 34,000 292 437 0
2019-08-09 14:15:09 GMT 53.042221 -0.625229 34,000 292 437 0
2019-08-09 14:15:06 GMT 53.038239 -0.608826 34,000 292 436 -64
2019-08-09 14:15:03 GMT 53.038239 -0.608826 34,000 292 436 -64
2019-08-09 14:15:00 GMT 53.035538 -0.597305 34,000 293 436 -128
2019-08-09 14:14:57 GMT 53.033066 -0.587387 34,000 292 436 0
2019-08-09 14:14:54 GMT 53.031517 -0.580549 34,000 292 436 0
2019-08-09 14:14:51 GMT 53.028957 -0.570347 34,000 292 436 64
2019-08-09 14:14:48 GMT 53.026676 -0.561009 34,000 292 436 0
2019-08-09 14:14:45 GMT 53.024349 -0.551435 34,000 293 436 -64
2019-08-09 14:14:42 GMT 53.022491 -0.543671 34,000 292 436 -64
2019-08-09 14:14:39 GMT 53.019150 -0.530014 34,000 293 435 0
2019-08-09 14:14:36 GMT 53.017319 -0.522614 34,000 293 436 -128
2019-08-09 14:14:33 GMT 53.015030 -0.513306 34,000 293 436 0
2019-08-09 14:14:30 GMT 53.013199 -0.505905 34,000 293 434 -64
2019-08-09 14:14:27 GMT 53.011047 -0.497284 34,000 293 436 64
2019-08-09 14:14:24 GMT 53.008484 -0.487061 34,000 293 435 -64
2019-08-09 14:14:21 GMT 53.002235 -0.462132 34,000 293 435 0
2019-08-09 14:14:17 GMT 53.002235 -0.462132 34,000 293 435 0
2019-08-09 14:14:14 GMT 53.000198 -0.454178 34,000 293 435 -64
2019-08-09 14:14:11 GMT 52.998367 -0.446777 34,000 293 435 -64
2019-08-09 14:14:08 GMT 52.996078 -0.437546 34,000 293 432 -64
2019-08-09 14:14:05 GMT 52.993206 -0.426191 34,000 293 434 0
2019-08-09 14:14:02 GMT 52.992142 -0.421906 34,000 293 434 0
2019-08-09 14:13:59 GMT 52.985458 -0.395203 34,000 293 434 0
2019-08-09 14:13:55 GMT 52.985458 -0.395203 34,000 293 434 -64
2019-08-09 14:13:52 GMT 52.983490 -0.387192 34,000 293 434 -64
2019-08-09 14:13:49 GMT 52.980927 -0.377121 34,000 293 433 -64
2019-08-09 14:13:46 GMT 52.979473 -0.371259 34,000 293 434 -64
2019-08-09 14:13:43 GMT 52.976448 -0.359331 34,000 293 433 -64
2019-08-09 14:13:40 GMT 52.971977 -0.341596 34,000 293 433 -128
2019-08-09 14:13:37 GMT 52.971977 -0.341596 34,000 293 433 -64
2019-08-09 14:13:34 GMT 52.970207 -0.334534 34,000 293 434 -64
2019-08-09 14:13:31 GMT 52.967377 -0.323563 34,000 293 434 -64
2019-08-09 14:13:28 GMT 52.964493 -0.312271 34,000 293 433 -128
2019-08-09 14:13:25 GMT 52.962574 -0.304635 34,000 293 433 -64
2019-08-09 14:13:22 GMT 52.959824 -0.293961 34,000 293 433 -64
2019-08-09 14:13:19 GMT 52.958477 -0.288783 34,000 293 433 -64
2019-08-09 14:13:15 GMT 52.955311 -0.276306 34,000 293 433 -64
2019-08-09 14:13:12 GMT 52.952408 -0.264969 34,000 293 433 -64
2019-08-09 14:13:09 GMT 52.950703 -0.258257 34,000 293 433 -64
2019-08-09 14:13:06 GMT 52.947510 -0.245819 34,000 293 432 -64
2019-08-09 14:13:03 GMT 52.943893 -0.231476 34,000 294 432 0
2019-08-09 14:12:57 GMT 52.938904 -0.212021 34,000 294 433 0
2019-08-09 14:12:54 GMT 52.938904 -0.212021 34,000 294 433 -64
2019-08-09 14:12:51 GMT 52.936249 -0.201645 34,000 294 433 -64
2019-08-09 14:12:48 GMT 52.933868 -0.192566 34,000 294 433 0
2019-08-09 14:12:45 GMT 52.931396 -0.183105 34,000 294 433 0
2019-08-09 14:12:42 GMT 52.929520 -0.175858 34,000 294 433 0
2019-08-09 14:12:39 GMT 52.926178 -0.163116 34,000 294 433 64
2019-08-09 14:12:36 GMT 52.924683 -0.157340 33,975 294 432 64
2019-08-09 14:12:33 GMT 52.922699 -0.149765 34,000 294 432 64
2019-08-09 14:12:30 GMT 52.920044 -0.139465 34,000 294 433 64
2019-08-09 14:12:27 GMT 52.917976 -0.131522 33,975 294 433 64
2019-08-09 14:12:24 GMT 52.914440 -0.117868 33,975 294 433 0
2019-08-09 14:12:21 GMT 52.911987 -0.108490 33,975 294 433 -64
2019-08-09 14:12:18 GMT 52.908691 -0.095749 33,975 294 433 -128
2019-08-09 14:12:12 GMT 52.905918 -0.085144 34,000 294 433 0
2019-08-09 14:12:09 GMT 52.901077 -0.066624 34,000 294 433 -64
2019-08-09 14:12:06 GMT 52.901077 -0.066624 34,000 294 433 64
2019-08-09 14:12:03 GMT 52.898895 -0.058441 34,000 294 433 64
2019-08-09 14:12:00 GMT 52.895782 -0.046616 34,000 294 433 -64
2019-08-09 14:11:57 GMT 52.891525 -0.030594 34,000 294 433 64
2019-08-09 14:11:51 GMT 52.888962 -0.020905 33,975 294 433 -64
2019-08-09 14:11:48 GMT 52.886322 -0.010908 33,975 294 433 -64
2019-08-09 14:11:45 GMT 52.884228 -0.003060 33,975 294 433 -64
2019-08-09 14:11:42 GMT 52.881203 0.008475 34,000 294 433 -64
2019-08-09 14:11:39 GMT 52.879059 0.016636 34,000 294 432 -64
2019-08-09 14:11:36 GMT 52.876453 0.026603 34,000 294 432 0
2019-08-09 14:11:33 GMT 52.875092 0.031738 34,000 294 432 -64
2019-08-09 14:11:30 GMT 52.872528 0.041733 34,000 294 432 -64
2019-08-09 14:11:27 GMT 52.867840 0.059640 34,000 294 432 -64
2019-08-09 14:11:24 GMT 52.864861 0.071097 34,000 294 432 -128
2019-08-09 14:11:21 GMT 52.864861 0.071097 34,000 294 432 -64
2019-08-09 14:11:18 GMT 52.862301 0.080750 34,000 294 432 -64
2019-08-09 14:11:15 GMT 52.860394 0.088048 34,000 294 432 -64
2019-08-09 14:11:12 GMT 52.857834 0.097733 34,000 294 432 -64
2019-08-09 14:11:09 GMT 52.855774 0.105591 34,000 294 432 0
2019-08-09 14:11:06 GMT 52.853363 0.114650 34,000 294 432 0
2019-08-09 14:11:03 GMT 52.850739 0.124588 34,000 294 432 64
2019-08-09 14:11:00 GMT 52.845402 0.144784 34,000 294 431 64
2019-08-09 14:10:57 GMT 52.845402 0.144784 33,975 294 431 64
2019-08-09 14:10:54 GMT 52.843506 0.152054 33,975 294 433 -128
2019-08-09 14:10:50 GMT 52.840393 0.163879 33,975 294 432 0
2019-08-09 14:10:47 GMT 52.838745 0.170212 33,975 294 432 0
2019-08-09 14:10:44 GMT 52.835358 0.182877 33,975 294 432 0
2019-08-09 14:10:41 GMT 52.830132 0.202541 33,975 294 432 -64
2019-08-09 14:10:38 GMT 52.830132 0.202541 33,975 294 432 -128
2019-08-09 14:10:32 GMT 52.826111 0.217590 34,000 294 433 -128
2019-08-09 14:10:29 GMT 52.823292 0.228202 34,000 294 433 0
2019-08-09 14:10:25 GMT 52.817749 0.249076 34,000 294 433 0
2019-08-09 14:10:19 GMT 52.813568 0.264740 34,000 294 433 0
2019-08-09 14:10:13 GMT 52.808853 0.282288 34,000 294 434 -128
2019-08-09 14:10:07 GMT 52.804764 0.297416 34,000 295 434 64
2019-08-09 14:10:03 GMT 52.802765 0.304947 34,000 295 434 -192
2019-08-09 14:10:00 GMT 52.800385 0.313721 34,000 295 434 -128
2019-08-09 14:09:57 GMT 52.798325 0.321274 34,025 295 434 -64
2019-08-09 14:09:54 GMT 52.792557 0.342407 34,000 295 434 0
2019-08-09 14:09:51 GMT 52.790005 0.351719 34,000 295 434 64
2019-08-09 14:09:48 GMT 52.790005 0.351719 34,000 295 434 64
2019-08-09 14:09:44 GMT 52.786514 0.364380 34,000 295 434 -128
2019-08-09 14:09:41 GMT 52.784420 0.371966 34,000 295 434 0
2019-08-09 14:09:38 GMT 52.781891 0.381241 34,000 295 434 0
2019-08-09 14:09:35 GMT 52.777130 0.398483 34,000 295 434 0
2019-08-09 14:09:29 GMT 52.774643 0.407514 34,000 295 434 0
2019-08-09 14:09:26 GMT 52.771664 0.418344 34,000 295 434 -64
2019-08-09 14:09:23 GMT 52.769661 0.425563 34,000 295 434 -128
2019-08-09 14:09:20 GMT 52.766357 0.437648 34,000 295 434 -128
2019-08-09 14:09:17 GMT 52.764038 0.446091 34,000 295 434 -64
2019-08-09 14:09:14 GMT 52.761749 0.454520 34,000 295 434 -64
2019-08-09 14:09:11 GMT 52.759232 0.463562 34,000 295 435 64
2019-08-09 14:09:08 GMT 52.757080 0.471344 34,000 295 434 -64
2019-08-09 14:09:05 GMT 52.754517 0.480728 34,000 295 435 64
2019-08-09 14:09:02 GMT 52.751221 0.492401 34,000 295 435 64
2019-08-09 14:08:58 GMT 52.748337 0.502930 34,000 295 434 0
2019-08-09 14:08:55 GMT 52.746231 0.510483 33,975 295 434 -64
2019-08-09 14:08:52 GMT 52.740784 0.530396 34,000 295 434 -64
2019-08-09 14:08:49 GMT 52.740784 0.530396 33,975 295 434 -64
2019-08-09 14:08:46 GMT 52.738358 0.539093 33,975 295 434 -64
2019-08-09 14:08:43 GMT 52.735519 0.549316 34,000 295 434 0
2019-08-09 14:08:40 GMT 52.732933 0.558655 34,000 295 434 0
2019-08-09 14:08:37 GMT 52.730896 0.566177 34,000 295 434 -64
2019-08-09 14:08:34 GMT 52.726227 0.582982 34,000 295 434 -256
2019-08-09 14:08:31 GMT 52.723156 0.594046 34,000 295 434 -192
2019-08-09 14:08:28 GMT 52.723156 0.594046 34,000 295 433 0
2019-08-09 14:08:25 GMT 52.721016 0.601894 34,000 295 433 0
2019-08-09 14:08:21 GMT 52.717712 0.613861 34,000 295 433 -64
2019-08-09 14:08:18 GMT 52.715012 0.623779 34,000 295 432 -64
2019-08-09 14:08:14 GMT 52.712631 0.632782 34,000 295 432 -64
2019-08-09 14:08:11 GMT 52.708923 0.645981 34,000 295 432 -128
2019-08-09 14:08:08 GMT 52.707321 0.651932 34,000 295 432 0
2019-08-09 14:08:05 GMT 52.704849 0.660934 34,000 295 432 -64
2019-08-09 14:08:02 GMT 52.702625 0.669067 34,000 295 432 0
2019-08-09 14:07:59 GMT 52.699402 0.680695 34,000 295 432 0
2019-08-09 14:07:55 GMT 52.696297 0.692060 34,000 295 432 0
2019-08-09 14:07:52 GMT 52.694138 0.699844 34,000 295 432 0
2019-08-09 14:07:48 GMT 52.690979 0.711517 34,000 295 432 0
2019-08-09 14:07:45 GMT 52.688553 0.720215 34,000 295 432 0
2019-08-09 14:07:42 GMT 52.686035 0.729523 34,000 295 432 0
2019-08-09 14:07:39 GMT 52.682556 0.742111 34,000 295 432 0
2019-08-09 14:07:36 GMT 52.680283 0.750445 34,000 295 432 -64
2019-08-09 14:07:33 GMT 52.678654 0.756487 34,000 295 432 -64
2019-08-09 14:07:30 GMT 52.676605 0.763931 34,000 295 432 -64
2019-08-09 14:07:27 GMT 52.673576 0.775007 34,000 295 431 -64
2019-08-09 14:07:24 GMT 52.671204 0.783718 34,000 295 432 -64
2019-08-09 14:07:21 GMT 52.669388 0.790309 34,000 295 432 -64
2019-08-09 14:07:18 GMT 52.666031 0.802536 34,000 295 431 0
2019-08-09 14:07:15 GMT 52.664455 0.808201 34,000 295 432 -64
2019-08-09 14:07:12 GMT 52.661407 0.819321 34,000 177 364 0
2019-08-09 14:07:09 GMT 52.658340 0.830383 34,000 295 432 -64
2019-08-09 14:07:06 GMT 52.656216 0.838100 34,000 295 432 -64
2019-08-09 14:07:03 GMT 52.653515 0.847988 34,000 295 432 0
2019-08-09 14:07:00 GMT 52.651791 0.854265 34,000 295 431 0
2019-08-09 14:06:57 GMT 52.649464 0.862662 34,000 295 431 64
2019-08-09 14:06:54 GMT 52.645645 0.876709 34,000 295 431 0
2019-08-09 14:06:51 GMT 52.644016 0.882673 34,000 295 431 -128
2019-08-09 14:06:48 GMT 52.638657 0.902405 34,000 295 431 -128
2019-08-09 14:06:44 GMT 52.638657 0.902405 34,000 295 431 -128
2019-08-09 14:06:41 GMT 52.635818 0.912857 34,000 295 431 -128
2019-08-09 14:06:38 GMT 52.630470 0.932582 34,025 295 431 -128
2019-08-09 14:06:35 GMT 52.630470 0.932582 34,025 295 431 0
2019-08-09 14:06:32 GMT 52.628330 0.940351 33,975 295 431 0
2019-08-09 14:06:29 GMT 52.626328 0.947806 34,025 285 415 0
2019-08-09 14:06:26 GMT 52.623768 0.957145 34,000 295 431 128
2019-08-09 14:06:23 GMT 52.621353 0.966110 34,000 294 431 64
2019-08-09 14:06:20 GMT 52.618462 0.976842 34,000 294 431 0
2019-08-09 14:06:17 GMT 52.616596 0.983747 34,000 294 431 0
2019-08-09 14:06:13 GMT 52.613342 0.996017 33,975 294 430 -64
2019-08-09 14:06:10 GMT 52.610870 1.005325 33,975 294 430 0
2019-08-09 14:06:07 GMT 52.608856 1.012802 33,975 294 430 0
2019-08-09 14:06:03 GMT 52.605286 1.026280 34,000 294 430 0
2019-08-09 14:06:00 GMT 52.602905 1.035233 34,000 294 430 -64
2019-08-09 14:05:57 GMT 52.601234 1.041582 34,000 294 430 -64
2019-08-09 14:05:54 GMT 52.597370 1.056257 34,000 294 430 -64
2019-08-09 14:05:51 GMT 52.596222 1.060715 34,000 294 430 -64
2019-08-09 14:05:48 GMT 52.593292 1.071854 34,000 294 430 -64
2019-08-09 14:05:45 GMT 52.591087 1.080191 34,000 294 430 -64
2019-08-09 14:05:42 GMT 52.588577 1.089783 34,000 294 430 -64
2019-08-09 14:05:39 GMT 52.587158 1.095200 34,000 294 430 -64
2019-08-09 14:05:36 GMT 52.580940 1.118801 34,000 294 430 -64
2019-08-09 14:05:32 GMT 52.580940 1.118801 34,000 294 430 -128
2019-08-09 14:05:29 GMT 52.578098 1.129551 34,000 294 430 -64
2019-08-09 14:05:25 GMT 52.575806 1.138229 34,000 294 430 -128
2019-08-09 14:05:22 GMT 52.570419 1.158587 34,000 295 431 128
2019-08-09 14:05:19 GMT 52.570419 1.158587 34,000 294 430 -128
2019-08-09 14:05:13 GMT 52.565994 1.175302 34,000 295 431 192
2019-08-09 14:05:09 GMT 52.563015 1.186366 34,000 295 431 192
2019-08-09 14:05:06 GMT 52.558083 1.204572 34,000 294 431 128
2019-08-09 14:05:00 GMT 52.555428 1.214460 33,975 293 428 0
2019-08-09 14:04:57 GMT 52.552727 1.224897 33,975 292 426 0
2019-08-09 14:04:54 GMT 52.550308 1.235099 33,975 255 375 0
2019-08-09 14:04:51 GMT 52.548935 1.241455 33,975 287 418 -64
2019-08-09 14:04:48 GMT 52.546909 1.251814 33,975 285 415 0
2019-08-09 14:04:45 GMT 52.545959 1.256943 33,975 284 414 0
2019-08-09 14:04:42 GMT 52.543076 1.276779 33,975 280 408 -64
2019-08-09 14:04:36 GMT 52.540764 1.302586 34,000 274 398 -128
2019-08-09 14:04:32 GMT 52.540764 1.302586 34,000 276 401 -64
2019-08-09 14:04:29 GMT 52.540558 1.306839 33,975 265 386 0
2019-08-09 14:04:26 GMT 52.540100 1.319199 34,000 272 396 -128
2019-08-09 14:04:21 GMT 52.540146 1.334076 34,000 267 389 -64
2019-08-09 14:04:18 GMT 52.540344 1.341195 34,000 267 389 -64
2019-08-09 14:04:15 GMT 52.540810 1.350220 34,000 264 386 0
2019-08-09 14:04:12 GMT 52.541428 1.358871 34,000 263 384 0
2019-08-09 14:04:09 GMT 52.542255 1.367484 34,000 255 375 0
2019-08-09 14:04:06 GMT 52.543121 1.374817 34,000 258 379 0
2019-08-09 14:04:03 GMT 52.544266 1.382599 34,000 256 375 0
2019-08-09 14:04:00 GMT 52.546005 1.392975 34,000 247 366 0
2019-08-09 14:03:57 GMT 52.547836 1.402130 34,000 249 368 0
2019-08-09 14:03:53 GMT 52.552185 1.419678 34,000 245 365 0
2019-08-09 14:03:47 GMT 52.554291 1.426849 34,000 222 352 0
2019-08-09 14:03:44 GMT 52.556358 1.433245 34,000 188 357 64
2019-08-09 14:03:40 GMT 52.560150 1.443787 34,000 237 359 0
2019-08-09 14:03:36 GMT 52.563015 1.450823 34,000 235 358 0
2019-08-09 14:03:33 GMT 52.565460 1.456299 34,000 233 357 0
2019-08-09 14:03:30 GMT 52.569031 1.463776 34,000 228 355 0
2019-08-09 14:03:27 GMT 52.573105 1.471481 34,000 226 354 0
2019-08-09 14:03:24 GMT 52.575493 1.475542 34,000 225 354 0
2019-08-09 14:03:21 GMT 52.580147 1.482997 34,000 220 351 0
2019-08-09 14:03:18 GMT 52.583817 1.488266 34,000 215 351 0
2019-08-09 14:03:15 GMT 52.586975 1.492462 34,000 218 352 -64
2019-08-09 14:03:12 GMT 52.591003 1.497421 34,000 216 351 0
2019-08-09 14:03:09 GMT 52.595856 1.502838 34,000 210 351 0
2019-08-09 14:03:06 GMT 52.600113 1.507111 34,000 210 351 0
2019-08-09 14:03:00 GMT 52.608452 1.514308 34,000 205 351 0
2019-08-09 14:02:57 GMT 52.611694 1.516724 34,000 203 351 0
2019-08-09 14:02:54 GMT 52.616959 1.520233 34,000 201 352 0
2019-08-09 14:02:51 GMT 52.619980 1.522064 33,975 196 353 64
2019-08-09 14:02:48 GMT 52.629822 1.526947 33,975 194 354 64
2019-08-09 14:02:42 GMT 52.634766 1.528702 33,975 188 357 64
2019-08-09 14:02:39 GMT 52.640293 1.530239 33,975 186 357 0
2019-08-09 14:02:36 GMT 52.644836 1.531219 33,975 177 363 0
2019-08-09 14:02:33 GMT 52.649643 1.531830 33,975 181 361 -64
2019-08-09 14:02:30 GMT 52.654449 1.532135 33,975 179 362 -64
2019-08-09 14:02:27 GMT 52.659119 1.532059 33,975 177 363 -64
2019-08-09 14:02:24 GMT 52.663803 1.531808 34,000 177 363 0
2019-08-09 14:02:21 GMT 52.671890 1.531143 34,000 177 363 0
2019-08-09 14:02:18 GMT 52.675232 1.530838 34,000 177 364 0
2019-08-09 14:02:15 GMT 52.679398 1.530552 34,000 177 363 0
2019-08-09 14:02:12 GMT 52.684616 1.530075 34,000 176 364 -64
2019-08-09 14:02:09 GMT 52.689499 1.529689 34,000 177 364 0
2019-08-09 14:02:06 GMT 52.695007 1.529160 34,000 177 364 0
2019-08-09 14:02:03 GMT 52.699539 1.528778 34,000 177 364 0
2019-08-09 14:02:00 GMT 52.704906 1.528355 34,000 177 364 0
2019-08-09 14:01:57 GMT 52.711807 1.527786 34,000 176 364 0
2019-08-09 14:01:53 GMT 52.715988 1.527414 34,000 176 367 0
2019-08-09 14:01:50 GMT 52.721714 1.526864 34,000 176 364 64
2019-08-09 14:01:47 GMT 52.726414 1.526472 34,000 176 364 0
2019-08-09 14:01:44 GMT 52.733303 1.525844 34,000 176 364 0
2019-08-09 14:01:41 GMT 52.736656 1.525530 34,000 176 364 0
2019-08-09 14:01:38 GMT 52.742195 1.525059 34,000 176 364 0
2019-08-09 14:01:35 GMT 52.746552 1.524658 34,000 176 364 0
2019-08-09 14:01:32 GMT 52.752579 1.524118 34,000 176 364 0
2019-08-09 14:01:29 GMT 52.758453 1.523590 34,000 176 364 0
2019-08-09 14:01:26 GMT 52.761795 1.523285 34,000 176 364 0
2019-08-09 14:01:23 GMT 52.767521 1.522784 34,000 176 364 0
2019-08-09 14:01:20 GMT 52.773376 1.522217 34,000 176 363 64
2019-08-09 14:01:17 GMT 52.777576 1.521842 34,000 176 364 0
2019-08-09 14:01:14 GMT 52.783627 1.521293 34,000 176 364 0
2019-08-09 14:01:11 GMT 52.786469 1.521072 34,000 176 363 0
2019-08-09 14:01:08 GMT 52.791321 1.520615 34,000 176 363 0
2019-08-09 14:01:05 GMT 52.796707 1.520115 34,000 176 363 64
2019-08-09 14:01:02 GMT 52.803413 1.519488 34,000 177 366 0
2019-08-09 14:00:59 GMT 52.806904 1.519174 34,000 176 363 64
2019-08-09 14:00:56 GMT 52.812286 1.518707 34,000 177 364 64
2019-08-09 14:00:53 GMT 52.819336 1.518021 34,000 176 363 0
2019-08-09 14:00:50 GMT 52.821991 1.517792 34,000 176 363 0
2019-08-09 14:00:47 GMT 52.833069 1.516800 34,000 176 363 64
2019-08-09 14:00:44 GMT 52.833069 1.516800 34,000 176 363 0
2019-08-09 14:00:38 GMT 52.841118 1.516035 34,000 177 364 64
2019-08-09 14:00:35 GMT 52.848846 1.515329 34,000 176 363 64
2019-08-09 14:00:32 GMT 52.852524 1.515045 34,000 176 363 64
2019-08-09 14:00:29 GMT 52.856873 1.514664 34,000 176 364 64
2019-08-09 14:00:26 GMT 52.863091 1.514073 34,000 176 364 64
2019-08-09 14:00:23 GMT 52.868774 1.513596 34,000 176 364 64
2019-08-09 14:00:20 GMT 52.872822 1.513210 34,000 177 364 64
2019-08-09 14:00:17 GMT 52.877708 1.512817 34,000 177 364 64
2019-08-09 14:00:13 GMT 52.886398 1.511993 34,000 176 364 0
2019-08-09 14:00:10 GMT 52.888275 1.511841 34,000 176 364 0
2019-08-09 14:00:07 GMT 52.894318 1.511307 34,000 176 364 0
2019-08-09 14:00:04 GMT 52.898846 1.510934 34,000 176 364 0
2019-08-09 14:00:01 GMT 52.904388 1.510391 34,000 176 364 0
2019-08-09 13:59:57 GMT 52.912296 1.509678 34,000 176 364 0
2019-08-09 13:59:54 GMT 52.916336 1.509323 34,000 176 364 0
2019-08-09 13:59:51 GMT 52.922241 1.508789 34,000 176 364 0
2019-08-09 13:59:48 GMT 52.926590 1.508344 34,000 176 364 0
2019-08-09 13:59:45 GMT 52.931625 1.507950 34,000 176 364 0
2019-08-09 13:59:41 GMT 52.938538 1.507263 34,000 176 364 0
2019-08-09 13:59:38 GMT 52.944744 1.506696 34,000 176 364 0
2019-08-09 13:59:35 GMT 52.950283 1.506226 34,000 176 364 0
2019-08-09 13:59:31 GMT 52.955704 1.505661 34,000 176 364 64
2019-08-09 13:59:28 GMT 52.959732 1.505356 34,000 176 364 64
2019-08-09 13:59:25 GMT 52.965927 1.504735 34,000 176 364 64
2019-08-09 13:59:22 GMT 52.971977 1.504185 34,000 176 364 64
2019-08-09 13:59:18 GMT 52.982574 1.503220 34,000 176 365 64
2019-08-09 13:59:15 GMT 52.987152 1.502773 33,975 177 365 64
2019-08-09 13:59:12 GMT 52.987152 1.502773 33,975 176 365 0
2019-08-09 13:59:08 GMT 52.994385 1.502151 33,975 177 365 64
2019-08-09 13:59:05 GMT 52.998745 1.501831 33,975 177 365 0
2019-08-09 13:59:02 GMT 53.005325 1.501236 34,000 177 365 0
2019-08-09 13:58:57 GMT 53.013222 1.500575 33,975 176 365 -64
2019-08-09 13:58:54 GMT 53.021507 1.499791 34,000 176 365 -64
2019-08-09 13:58:48 GMT 53.028397 1.499100 34,000 176 365 -64
2019-08-09 13:58:45 GMT 53.033295 1.498642 34,000 176 365 -64
2019-08-09 13:58:42 GMT 53.036316 1.498413 34,000 176 365 0
2019-08-09 13:58:39 GMT 53.044739 1.497574 34,000 176 365 0
2019-08-09 13:58:34 GMT 53.052837 1.496887 34,000 177 365 0
2019-08-09 13:58:31 GMT 53.055222 1.496658 34,000 176 365 64
2019-08-09 13:58:28 GMT 53.061264 1.496124 34,000 176 365 64
2019-08-09 13:58:24 GMT 53.067169 1.495590 34,000 177 366 64
2019-08-09 13:58:21 GMT 53.074265 1.494980 34,000 177 366 64
2019-08-09 13:58:18 GMT 53.077652 1.494675 34,000 176 366 0
2019-08-09 13:58:14 GMT 53.084885 1.493988 34,000 176 366 64
2019-08-09 13:58:11 GMT 53.090126 1.493591 34,000 177 366 64
2019-08-09 13:58:08 GMT 53.094864 1.493149 34,000 176 366 0
2019-08-09 13:58:03 GMT 53.103104 1.492414 33,975 177 366 64
2019-08-09 13:58:00 GMT 53.109009 1.491865 34,000 177 366 0
2019-08-09 13:57:54 GMT 53.118164 1.491080 34,000 176 366 -64
2019-08-09 13:57:51 GMT 53.123383 1.490609 34,000 176 366 0
2019-08-09 13:57:48 GMT 53.127777 1.490217 34,000 177 366 0
2019-08-09 13:57:45 GMT 53.133327 1.489778 34,000 176 366 0
2019-08-09 13:57:42 GMT 53.137894 1.489354 34,000 177 366 0
2019-08-09 13:57:39 GMT 53.145523 1.488647 34,000 177 366 -64
2019-08-09 13:57:35 GMT 53.152451 1.488098 34,000 176 366 -64
2019-08-09 13:57:32 GMT 53.155624 1.487759 34,000 176 366 0
2019-08-09 13:57:29 GMT 53.160187 1.487392 34,000 176 366 0
2019-08-09 13:57:26 GMT 53.166145 1.486870 34,000 176 366 0
2019-08-09 13:57:23 GMT 53.170708 1.486386 34,000 176 366 0
2019-08-09 13:57:20 GMT 53.176117 1.485901 34,000 176 366 0
2019-08-09 13:57:17 GMT 53.181183 1.485416 34,000 176 366 0
2019-08-09 13:57:14 GMT 53.186417 1.484959 34,000 176 366 0
2019-08-09 13:57:11 GMT 53.192680 1.484366 34,000 176 366 64
2019-08-09 13:57:08 GMT 53.195892 1.484096 34,000 176 366 64
2019-08-09 13:57:05 GMT 53.201294 1.483639 34,000 176 366 64
2019-08-09 13:57:02 GMT 53.206375 1.483154 34,000 176 366 64
2019-08-09 13:56:59 GMT 53.211594 1.482683 34,000 176 366 64
2019-08-09 13:56:56 GMT 53.215816 1.482266 34,000 176 366 64
2019-08-09 13:56:53 GMT 53.220886 1.481820 34,000 176 367 64
2019-08-09 13:56:50 GMT 53.226974 1.481271 34,000 176 371 0
2019-08-09 13:56:47 GMT 53.232063 1.480812 34,000 176 367 64
2019-08-09 13:56:43 GMT 53.240166 1.480085 34,000 176 367 64
2019-08-09 13:56:40 GMT 53.242538 1.479858 34,000 176 367 64
2019-08-09 13:56:37 GMT 53.247803 1.479388 34,000 176 367 64
2019-08-09 13:56:34 GMT 53.253712 1.478792 34,000 176 367 64
2019-08-09 13:56:31 GMT 53.259624 1.478227 33,975 176 367 64
2019-08-09 13:56:27 GMT 53.265396 1.477742 33,975 176 367 64
2019-08-09 13:56:24 GMT 53.271309 1.477176 33,975 176 368 0
2019-08-09 13:56:19 GMT 53.283691 1.476126 34,000 177 367 0
2019-08-09 13:56:12 GMT 53.292675 1.475399 34,000 177 368 0
2019-08-09 13:56:09 GMT 53.295410 1.475150 34,000 176 368 0
2019-08-09 13:56:06 GMT 53.301498 1.474601 34,000 176 368 0
2019-08-09 13:56:03 GMT 53.306442 1.474130 34,000 176 371 0
2019-08-09 13:55:59 GMT 53.318977 1.472976 34,000 176 368 0
2019-08-09 13:55:56 GMT 53.318977 1.472976 34,000 176 368 0
2019-08-09 13:55:53 GMT 53.323215 1.472572 34,000 176 368 0
2019-08-09 13:55:49 GMT 53.330521 1.471854 34,000 176 368 0
2019-08-09 13:55:46 GMT 53.335098 1.471462 34,000 176 368 0
2019-08-09 13:55:43 GMT 53.340206 1.471037 34,000 176 368 0
2019-08-09 13:55:39 GMT 53.346130 1.470520 34,000 176 368 64
2019-08-09 13:55:36 GMT 53.352776 1.469906 34,000 176 369 64
2019-08-09 13:55:33 GMT 53.357529 1.469500 34,000 176 371 -64
2019-08-09 13:55:30 GMT 53.361805 1.469098 34,000 176 371 -64
2019-08-09 13:55:27 GMT 53.367905 1.468533 34,000 176 369 0
2019-08-09 13:55:23 GMT 53.378983 1.467483 34,000 176 369 0
2019-08-09 13:55:20 GMT 53.385315 1.466917 34,000 176 369 -64
2019-08-09 13:55:17 GMT 53.385315 1.466917 34,000 176 369 0
2019-08-09 13:55:13 GMT 53.390762 1.466361 34,000 176 369 0
2019-08-09 13:55:10 GMT 53.396210 1.465890 34,000 176 369 0
2019-08-09 13:55:07 GMT 53.401981 1.465302 34,000 176 370 0
2019-08-09 13:55:04 GMT 53.406784 1.464870 34,000 176 370 0
2019-08-09 13:55:01 GMT 53.410858 1.464556 34,000 176 370 0
2019-08-09 13:54:58 GMT 53.421982 1.463536 34,000 176 370 0
2019-08-09 13:54:55 GMT 53.427246 1.463065 34,000 176 370 0
2019-08-09 13:54:52 GMT 53.427246 1.463065 34,000 176 370 0
2019-08-09 13:54:49 GMT 53.432556 1.462594 34,000 176 371 0
2019-08-09 13:54:46 GMT 53.439011 1.461966 34,000 176 370 0
2019-08-09 13:54:43 GMT 53.442619 1.461586 34,000 176 371 0
2019-08-09 13:54:40 GMT 53.449448 1.460868 34,000 176 371 0
2019-08-09 13:54:34 GMT 53.457657 1.460051 34,000 176 371 0
2019-08-09 13:54:31 GMT 53.464314 1.459404 34,000 176 371 0
2019-08-09 13:54:28 GMT 53.469131 1.458906 34,000 176 371 0
2019-08-09 13:54:25 GMT 53.474579 1.458357 34,000 176 371 0
2019-08-09 13:54:22 GMT 53.482983 1.457466 34,000 176 371 0
2019-08-09 13:54:19 GMT 53.482983 1.457466 34,000 176 371 0
2019-08-09 13:54:16 GMT 53.487965 1.456981 34,000 176 371 0
2019-08-09 13:54:13 GMT 53.495636 1.456159 34,000 176 371 0
2019-08-09 13:54:10 GMT 53.504581 1.455204 34,000 176 371 0
2019-08-09 13:54:04 GMT 53.507980 1.454800 34,000 176 371 0
2019-08-09 13:54:01 GMT 53.518642 1.453669 34,000 176 371 0
2019-08-09 13:53:58 GMT 53.525112 1.453023 34,000 176 371 0
2019-08-09 13:53:55 GMT 53.525112 1.453023 34,000 177 371 0
2019-08-09 13:53:52 GMT 53.529602 1.452628 34,000 176 371 0
2019-08-09 13:53:49 GMT 53.534702 1.452134 34,000 176 371 0
2019-08-09 13:53:46 GMT 53.538986 1.451765 34,000 176 371 0
2019-08-09 13:53:43 GMT 53.549786 1.450842 34,000 176 371 64
2019-08-09 13:53:40 GMT 53.549786 1.450842 34,000 177 371 64
2019-08-09 13:53:37 GMT 53.554916 1.450431 34,000 177 371 64
2019-08-09 13:53:34 GMT 53.562607 1.449803 34,000 177 371 64
2019-08-09 13:53:31 GMT 53.565891 1.449549 34,000 176 371 64
2019-08-09 13:53:28 GMT 53.576504 1.448499 33,975 176 372 128
2019-08-09 13:53:22 GMT 53.582336 1.447841 34,000 189 366 -64
2019-08-09 13:53:19 GMT 53.587490 1.447287 33,975 177 372 64
2019-08-09 13:53:16 GMT 53.591774 1.446964 33,975 177 372 64
2019-08-09 13:53:11 GMT 53.600853 1.446883 33,975 182 369 64
2019-08-09 13:53:08 GMT 53.609138 1.447610 33,975 185 367 0
2019-08-09 13:53:02 GMT 53.620926 1.449960 34,000 193 364 -128
2019-08-09 13:52:59 GMT 53.620926 1.449960 34,000 192 364 -64
2019-08-09 13:52:55 GMT 53.626270 1.451488 34,000 232 367 0
2019-08-09 13:52:52 GMT 53.631020 1.453184 34,000 193 364 -128
2019-08-09 13:52:49 GMT 53.636719 1.455532 34,000 202 361 0
2019-08-09 13:52:46 GMT 53.641434 1.457729 34,000 198 362 -64
2019-08-09 13:52:43 GMT 53.647449 1.461020 34,000 204 361 0
2019-08-09 13:52:40 GMT 53.651081 1.463201 34,000 202 361 0
2019-08-09 13:52:37 GMT 53.655876 1.466432 34,000 205 361 0
2019-08-09 13:52:34 GMT 53.660297 1.469664 34,000 206 361 0
2019-08-09 13:52:31 GMT 53.665741 1.473973 34,000 210 361 0
2019-08-09 13:52:28 GMT 53.668819 1.476692 34,000 215 361 0
2019-08-09 13:52:24 GMT 53.675381 1.482912 34,000 214 361 0
2019-08-09 13:52:19 GMT 53.682678 1.490688 34,000 219 362 0
2019-08-09 13:52:16 GMT 53.685974 1.494533 34,000 218 362 0
2019-08-09 13:52:12 GMT 53.691055 1.500889 34,000 222 363 0
2019-08-09 13:52:09 GMT 53.694702 1.505854 34,000 220 362 0
2019-08-09 13:52:06 GMT 53.699158 1.512268 34,000 230 366 0
2019-08-09 13:52:03 GMT 53.703506 1.518938 34,000 224 364 0
2019-08-09 13:51:58 GMT 53.709412 1.529038 33,975 229 365 0
2019-08-09 13:51:55 GMT 53.711792 1.533456 34,000 230 366 0
2019-08-09 13:51:52 GMT 53.715649 1.540994 34,000 237 369 -64
2019-08-09 13:51:49 GMT 53.719093 1.548426 34,000 237 369 -64
2019-08-09 13:51:46 GMT 53.721954 1.554879 34,000 236 369 -64
2019-08-09 13:51:43 GMT 53.724930 1.562256 34,000 237 370 0
2019-08-09 13:51:40 GMT 53.727585 1.569318 34,000 243 373 0
2019-08-09 13:51:37 GMT 53.730408 1.577265 34,000 240 372 0
2019-08-09 13:51:34 GMT 53.732895 1.584935 34,000 247 377 0
2019-08-09 13:51:31 GMT 53.738022 1.603141 34,000 256 384 0
2019-08-09 13:51:27 GMT 53.738022 1.603141 34,000 249 379 0
2019-08-09 13:51:24 GMT 53.739944 1.610988 34,000 250 380 0
2019-08-09 13:51:21 GMT 53.742096 1.620719 34,000 250 380 0
2019-08-09 13:51:18 GMT 53.742966 1.625192 34,000 254 384 0
2019-08-09 13:51:15 GMT 53.745026 1.636649 34,000 256 385 -64
2019-08-09 13:51:12 GMT 53.748093 1.659563 34,000 270 402 0
2019-08-09 13:51:07 GMT 53.749260 1.671941 34,000 287 423 -64
2019-08-09 13:51:04 GMT 53.749260 1.671941 34,000 287 424 0
2019-08-09 13:50:57 GMT 53.750237 1.688098 34,000 266 397 0
2019-08-09 13:50:54 GMT 53.750610 1.697711 34,000 269 401 0
2019-08-09 13:50:51 GMT 53.750797 1.708293 34,000 270 401 0
2019-08-09 13:50:47 GMT 53.750610 1.723319 33,975 272 404 0
2019-08-09 13:50:44 GMT 53.750237 1.734063 33,975 276 409 -64
2019-08-09 13:50:41 GMT 53.749924 1.740077 33,975 277 412 -64
2019-08-09 13:50:38 GMT 53.749123 1.750300 34,000 279 413 -64
2019-08-09 13:50:35 GMT 53.748142 1.759509 34,000 283 419 -192
2019-08-09 13:50:31 GMT 53.746140 1.774454 34,000 286 422 0
2019-08-09 13:50:28 GMT 53.744385 1.785278 34,000 287 424 0
2019-08-09 13:50:25 GMT 53.743561 1.790065 34,000 287 424 0
2019-08-09 13:50:22 GMT 53.738159 1.820435 34,000 287 425 64
2019-08-09 13:50:16 GMT 53.738159 1.820435 34,000 287 424 0
2019-08-09 13:50:12 GMT 53.735641 1.834717 34,000 287 424 -64
2019-08-09 13:50:09 GMT 53.732666 1.851432 34,000 287 423 0
2019-08-09 13:50:06 GMT 53.732666 1.851432 34,000 287 423 0
2019-08-09 13:50:03 GMT 53.730640 1.863152 34,000 287 423 0
2019-08-09 13:49:59 GMT 53.726120 1.888707 33,975 287 423 -64
2019-08-09 13:49:55 GMT 53.726120 1.888707 33,975 287 423 0
2019-08-09 13:49:52 GMT 53.724380 1.898516 33,975 287 423 64
2019-08-09 13:49:49 GMT 53.723236 1.904794 33,975 287 423 -64
2019-08-09 13:49:46 GMT 53.721329 1.915579 34,000 287 422 -64
2019-08-09 13:49:43 GMT 53.719528 1.925668 33,975 287 423 0
2019-08-09 13:49:40 GMT 53.717697 1.936098 33,975 287 422 -64
2019-08-09 13:49:33 GMT 53.714348 1.955647 34,000 287 422 -64
2019-08-09 13:49:30 GMT 53.712765 1.964776 34,000 287 422 0
2019-08-09 13:49:27 GMT 53.711105 1.974243 34,000 287 422 -64
2019-08-09 13:49:24 GMT 53.709412 1.984052 34,000 287 422 0
2019-08-09 13:49:21 GMT 53.707993 1.992214 34,000 287 422 -128
2019-08-09 13:49:18 GMT 53.704571 2.011791 34,000 287 422 0
2019-08-09 13:49:12 GMT 53.702477 2.023746 34,000 287 422 0
2019-08-09 13:49:09 GMT 53.701492 2.029410 34,000 287 422 64
2019-08-09 13:49:05 GMT 53.699341 2.042045 34,000 287 422 -64
2019-08-09 13:49:02 GMT 53.697281 2.054051 34,000 286 418 128
2019-08-09 13:48:59 GMT 53.695816 2.062526 34,000 287 422 0
2019-08-09 13:48:56 GMT 53.693584 2.075447 34,000 286 422 -64
2019-08-09 13:48:48 GMT 53.690044 2.096288 34,000 286 422 -64
2019-08-09 13:48:45 GMT 53.688046 2.108325 34,000 286 422 0
2019-08-09 13:48:42 GMT 53.686569 2.116830 34,000 286 421 0
2019-08-09 13:48:39 GMT 53.685299 2.124400 34,000 286 421 -64
2019-08-09 13:48:36 GMT 53.683548 2.134801 34,000 286 422 -64
2019-08-09 13:48:33 GMT 53.681339 2.147666 34,000 286 421 -64
2019-08-09 13:48:28 GMT 53.677872 2.168152 34,000 286 421 -64
2019-08-09 13:48:22 GMT 53.674030 2.190803 34,000 286 421 -64
2019-08-09 13:48:18 GMT 53.674030 2.190803 34,000 286 421 -64
2019-08-09 13:48:15 GMT 53.672031 2.202840 34,000 286 421 -64
2019-08-09 13:48:12 GMT 53.671005 2.208801 34,025 286 418 64
2019-08-09 13:48:09 GMT 53.668991 2.220729 34,000 286 420 -64
2019-08-09 13:48:05 GMT 53.666958 2.232971 34,025 286 420 -64
2019-08-09 13:48:02 GMT 53.665001 2.244604 34,000 287 420 -64
2019-08-09 13:47:59 GMT 53.664257 2.249047 34,000 286 420 -64
2019-08-09 13:47:55 GMT 53.661743 2.263830 34,025 286 420 -128
2019-08-09 13:47:52 GMT 53.659786 2.275382 34,025 286 420 -64
2019-08-09 13:47:49 GMT 53.658783 2.281390 34,000 303 441 -64
2019-08-09 13:47:46 GMT 53.656860 2.292690 34,000 303 441 0
2019-08-09 13:47:43 GMT 53.655487 2.300851 34,000 286 419 0
2019-08-09 13:47:40 GMT 53.653969 2.310199 34,000 286 418 128
2019-08-09 13:47:37 GMT 53.651875 2.323043 34,000 285 417 128
2019-08-09 13:47:33 GMT 53.650177 2.333732 34,000 285 417 64
2019-08-09 13:47:29 GMT 53.648476 2.344450 33,975 303 441 0
2019-08-09 13:47:26 GMT 53.646011 2.359471 33,975 294 429 -128
2019-08-09 13:47:22 GMT 53.644703 2.366988 33,975 295 431 -128
2019-08-09 13:47:19 GMT 53.642212 2.379482 33,975 293 428 -64
2019-08-09 13:47:16 GMT 53.640888 2.385326 33,975 294 429 -128
2019-08-09 13:47:13 GMT 53.634880 2.407945 34,000 298 436 -128
2019-08-09 13:47:09 GMT 53.631763 2.417800 34,000 303 443 -64
2019-08-09 13:47:06 GMT 53.631763 2.417800 34,000 302 441 0
2019-08-09 13:47:03 GMT 53.629341 2.424909 34,000 302 441 64
2019-08-09 13:46:59 GMT 53.625687 2.435198 34,000 302 442 0
2019-08-09 13:46:56 GMT 53.620869 2.448336 33,975 303 443 -64
2019-08-09 13:46:53 GMT 53.618683 2.454110 34,000 303 443 -64
2019-08-09 13:46:50 GMT 53.615562 2.462634 34,000 303 442 -64
2019-08-09 13:46:47 GMT 53.612209 2.471601 34,000 303 442 -64
2019-08-09 13:46:44 GMT 53.608841 2.480634 34,000 303 442 -64
2019-08-09 13:46:41 GMT 53.605598 2.489373 34,000 303 441 0
2019-08-09 13:46:38 GMT 53.602436 2.497774 34,000 303 441 0
2019-08-09 13:46:35 GMT 53.599083 2.506822 34,000 303 442 -128
2019-08-09 13:46:32 GMT 53.596058 2.514981 34,000 303 442 -64
2019-08-09 13:46:27 GMT 53.590302 2.530308 34,000 303 442 -64
2019-08-09 13:46:24 GMT 53.585861 2.542285 34,025 303 441 0
2019-08-09 13:46:20 GMT 53.579903 2.558199 34,000 302 440 64
2019-08-09 13:46:17 GMT 53.575470 2.570095 34,000 303 441 0
2019-08-09 13:46:13 GMT 53.575470 2.570095 34,000 303 441 -64
2019-08-09 13:46:08 GMT 53.569931 2.584926 34,000 303 441 0
2019-08-09 13:46:05 GMT 53.563110 2.603132 34,000 303 440 0
2019-08-09 13:46:02 GMT 53.563110 2.603132 34,000 303 440 -192
2019-08-09 13:45:56 GMT 53.556839 2.619925 34,000 302 440 0
2019-08-09 13:45:52 GMT 53.547775 2.644252 34,000 303 440 -192
2019-08-09 13:45:49 GMT 53.547775 2.644252 34,000 303 441 0
2019-08-09 13:45:46 GMT 53.545212 2.651236 34,000 303 441 0
2019-08-09 13:45:43 GMT 53.541412 2.661360 34,000 303 440 0
2019-08-09 13:45:40 GMT 53.539352 2.666853 33,975 303 441 0
2019-08-09 13:45:37 GMT 53.536423 2.674622 33,975 303 440 0
2019-08-09 13:45:34 GMT 53.533813 2.681527 33,975 303 440 -64
2019-08-09 13:45:31 GMT 53.528881 2.694559 33,975 303 441 0
2019-08-09 13:45:28 GMT 53.526600 2.700617 33,975 303 440 -192
2019-08-09 13:45:24 GMT 53.522141 2.712446 33,975 303 439 -64
2019-08-09 13:45:21 GMT 53.518799 2.721392 33,975 303 440 -192
2019-08-09 13:45:18 GMT 53.515335 2.730587 33,975 303 440 -128
2019-08-09 13:45:14 GMT 53.511238 2.741574 33,975 303 440 -128
2019-08-09 13:45:11 GMT 53.507141 2.752560 33,975 303 439 -64
2019-08-09 13:45:07 GMT 53.503792 2.761446 34,000 303 440 0
2019-08-09 13:45:04 GMT 53.500854 2.769261 34,000 303 440 -64
2019-08-09 13:45:01 GMT 53.496620 2.780430 34,000 303 439 0
2019-08-09 13:44:57 GMT 53.493271 2.789396 34,000 303 439 0
2019-08-09 13:44:54 GMT 53.489502 2.799395 34,000 303 439 -64
2019-08-09 13:44:49 GMT 53.484612 2.812338 34,000 303 438 -64
2019-08-09 13:44:46 GMT 53.479980 2.824742 34,000 303 438 0
2019-08-09 13:44:43 GMT 53.473110 2.843116 34,000 303 439 -128
2019-08-09 13:44:39 GMT 53.473110 2.843116 34,000 303 439 -128
2019-08-09 13:44:36 GMT 53.469437 2.852891 34,000 303 439 -128
2019-08-09 13:44:32 GMT 53.464645 2.865470 34,000 303 438 0
2019-08-09 13:44:29 GMT 53.462036 2.872297 34,000 303 438 0
2019-08-09 13:44:23 GMT 53.455536 2.889483 34,000 303 437 -64
2019-08-09 13:44:18 GMT 53.447742 2.910084 34,000 303 437 -64
2019-08-09 13:44:15 GMT 53.447742 2.910084 34,000 303 430 0
2019-08-09 13:44:12 GMT 53.443680 2.920951 34,000 303 437 -64
2019-08-09 13:44:08 GMT 53.440014 2.930603 34,000 303 436 64
2019-08-09 13:44:03 GMT 53.430084 2.956892 34,000 303 436 -64
2019-08-09 13:43:59 GMT 53.430084 2.956892 33,975 303 436 -64
2019-08-09 13:43:53 GMT 53.423767 2.973371 34,000 303 436 -64
2019-08-09 13:43:50 GMT 53.420654 2.981611 34,000 303 436 -64
2019-08-09 13:43:47 GMT 53.417862 2.989066 34,000 303 436 -64
2019-08-09 13:43:43 GMT 53.412224 3.003791 34,000 303 436 0
2019-08-09 13:43:40 GMT 53.408546 3.013485 34,000 303 436 -64
2019-08-09 13:43:37 GMT 53.406403 3.019140 34,000 303 435 -64
2019-08-09 13:43:33 GMT 53.399467 3.037316 34,000 303 436 -64
2019-08-09 13:43:30 GMT 53.394718 3.049837 34,000 303 435 -64
2019-08-09 13:43:26 GMT 53.394718 3.049837 34,000 303 435 -64
2019-08-09 13:43:23 GMT 53.391598 3.058077 34,000 303 434 -128
2019-08-09 13:43:20 GMT 53.383919 3.078111 34,000 303 435 -64
2019-08-09 13:43:17 GMT 53.383919 3.078111 34,000 303 435 -64
2019-08-09 13:43:11 GMT 53.377762 3.094299 34,000 303 434 0
2019-08-09 13:43:08 GMT 53.374981 3.101618 34,000 303 433 0
2019-08-09 13:43:05 GMT 53.371719 3.110073 34,000 303 434 0
2019-08-09 13:43:01 GMT 53.368149 3.119411 34,000 303 433 -64
2019-08-09 13:42:58 GMT 53.364304 3.129613 34,000 303 433 -64
2019-08-09 13:42:55 GMT 53.360001 3.140913 34,000 303 433 -64
2019-08-09 13:42:51 GMT 53.356129 3.151057 34,000 303 433 -128
2019-08-09 13:42:47 GMT 53.352585 3.160374 34,000 303 433 -64
2019-08-09 13:42:43 GMT 53.348373 3.171361 34,000 303 433 -64
2019-08-09 13:42:40 GMT 53.345215 3.179522 34,000 303 434 64
2019-08-09 13:42:36 GMT 53.340996 3.190559 34,000 303 433 0
2019-08-09 13:42:33 GMT 53.337879 3.198718 34,000 303 433 -64
2019-08-09 13:42:29 GMT 53.333862 3.209106 34,000 303 433 0
2019-08-09 13:42:24 GMT 53.327911 3.224566 34,000 303 433 -64
2019-08-09 13:42:21 GMT 53.324379 3.233858 34,000 303 433 0
2019-08-09 13:42:17 GMT 53.320374 3.244198 34,000 303 433 0
2019-08-09 13:42:14 GMT 53.317154 3.252659 34,000 303 433 0
2019-08-09 13:42:10 GMT 53.312805 3.263881 34,000 303 432 0
2019-08-09 13:42:07 GMT 53.306030 3.281538 34,000 303 432 -64
2019-08-09 13:42:04 GMT 53.306030 3.281538 34,000 303 432 -64
2019-08-09 13:41:58 GMT 53.299850 3.297546 34,000 303 432 -64
2019-08-09 13:41:55 GMT 53.295887 3.307935 34,000 303 432 0
2019-08-09 13:41:52 GMT 53.293396 3.314340 34,000 303 431 -64
2019-08-09 13:41:49 GMT 53.285507 3.334835 34,000 303 431 0
2019-08-09 13:41:45 GMT 53.285507 3.334835 34,000 303 431 0
2019-08-09 13:41:42 GMT 53.277924 3.354361 34,000 303 432 -64
2019-08-09 13:41:38 GMT 53.273727 3.365290 34,000 303 432 -64
2019-08-09 13:41:35 GMT 53.273727 3.365290 34,000 303 432 0
2019-08-09 13:41:27 GMT 53.265976 3.385437 34,000 303 431 0
2019-08-09 13:41:23 GMT 53.261810 3.396391 34,000 303 431 0
2019-08-09 13:41:20 GMT 53.258507 3.405115 33,975 303 431 -64
2019-08-09 13:41:16 GMT 53.254852 3.414629 34,000 303 431 -64
2019-08-09 13:41:13 GMT 53.251476 3.423615 34,000 303 431 0
2019-08-09 13:41:09 GMT 53.247711 3.433384 34,000 303 431 0
2019-08-09 13:41:05 GMT 53.238785 3.456927 34,000 303 431 0
2019-08-09 13:41:01 GMT 53.238785 3.456927 34,000 303 431 0
2019-08-09 13:40:58 GMT 53.232483 3.473457 34,000 303 431 0
2019-08-09 13:40:55 GMT 53.232483 3.473457 34,000 303 431 0
2019-08-09 13:40:52 GMT 53.228016 3.485251 34,000 303 431 0
2019-08-09 13:40:46 GMT 53.222012 3.500923 34,000 303 431 0
2019-08-09 13:40:40 GMT 53.216034 3.516567 34,000 303 430 0
2019-08-09 13:40:37 GMT 53.211441 3.528550 33,975 303 430 0
2019-08-09 13:40:34 GMT 53.209255 3.534124 33,975 303 431 0
2019-08-09 13:40:31 GMT 53.207245 3.539481 33,975 303 431 0
2019-08-09 13:40:28 GMT 53.202484 3.551723 33,975 303 431 -64
2019-08-09 13:40:24 GMT 53.199280 3.560120 34,000 303 428 -64
2019-08-09 13:40:19 GMT 53.189941 3.584368 33,975 303 429 0
2019-08-09 13:40:13 GMT 53.187794 3.589944 33,975 304 425 0
2019-08-09 13:40:10 GMT 53.183605 3.600769 33,975 303 430 0
2019-08-09 13:40:07 GMT 53.179871 3.610578 33,975 303 429 0
2019-08-09 13:40:04 GMT 53.177319 3.617249 33,975 303 429 0
2019-08-09 13:40:01 GMT 53.170074 3.636239 33,975 303 429 0
2019-08-09 13:39:53 GMT 53.165913 3.647057 33,975 303 429 0
2019-08-09 13:39:48 GMT 53.160461 3.661272 33,975 303 430 0
2019-08-09 13:39:45 GMT 53.157440 3.669030 33,975 303 430 -64
2019-08-09 13:39:42 GMT 53.154041 3.677916 33,975 303 430 -64
2019-08-09 13:39:39 GMT 53.150784 3.686236 33,975 303 430 -64
2019-08-09 13:39:36 GMT 53.147324 3.695095 33,975 303 430 -64
2019-08-09 13:39:32 GMT 53.141968 3.708984 33,975 303 430 -64
2019-08-09 13:39:29 GMT 53.139816 3.714478 34,000 303 429 -64
2019-08-09 13:39:26 GMT 53.136795 3.722246 34,000 303 429 -64
2019-08-09 13:39:23 GMT 53.130302 3.739148 34,000 303 428 -64
2019-08-09 13:39:17 GMT 53.126251 3.749731 34,000 303 428 0
2019-08-09 13:39:12 GMT 53.121319 3.762494 34,000 303 429 -64
2019-08-09 13:39:08 GMT 53.117889 3.771293 34,000 303 428 -64
2019-08-09 13:39:05 GMT 53.114056 3.781316 34,000 303 428 -64
2019-08-09 13:39:01 GMT 53.110237 3.791253 34,000 303 428 -64
2019-08-09 13:38:57 GMT 53.103069 3.809832 34,000 303 428 -64
2019-08-09 13:38:54 GMT 53.103069 3.809832 34,000 303 427 0
2019-08-09 13:38:50 GMT 53.098618 3.821437 34,000 303 428 -64
2019-08-09 13:38:47 GMT 53.094875 3.831090 34,000 303 428 -64
2019-08-09 13:38:44 GMT 53.092407 3.837446 34,000 303 427 0
2019-08-09 13:38:41 GMT 53.089188 3.845749 34,000 303 428 0
2019-08-09 13:38:38 GMT 53.081051 3.866717 34,000 303 427 0
2019-08-09 13:38:34 GMT 53.081051 3.866717 34,000 303 428 0
2019-08-09 13:38:30 GMT 53.075775 3.880234 34,000 303 428 0
2019-08-09 13:38:25 GMT 53.070717 3.893162 34,000 303 428 0
2019-08-09 13:38:22 GMT 53.068771 3.898087 34,000 303 428 0
2019-08-09 13:38:19 GMT 53.064835 3.908310 34,000 303 428 0
2019-08-09 13:38:14 GMT 53.059357 3.922355 34,000 303 427 -64
2019-08-09 13:38:11 GMT 53.052883 3.939148 34,000 303 427 -64
2019-08-09 13:38:07 GMT 53.048264 3.951035 34,000 303 428 -64
2019-08-09 13:38:04 GMT 53.048264 3.951035 34,000 303 427 -64
2019-08-09 13:38:00 GMT 53.039898 3.972499 34,000 303 427 0
2019-08-09 13:37:56 GMT 53.039898 3.972499 34,000 303 427 0
2019-08-09 13:37:53 GMT 53.036919 3.980190 34,000 303 427 -64
2019-08-09 13:37:50 GMT 53.033798 3.988113 34,000 303 427 0
2019-08-09 13:37:47 GMT 53.027298 4.004898 34,000 303 427 0
2019-08-09 13:37:44 GMT 53.027298 4.004898 34,000 303 427 0
2019-08-09 13:37:41 GMT 53.024918 4.010925 34,000 303 427 0
2019-08-09 13:37:38 GMT 53.021393 4.020004 34,000 303 427 0
2019-08-09 13:37:35 GMT 53.017868 4.029007 34,000 303 426 0
2019-08-09 13:37:32 GMT 53.014664 4.037247 34,000 303 427 0
2019-08-09 13:37:29 GMT 53.010040 4.049072 34,000 303 427 -64
2019-08-09 13:37:26 GMT 53.006836 4.057312 34,000 303 427 -64
2019-08-09 13:37:23 GMT 53.004776 4.062500 34,000 303 427 0
2019-08-09 13:37:20 GMT 53.002144 4.069336 34,000 304 427 0
2019-08-09 13:37:17 GMT 52.994835 4.088013 34,000 304 427 0
2019-08-09 13:37:14 GMT 52.994835 4.088013 34,000 303 427 -64
2019-08-09 13:37:11 GMT 52.990997 4.097900 34,000 304 427 0
2019-08-09 13:37:08 GMT 52.988434 4.104462 34,000 304 427 0
2019-08-09 13:37:05 GMT 52.984360 4.114914 34,000 304 425 64
2019-08-09 13:37:02 GMT 52.982731 4.119010 34,000 304 427 -64
2019-08-09 13:36:59 GMT 52.978546 4.129639 34,000 304 427 -64
2019-08-09 13:36:56 GMT 52.973373 4.142838 34,000 304 427 -64
2019-08-09 13:36:50 GMT 52.966644 4.160080 34,000 304 427 0
2019-08-09 13:36:44 GMT 52.962852 4.169625 34,000 303 426 -64
2019-08-09 13:36:41 GMT 52.959969 4.177002 34,000 303 426 -64
2019-08-09 13:36:38 GMT 52.951950 4.197540 34,000 304 425 64
2019-08-09 13:36:34 GMT 52.951950 4.197540 34,000 304 425 64
2019-08-09 13:36:31 GMT 52.949074 4.204939 34,000 304 425 0
2019-08-09 13:36:28 GMT 52.945862 4.213104 34,000 304 425 0
2019-08-09 13:36:25 GMT 52.943302 4.219692 34,000 304 425 -64
2019-08-09 13:36:22 GMT 52.940090 4.228088 34,000 304 426 -64
2019-08-09 13:36:18 GMT 52.935341 4.239859 34,000 304 425 64
2019-08-09 13:36:15 GMT 52.932678 4.246674 34,000 304 425 64
2019-08-09 13:36:12 GMT 52.928879 4.256134 34,000 304 425 64
2019-08-09 13:36:09 GMT 52.925766 4.264069 34,000 304 425 0
2019-08-09 13:36:06 GMT 52.922562 4.272232 34,000 304 425 0
2019-08-09 13:36:03 GMT 52.919312 4.280396 34,000 304 425 0
2019-08-09 13:36:00 GMT 52.915878 4.289093 34,000 304 424 0
2019-08-09 13:35:57 GMT 52.912903 4.296646 34,000 304 424 64
2019-08-09 13:35:54 GMT 52.906998 4.311676 34,000 304 424 0
2019-08-09 13:35:51 GMT 52.906998 4.311676 34,000 304 424 0
2019-08-09 13:35:48 GMT 52.899490 4.330673 34,000 304 424 -64
2019-08-09 13:35:40 GMT 52.894272 4.344025 34,000 304 424 0
2019-08-09 13:35:36 GMT 52.889420 4.356232 34,000 304 424 0
2019-08-09 13:35:33 GMT 52.887390 4.361337 34,000 304 425 0
2019-08-09 13:35:30 GMT 52.882736 4.373265 34,000 304 424 -64
2019-08-09 13:35:27 GMT 52.880356 4.378967 34,000 304 424 -64
2019-08-09 13:35:24 GMT 52.876831 4.387894 34,000 304 424 0
2019-08-09 13:35:21 GMT 52.873333 4.396493 34,000 304 424 -64
2019-08-09 13:35:18 GMT 52.871201 4.401932 34,000 304 423 64
2019-08-09 13:35:15 GMT 52.866489 4.413836 34,000 304 424 -64
2019-08-09 13:35:12 GMT 52.863052 4.422455 34,000 304 424 0
2019-08-09 13:35:08 GMT 52.859276 4.431963 34,000 304 423 64
2019-08-09 13:35:05 GMT 52.856735 4.438400 34,000 304 423 64
2019-08-09 13:35:02 GMT 52.852943 4.447893 34,000 304 423 64
2019-08-09 13:34:59 GMT 52.850281 4.454651 34,000 304 423 0
2019-08-09 13:34:56 GMT 52.846939 4.462967 33,975 304 423 -64
2019-08-09 13:34:53 GMT 52.844284 4.469757 33,975 304 423 0
2019-08-09 13:34:50 GMT 52.841167 4.477557 33,975 304 423 0
2019-08-09 13:34:47 GMT 52.836788 4.488621 34,000 304 423 -64
2019-08-09 13:34:44 GMT 52.834415 4.494585 33,975 304 423 0
2019-08-09 13:34:41 GMT 52.828079 4.510498 34,000 304 423 -64
2019-08-09 13:34:34 GMT 52.823730 4.521561 34,000 304 423 -64
2019-08-09 13:34:31 GMT 52.821056 4.528329 34,000 304 423 -64
2019-08-09 13:34:28 GMT 52.817192 4.538060 34,000 304 423 -64
2019-08-09 13:34:25 GMT 52.813980 4.546143 34,000 304 422 0
2019-08-09 13:34:22 GMT 52.809494 4.557419 34,000 304 423 0
2019-08-09 13:34:19 GMT 52.804688 4.569550 34,000 304 422 0
2019-08-09 13:34:13 GMT 52.796707 4.589460 34,000 304 423 0
2019-08-09 13:34:09 GMT 52.796707 4.589460 34,000 304 423 0
2019-08-09 13:34:06 GMT 52.793610 4.597244 34,000 304 423 0
2019-08-09 13:34:03 GMT 52.790497 4.605103 34,000 304 423 0
2019-08-09 13:33:59 GMT 52.786140 4.616141 34,000 304 423 -64
2019-08-09 13:33:56 GMT 52.782928 4.624224 34,000 304 421 0
2019-08-09 13:33:53 GMT 52.778641 4.634933 34,000 304 422 -128
2019-08-09 13:33:50 GMT 52.776505 4.640311 34,000 304 422 -64
2019-08-09 13:33:47 GMT 52.767658 4.662284 34,000 304 422 0
2019-08-09 13:33:42 GMT 52.767658 4.662284 34,000 304 422 64
2019-08-09 13:33:39 GMT 52.764961 4.669033 34,000 304 420 0
2019-08-09 13:33:36 GMT 52.761654 4.677272 34,000 304 422 0
2019-08-09 13:33:33 GMT 52.758072 4.686140 34,000 304 421 0
2019-08-09 13:33:30 GMT 52.754013 4.696274 34,000 304 421 -64
2019-08-09 13:33:26 GMT 52.745781 4.716902 34,000 304 421 -64
2019-08-09 13:33:22 GMT 52.741497 4.727652 34,000 304 421 -64
2019-08-09 13:33:18 GMT 52.741497 4.727652 34,000 304 422 0
2019-08-09 13:33:15 GMT 52.739540 4.732439 34,000 304 421 0
2019-08-09 13:33:12 GMT 52.735584 4.742327 34,000 304 421 0
2019-08-09 13:33:09 GMT 52.728241 4.760437 34,000 304 421 0
2019-08-09 13:33:03 GMT 52.726181 4.765555 34,000 304 421 0
2019-08-09 13:33:00 GMT 52.723206 4.773026 34,000 304 421 0
2019-08-09 13:32:57 GMT 52.718781 4.783918 34,000 304 421 -64
2019-08-09 13:32:54 GMT 52.712681 4.799142 34,000 304 421 -64
2019-08-09 13:32:51 GMT 52.712681 4.799142 34,000 304 421 0
2019-08-09 13:32:47 GMT 52.709656 4.806671 34,000 304 421 -64
2019-08-09 13:32:44 GMT 52.705559 4.816799 34,000 304 420 0
2019-08-09 13:32:41 GMT 52.698395 4.834671 34,000 304 421 0
2019-08-09 13:32:38 GMT 52.698395 4.834671 34,000 304 421 -64
2019-08-09 13:32:35 GMT 52.694714 4.843715 34,000 304 421 0
2019-08-09 13:32:32 GMT 52.692757 4.848502 34,000 304 421 -64
2019-08-09 13:32:29 GMT 52.689964 4.855486 34,000 304 421 -64
2019-08-09 13:32:26 GMT 52.686192 4.864746 34,000 304 421 -64
2019-08-09 13:32:23 GMT 52.681915 4.875412 34,000 304 421 0
2019-08-09 13:32:20 GMT 52.679863 4.880519 34,000 304 421 64
2019-08-09 13:32:17 GMT 52.675644 4.890900 34,000 304 421 0
2019-08-09 13:32:14 GMT 52.672230 4.899353 34,000 304 421 -128
2019-08-09 13:32:11 GMT 52.670040 4.904689 34,000 304 421 -64
2019-08-09 13:32:08 GMT 52.666920 4.912458 34,000 304 421 -64
2019-08-09 13:32:05 GMT 52.662640 4.923052 34,000 304 421 -64
2019-08-09 13:32:02 GMT 52.660583 4.928131 34,000 304 421 -64
2019-08-09 13:31:59 GMT 52.653374 4.945966 34,000 304 421 -64
2019-08-09 13:31:56 GMT 52.653374 4.945966 34,000 304 420 0
2019-08-09 13:31:53 GMT 52.649837 4.954991 34,000 304 420 0
2019-08-09 13:31:50 GMT 52.646759 4.962463 34,000 304 420 0
2019-08-09 13:31:47 GMT 52.645157 4.966431 34,000 304 420 0
2019-08-09 13:31:44 GMT 52.640305 4.978409 34,000 304 419 0
2019-08-09 13:31:41 GMT 52.637970 4.984283 34,000 304 420 0
2019-08-09 13:31:38 GMT 52.634521 4.992815 34,000 304 419 -64
2019-08-09 13:31:35 GMT 52.631214 5.000977 34,000 304 419 0
2019-08-09 13:31:32 GMT 52.627911 5.009216 34,000 304 419 -64
2019-08-09 13:31:28 GMT 52.624283 5.018311 33,975 304 421 0
2019-08-09 13:31:25 GMT 52.620438 5.027847 34,000 304 419 64
2019-08-09 13:31:22 GMT 52.617737 5.034409 34,000 304 419 0
2019-08-09 13:31:19 GMT 52.613754 5.044250 34,000 304 419 64
2019-08-09 13:31:16 GMT 52.611198 5.050572 34,000 304 419 64
2019-08-09 13:31:13 GMT 52.607243 5.060381 34,000 304 420 64
2019-08-09 13:31:10 GMT 52.601421 5.074742 34,000 304 419 0
2019-08-09 13:31:07 GMT 52.597370 5.084787 34,000 304 419 64
2019-08-09 13:31:04 GMT 52.597370 5.084787 34,000 304 419 0
2019-08-09 13:30:58 GMT 52.591274 5.099932 34,000 304 419 -192
2019-08-09 13:30:55 GMT 52.588486 5.106812 34,000 304 419 -64
2019-08-09 13:30:52 GMT 52.584732 5.116043 34,000 304 419 0
2019-08-09 13:30:48 GMT 52.577774 5.133286 34,000 304 419 0
2019-08-09 13:30:45 GMT 52.577774 5.133286 34,000 304 419 0
2019-08-09 13:30:42 GMT 52.574020 5.142517 34,000 304 419 64
2019-08-09 13:30:39 GMT 52.570908 5.150223 34,000 304 419 64
2019-08-09 13:30:36 GMT 52.567795 5.157852 34,000 304 420 64
2019-08-09 13:30:33 GMT 52.565346 5.163967 34,000 304 419 64
2019-08-09 13:30:30 GMT 52.561012 5.174561 34,000 304 420 64
2019-08-09 13:30:27 GMT 52.555618 5.187759 33,975 304 420 -64
2019-08-09 13:30:21 GMT 52.548386 5.205460 33,975 304 420 0
2019-08-09 13:30:18 GMT 52.548386 5.205460 33,975 304 420 0
2019-08-09 13:30:14 GMT 52.544209 5.215838 33,975 304 421 64
2019-08-09 13:30:11 GMT 52.541382 5.222702 33,975 304 421 0
2019-08-09 13:30:08 GMT 52.537739 5.231689 33,975 304 420 0
2019-08-09 13:30:04 GMT 52.533642 5.241734 33,975 304 420 0
2019-08-09 13:30:01 GMT 52.530396 5.249710 33,975 304 420 0
2019-08-09 13:29:57 GMT 52.526424 5.259469 33,975 304 420 -64
2019-08-09 13:29:54 GMT 52.523483 5.266647 33,975 304 421 0
2019-08-09 13:29:51 GMT 52.518951 5.277786 33,975 304 421 0
2019-08-09 13:29:48 GMT 52.512177 5.294418 33,975 304 421 0
2019-08-09 13:29:45 GMT 52.512177 5.294418 33,975 304 421 0
2019-08-09 13:29:42 GMT 52.509247 5.301610 33,975 304 421 0
2019-08-09 13:29:39 GMT 52.506409 5.308456 34,000 304 421 -64
2019-08-09 13:29:36 GMT 52.503708 5.315094 33,975 304 421 -64
2019-08-09 13:29:33 GMT 52.500031 5.324053 33,975 304 421 -64
2019-08-09 13:29:30 GMT 52.496017 5.333862 33,975 304 421 -64
2019-08-09 13:29:27 GMT 52.493328 5.340454 33,975 304 421 0
2019-08-09 13:29:24 GMT 52.489975 5.348694 34,000 304 421 -64
2019-08-09 13:29:21 GMT 52.486809 5.356384 34,000 304 421 0
2019-08-09 13:29:18 GMT 52.483566 5.364304 34,000 304 421 0
2019-08-09 13:29:14 GMT 52.475555 5.383835 34,000 304 421 0
2019-08-09 13:29:10 GMT 52.475555 5.383835 34,000 304 421 0
2019-08-09 13:29:07 GMT 52.471912 5.392875 34,000 304 421 0
2019-08-09 13:29:04 GMT 52.468872 5.400314 34,000 304 421 -64
2019-08-09 13:29:01 GMT 52.465210 5.409276 34,000 304 421 -64
2019-08-09 13:28:58 GMT 52.462601 5.415649 34,000 304 421 -64
2019-08-09 13:28:55 GMT 52.458069 5.426788 34,000 304 421 -64
2019-08-09 13:28:52 GMT 52.455460 5.433121 34,000 304 421 0
2019-08-09 13:28:49 GMT 52.449921 5.446625 34,000 304 422 0
2019-08-09 13:28:43 GMT 52.445892 5.456360 34,000 304 422 0
2019-08-09 13:28:40 GMT 52.442959 5.463501 34,000 304 421 -64
2019-08-09 13:28:37 GMT 52.440350 5.469857 34,000 304 422 0
2019-08-09 13:28:34 GMT 52.435684 5.481262 34,000 304 421 -64
2019-08-09 13:28:31 GMT 52.433167 5.487289 34,000 304 421 -64
2019-08-09 13:28:28 GMT 52.428947 5.497637 34,000 304 421 -64
2019-08-09 13:28:25 GMT 52.426666 5.503235 34,000 304 421 -64
2019-08-09 13:28:22 GMT 52.423325 5.511398 34,000 304 421 -64
2019-08-09 13:28:19 GMT 52.418976 5.522003 34,000 304 422 0
2019-08-09 13:28:16 GMT 52.416367 5.528336 34,000 304 422 0
2019-08-09 13:28:13 GMT 52.413620 5.534897 34,000 304 422 0
2019-08-09 13:28:10 GMT 52.410137 5.543387 34,000 304 422 -64
2019-08-09 13:28:07 GMT 52.407021 5.551078 34,000 304 422 0
2019-08-09 13:28:04 GMT 52.403854 5.558690 34,000 304 422 -64
2019-08-09 13:28:01 GMT 52.400501 5.566929 34,000 304 422 -64
2019-08-09 13:27:58 GMT 52.397102 5.575091 34,000 304 422 -64
2019-08-09 13:27:55 GMT 52.393005 5.585135 34,000 304 422 -64
2019-08-09 13:27:52 GMT 52.390686 5.590744 34,000 304 422 -64
2019-08-09 13:27:49 GMT 52.384254 5.606323 34,000 305 422 0
2019-08-09 13:27:46 GMT 52.384254 5.606323 34,000 305 422 64
2019-08-09 13:27:43 GMT 52.380112 5.616302 34,000 305 422 64
2019-08-09 13:27:40 GMT 52.377926 5.621626 34,000 305 423 -64
2019-08-09 13:27:37 GMT 52.374756 5.629272 34,000 305 423 -64
2019-08-09 13:27:34 GMT 52.371231 5.637741 34,000 305 423 0
2019-08-09 13:27:31 GMT 52.367775 5.646188 34,000 305 422 -64
2019-08-09 13:27:28 GMT 52.364380 5.654349 34,000 305 423 -64
2019-08-09 13:27:25 GMT 52.361618 5.661011 34,000 305 423 -64
2019-08-09 13:27:22 GMT 52.354523 5.678177 34,000 305 423 0
2019-08-09 13:27:19 GMT 52.354523 5.678177 34,000 305 424 0
2019-08-09 13:27:16 GMT 52.351761 5.684719 34,000 305 423 0
2019-08-09 13:27:13 GMT 52.348549 5.692409 33,975 305 424 0
2019-08-09 13:27:10 GMT 52.344826 5.701355 34,000 305 423 64
2019-08-09 13:27:07 GMT 52.341522 5.709229 33,975 305 423 128
2019-08-09 13:27:04 GMT 52.334164 5.727016 33,975 304 423 -64
2019-08-09 13:27:01 GMT 52.334164 5.727016 33,975 304 423 -64
2019-08-09 13:26:58 GMT 52.331421 5.733608 33,975 305 424 0
2019-08-09 13:26:55 GMT 52.324539 5.750275 33,975 304 424 -64
2019-08-09 13:26:52 GMT 52.324539 5.750275 34,000 305 424 0
2019-08-09 13:26:49 GMT 52.321270 5.758248 34,000 305 424 0
2019-08-09 13:26:46 GMT 52.317871 5.766410 34,000 305 424 0
2019-08-09 13:26:43 GMT 52.314659 5.774100 34,000 305 424 -64
2019-08-09 13:26:40 GMT 52.311813 5.780945 34,000 305 424 -64
2019-08-09 13:26:37 GMT 52.309074 5.787598 34,000 305 424 64
2019-08-09 13:26:34 GMT 52.305450 5.796280 34,000 305 424 0
2019-08-09 13:26:31 GMT 52.301056 5.806885 34,000 305 424 0
2019-08-09 13:26:28 GMT 52.298786 5.812395 34,000 305 424 0
2019-08-09 13:26:25 GMT 52.295242 5.820847 33,975 305 424 0
2019-08-09 13:26:22 GMT 52.292500 5.827462 33,975 305 424 64
2019-08-09 13:26:19 GMT 52.288731 5.836487 33,975 305 424 64
2019-08-09 13:26:16 GMT 52.285446 5.844421 33,975 305 425 0
2019-08-09 13:26:13 GMT 52.278675 5.860500 34,000 305 425 0
2019-08-09 13:26:10 GMT 52.278675 5.860500 33,975 305 425 64
2019-08-09 13:26:07 GMT 52.275787 5.867386 33,975 305 425 64
2019-08-09 13:26:04 GMT 52.270706 5.879517 33,975 305 425 0
2019-08-09 13:26:01 GMT 52.268620 5.884513 33,975 305 425 0
2019-08-09 13:25:58 GMT 52.264755 5.893851 33,975 305 425 -64
2019-08-09 13:25:55 GMT 52.261776 5.900992 33,975 305 425 0
2019-08-09 13:25:52 GMT 52.258053 5.909938 34,000 305 425 0
2019-08-09 13:25:49 GMT 52.254978 5.917393 33,975 305 425 -64
2019-08-09 13:25:46 GMT 52.251297 5.926132 34,000 305 426 -64
2019-08-09 13:25:41 GMT 52.246788 5.937012 33,975 305 426 -64
2019-08-09 13:25:38 GMT 52.242874 5.946193 34,000 305 426 -64
2019-08-09 13:25:35 GMT 52.240585 5.951767 34,000 305 426 -64
2019-08-09 13:25:31 GMT 52.236145 5.962372 34,000 305 426 0
2019-08-09 13:25:28 GMT 52.232029 5.972168 34,000 305 426 0
2019-08-09 13:25:25 GMT 52.229237 5.978760 34,000 305 426 0
2019-08-09 13:25:22 GMT 52.226028 5.986404 34,000 305 426 0
2019-08-09 13:25:19 GMT 52.222160 5.995632 34,000 305 425 0
2019-08-09 13:25:16 GMT 52.219437 6.002274 34,000 305 425 -64
2019-08-09 13:25:13 GMT 52.214676 6.013641 34,000 305 425 -64
2019-08-09 13:25:10 GMT 52.211918 6.020272 34,000 305 426 -128
2019-08-09 13:25:06 GMT 52.206940 6.032122 34,025 305 425 -64
2019-08-09 13:25:03 GMT 52.201305 6.045619 34,000 305 425 0
2019-08-09 13:25:00 GMT 52.201305 6.045619 34,000 305 426 64
2019-08-09 13:24:57 GMT 52.197327 6.055145 34,000 305 425 64
2019-08-09 13:24:54 GMT 52.195206 6.060137 34,000 305 426 0
2019-08-09 13:24:51 GMT 52.191513 6.068802 34,000 305 425 0
2019-08-09 13:24:48 GMT 52.188309 6.076508 34,000 305 426 64
2019-08-09 13:24:45 GMT 52.181351 6.093140 34,000 305 426 0
2019-08-09 13:24:42 GMT 52.181351 6.093140 34,000 305 426 0
2019-08-09 13:24:39 GMT 52.178146 6.100769 34,000 305 426 0
2019-08-09 13:24:36 GMT 52.174713 6.109009 34,000 306 431 -64
2019-08-09 13:24:33 GMT 52.171417 6.116952 34,000 305 426 64
2019-08-09 13:24:30 GMT 52.168205 6.124643 33,975 305 427 -64
2019-08-09 13:24:27 GMT 52.164871 6.132584 33,975 305 426 0
2019-08-09 13:24:24 GMT 52.160477 6.143188 33,975 305 426 0
2019-08-09 13:24:21 GMT 52.157360 6.150539 33,975 305 426 -64
2019-08-09 13:24:17 GMT 52.153030 6.160897 34,000 305 427 0
2019-08-09 13:24:14 GMT 52.150703 6.166469 33,975 305 427 -64
2019-08-09 13:24:10 GMT 52.146149 6.177292 33,975 305 427 0
2019-08-09 13:24:07 GMT 52.142487 6.186066 33,975 305 427 0
2019-08-09 13:24:04 GMT 52.139156 6.194013 34,000 307 431 0
2019-08-09 13:24:01 GMT 52.135155 6.203509 33,975 305 427 0
2019-08-09 13:23:58 GMT 52.133377 6.207733 34,000 305 427 -64
2019-08-09 13:23:54 GMT 52.124821 6.228149 33,975 305 427 0
2019-08-09 13:23:51 GMT 52.122482 6.233749 33,975 305 427 0
2019-08-09 13:23:45 GMT 52.114487 6.252790 33,975 305 428 0
2019-08-09 13:23:38 GMT 52.111042 6.261030 33,975 305 428 -64
2019-08-09 13:23:35 GMT 52.106094 6.272736 33,975 305 428 -64
2019-08-09 13:23:32 GMT 52.103668 6.278534 34,000 305 428 -128
2019-08-09 13:23:29 GMT 52.096252 6.296005 34,000 305 429 -128
2019-08-09 13:23:26 GMT 52.096252 6.296005 34,000 305 429 -128
2019-08-09 13:23:23 GMT 52.092747 6.304190 34,000 305 429 -64
2019-08-09 13:23:20 GMT 52.090046 6.310547 34,025 305 429 -64
2019-08-09 13:23:17 GMT 52.086323 6.319257 34,025 305 429 0
2019-08-09 13:23:14 GMT 52.083618 6.325607 34,000 305 429 -128
2019-08-09 13:23:11 GMT 52.078903 6.336746 34,000 305 429 0
2019-08-09 13:23:08 GMT 52.076660 6.342010 33,975 305 429 -64
2019-08-09 13:23:05 GMT 52.073055 6.350490 34,000 305 429 0
2019-08-09 13:23:02 GMT 52.069191 6.359436 34,000 305 429 0
2019-08-09 13:22:59 GMT 52.065701 6.367676 34,000 305 429 0
2019-08-09 13:22:53 GMT 52.059357 6.382446 34,000 305 429 128
2019-08-09 13:22:50 GMT 52.056061 6.390076 33,975 305 429 -64
2019-08-09 13:22:47 GMT 52.053223 6.396637 34,000 305 429 0
2019-08-09 13:22:44 GMT 52.046101 6.413348 34,000 305 429 -128
2019-08-09 13:22:38 GMT 52.042793 6.420959 34,000 306 429 64
2019-08-09 13:22:35 GMT 52.038391 6.431274 34,000 306 430 0
2019-08-09 13:22:32 GMT 52.035301 6.438381 34,000 306 430 0
2019-08-09 13:22:29 GMT 52.032646 6.444423 34,000 306 430 64
2019-08-09 13:22:26 GMT 52.029297 6.451957 34,000 306 430 0
2019-08-09 13:22:23 GMT 52.024567 6.462708 34,000 306 430 0
2019-08-09 13:22:20 GMT 52.022278 6.467972 34,000 306 430 -64
2019-08-09 13:22:17 GMT 52.018307 6.476911 34,000 306 430 -64
2019-08-09 13:22:14 GMT 52.014118 6.486328 34,000 306 430 -64
2019-08-09 13:22:11 GMT 52.011700 6.491821 34,000 306 430 -64
2019-08-09 13:22:08 GMT 52.004196 6.508789 34,000 306 430 -64
2019-08-09 13:22:05 GMT 52.004196 6.508789 34,000 306 430 -64
2019-08-09 13:22:02 GMT 52.000713 6.516697 34,000 306 431 64
2019-08-09 13:21:59 GMT 51.997128 6.524780 34,000 306 430 64
2019-08-09 13:21:56 GMT 51.993172 6.533648 34,000 307 431 0
2019-08-09 13:21:53 GMT 51.986748 6.548009 34,000 307 431 0
2019-08-09 13:21:50 GMT 51.986748 6.548009 34,000 307 431 0
2019-08-09 13:21:47 GMT 51.983917 6.554260 34,000 307 431 64
2019-08-09 13:21:44 GMT 51.980255 6.562347 34,000 307 431 64
2019-08-09 13:21:41 GMT 51.976875 6.569903 34,000 306 430 64
2019-08-09 13:21:38 GMT 51.973160 6.578293 34,000 306 430 64
2019-08-09 13:21:35 GMT 51.966934 6.592789 33,975 304 429 0
2019-08-09 13:21:29 GMT 51.962494 6.603725 33,975 302 426 -128
2019-08-09 13:21:26 GMT 51.959839 6.610474 34,000 301 426 0
2019-08-09 13:21:22 GMT 51.955372 6.622480 34,000 301 426 0
2019-08-09 13:21:19 GMT 51.953369 6.627973 34,000 301 426 0
2019-08-09 13:21:16 GMT 51.949924 6.637233 34,000 301 426 0
2019-08-09 13:21:12 GMT 51.946335 6.647110 34,000 301 426 64
2019-08-09 13:21:09 GMT 51.943081 6.655831 34,000 301 426 64
2019-08-09 13:21:06 GMT 51.939774 6.664856 34,000 301 426 64
2019-08-09 13:21:03 GMT 51.937168 6.671997 33,975 301 426 0
2019-08-09 13:21:00 GMT 51.934525 6.679077 33,975 301 426 64
2019-08-09 13:20:57 GMT 51.930977 6.688634 33,975 301 426 0
2019-08-09 13:20:54 GMT 51.927338 6.698456 33,975 301 426 0
2019-08-09 13:20:51 GMT 51.921112 6.715393 34,000 301 427 0
2019-08-09 13:20:48 GMT 51.919006 6.721191 34,000 301 426 0
2019-08-09 13:20:45 GMT 51.914978 6.732101 34,000 301 427 0
2019-08-09 13:20:42 GMT 51.914978 6.732101 34,000 301 426 0
2019-08-09 13:20:39 GMT 51.912216 6.739485 34,000 301 427 0
2019-08-09 13:20:36 GMT 51.909805 6.746063 34,000 301 427 0
2019-08-09 13:20:33 GMT 51.905979 6.756435 34,000 301 426 0
2019-08-09 13:20:30 GMT 51.903648 6.762713 34,000 302 427 0
2019-08-09 13:20:27 GMT 51.897446 6.779404 34,000 301 427 0
2019-08-09 13:20:21 GMT 51.893417 6.790367 34,000 301 427 0
2019-08-09 13:20:18 GMT 51.890568 6.798019 33,975 301 427 64
2019-08-09 13:20:15 GMT 51.888569 6.803513 33,975 301 427 64
2019-08-09 13:20:12 GMT 51.884892 6.813583 33,975 301 427 64
2019-08-09 13:20:09 GMT 51.882561 6.819611 33,975 301 427 -64
2019-08-09 13:20:06 GMT 51.878559 6.830597 33,975 301 427 0
2019-08-09 13:20:03 GMT 51.875534 6.838760 33,975 301 427 -64
2019-08-09 13:20:00 GMT 51.873596 6.843963 33,975 301 427 -64
2019-08-09 13:19:57 GMT 51.869934 6.853836 34,000 302 427 -64
2019-08-09 13:19:54 GMT 51.867294 6.860962 34,000 302 427 -64
2019-08-09 13:19:51 GMT 51.863434 6.871354 34,000 302 427 -64
2019-08-09 13:19:48 GMT 51.860962 6.877899 34,000 302 428 -192
2019-08-09 13:19:45 GMT 51.857471 6.887131 34,025 302 428 -128
2019-08-09 13:19:42 GMT 51.854736 6.894515 34,000 302 427 -64
2019-08-09 13:19:39 GMT 51.851578 6.902903 34,025 302 427 -64
2019-08-09 13:19:36 GMT 51.849014 6.909732 34,000 302 427 64
2019-08-09 13:19:33 GMT 51.845627 6.918714 34,025 302 427 64
2019-08-09 13:19:30 GMT 51.839493 6.935045 34,000 302 426 64
2019-08-09 13:19:27 GMT 51.839493 6.935045 34,000 302 426 0
2019-08-09 13:19:24 GMT 51.836010 6.944275 34,000 302 427 0
2019-08-09 13:19:21 GMT 51.834007 6.949692 34,000 302 427 64
2019-08-09 13:19:18 GMT 51.830017 6.960358 34,000 301 426 0
2019-08-09 13:19:15 GMT 51.827724 6.966629 34,000 301 426 0
2019-08-09 13:19:12 GMT 51.823769 6.977310 34,000 301 427 -64
2019-08-09 13:19:09 GMT 51.821228 6.984113 34,000 301 427 -64
2019-08-09 13:19:06 GMT 51.817062 6.995316 34,000 301 426 0
2019-08-09 13:19:03 GMT 51.814774 7.001557 34,000 302 427 -64
2019-08-09 13:19:00 GMT 51.812714 7.006976 34,000 302 426 -64
2019-08-09 13:18:56 GMT 51.807613 7.020645 34,000 302 426 0
2019-08-09 13:18:53 GMT 51.803936 7.030411 34,000 302 426 0
2019-08-09 13:18:50 GMT 51.801468 7.036896 34,000 302 426 0
2019-08-09 13:18:47 GMT 51.795868 7.051886 34,000 302 426 0
2019-08-09 13:18:44 GMT 51.792622 7.060547 34,000 302 426 64
2019-08-09 13:18:41 GMT 51.792622 7.060547 34,000 302 426 64
2019-08-09 13:18:37 GMT 51.789185 7.069851 34,000 302 427 64
2019-08-09 13:18:34 GMT 51.785522 7.079649 34,000 301 426 0
2019-08-09 13:18:31 GMT 51.779819 7.094879 34,000 302 427 -64
2019-08-09 13:18:25 GMT 51.772934 7.113425 34,000 302 426 -128
2019-08-09 13:18:22 GMT 51.772934 7.113425 34,000 302 426 -64
2019-08-09 13:18:19 GMT 51.770370 7.120180 34,000 302 426 0
2019-08-09 13:18:15 GMT 51.766251 7.131018 34,000 302 426 0
2019-08-09 13:18:12 GMT 51.762691 7.140503 34,000 302 426 0
2019-08-09 13:18:09 GMT 51.759804 7.148056 34,000 302 426 0
2019-08-09 13:18:04 GMT 51.755009 7.160797 34,000 302 426 -64
2019-08-09 13:18:01 GMT 51.749496 7.175483 34,000 302 426 0
2019-08-09 13:17:54 GMT 51.744690 7.188176 34,000 302 425 64
2019-08-09 13:17:51 GMT 51.741028 7.197975 34,000 302 426 -64
2019-08-09 13:17:48 GMT 51.738949 7.203369 34,000 302 425 0
2019-08-09 13:17:45 GMT 51.735901 7.211485 34,000 302 426 0
2019-08-09 13:17:42 GMT 51.729675 7.228039 34,000 302 425 64
2019-08-09 13:17:39 GMT 51.729675 7.228039 34,000 302 426 -64
2019-08-09 13:17:36 GMT 51.726753 7.235870 34,000 302 426 0
2019-08-09 13:17:33 GMT 51.723404 7.244815 34,000 302 425 0
2019-08-09 13:17:30 GMT 51.719330 7.255653 34,000 302 425 0
2019-08-09 13:17:27 GMT 51.717209 7.261353 34,000 302 425 0
2019-08-09 13:17:24 GMT 51.711807 7.275696 34,000 302 425 0
2019-08-09 13:17:18 GMT 51.708206 7.285123 34,000 302 425 0
2019-08-09 13:17:15 GMT 51.704735 7.294312 34,000 302 425 -64
2019-08-09 13:17:12 GMT 51.701054 7.304001 34,000 302 425 0
2019-08-09 13:17:09 GMT 51.698074 7.311859 34,000 302 426 -64
2019-08-09 13:17:06 GMT 51.695095 7.319641 34,000 302 425 0
2019-08-09 13:17:02 GMT 51.692139 7.327435 34,000 302 426 0
2019-08-09 13:16:59 GMT 51.689045 7.335510 34,000 302 425 64
2019-08-09 13:16:56 GMT 51.684948 7.346344 34,000 302 425 64
2019-08-09 13:16:52 GMT 51.681564 7.355198 34,000 302 425 0
2019-08-09 13:16:49 GMT 51.678478 7.363281 34,000 302 425 -64
2019-08-09 13:16:46 GMT 51.671265 7.382441 34,000 302 425 -64
2019-08-09 13:16:43 GMT 51.671265 7.382441 34,000 302 424 0
2019-08-09 13:16:40 GMT 51.668930 7.388677 34,000 302 425 0
2019-08-09 13:16:37 GMT 51.666466 7.395172 34,000 302 425 0
2019-08-09 13:16:34 GMT 51.662464 7.405624 34,000 302 425 64
2019-08-09 13:16:31 GMT 51.659904 7.412338 34,000 302 425 0
2019-08-09 13:16:28 GMT 51.657349 7.419112 34,000 302 424 -64
2019-08-09 13:16:25 GMT 51.653152 7.430115 34,000 302 424 -64
2019-08-09 13:16:22 GMT 51.650826 7.436295 34,000 302 424 -128
2019-08-09 13:16:19 GMT 51.647324 7.445464 34,000 302 424 -64
2019-08-09 13:16:15 GMT 51.644394 7.453259 34,000 302 423 64
2019-08-09 13:16:12 GMT 51.640457 7.463800 34,000 302 423 0
2019-08-09 13:16:09 GMT 51.637932 7.470551 34,000 302 424 0
2019-08-09 13:16:06 GMT 51.633648 7.481842 34,000 302 424 0
2019-08-09 13:16:03 GMT 51.631302 7.487999 34,000 302 424 0
2019-08-09 13:16:00 GMT 51.628326 7.495794 34,000 302 423 64
2019-08-09 13:15:56 GMT 51.624336 7.506180 34,000 302 424 0
2019-08-09 13:15:53 GMT 51.621635 7.513199 34,000 302 424 0
2019-08-09 13:15:50 GMT 51.618145 7.522278 34,000 302 423 0
2019-08-09 13:15:47 GMT 51.610977 7.541001 34,000 302 423 0
2019-08-09 13:15:44 GMT 51.610977 7.541001 34,000 302 423 0
2019-08-09 13:15:41 GMT 51.608734 7.546865 34,000 302 422 0
2019-08-09 13:15:38 GMT 51.604923 7.556839 34,000 302 423 -64
2019-08-09 13:15:35 GMT 51.602272 7.563782 34,000 302 423 -64
2019-08-09 13:15:32 GMT 51.600357 7.568838 34,000 302 423 -64
2019-08-09 13:15:29 GMT 51.597103 7.577438 34,000 302 423 -64
2019-08-09 13:15:26 GMT 51.593765 7.586282 34,000 302 423 0
2019-08-09 13:15:23 GMT 51.589794 7.596741 34,000 302 423 0
2019-08-09 13:15:20 GMT 51.587746 7.602081 34,000 302 423 64
2019-08-09 13:15:17 GMT 51.584164 7.611389 34,000 302 423 0
2019-08-09 13:15:14 GMT 51.580536 7.620726 34,000 302 424 0
2019-08-09 13:15:11 GMT 51.578064 7.627110 34,000 302 422 0
2019-08-09 13:15:08 GMT 51.574677 7.635943 34,000 302 423 0
2019-08-09 13:15:04 GMT 51.571381 7.644480 34,000 302 422 -64
2019-08-09 13:15:01 GMT 51.568222 7.652720 33,975 302 422 64
2019-08-09 13:14:58 GMT 51.565262 7.660522 34,000 302 423 64
2019-08-09 13:14:55 GMT 51.558746 7.677588 34,000 302 423 0
2019-08-09 13:14:48 GMT 51.554134 7.689590 33,975 302 422 -64
2019-08-09 13:14:45 GMT 51.551285 7.697036 33,975 302 422 -64
2019-08-09 13:14:42 GMT 51.547756 7.706146 34,000 302 422 -64
2019-08-09 13:14:38 GMT 51.544594 7.714386 34,000 302 422 64
2019-08-09 13:14:35 GMT 51.541939 7.721329 34,000 302 422 0
2019-08-09 13:14:32 GMT 51.538448 7.730331 34,000 302 422 0
2019-08-09 13:14:29 GMT 51.535469 7.738037 34,000 302 422 0
2019-08-09 13:14:26 GMT 51.532196 7.746549 34,000 302 422 0
2019-08-09 13:14:23 GMT 51.528721 7.755661 34,000 302 422 64
2019-08-09 13:14:18 GMT 51.524734 7.765998 34,000 302 422 64
2019-08-09 13:14:15 GMT 51.520943 7.775879 34,000 302 422 64
2019-08-09 13:14:12 GMT 51.514568 7.792358 34,000 302 422 64
2019-08-09 13:14:06 GMT 51.512421 7.797918 34,000 302 422 0
2019-08-09 13:14:03 GMT 51.504410 7.818702 34,000 302 422 0
2019-08-09 13:14:00 GMT 51.504410 7.818702 34,000 302 422 -64
2019-08-09 13:13:57 GMT 51.502697 7.823181 34,000 302 422 -64
2019-08-09 13:13:54 GMT 51.498779 7.833252 34,000 302 422 -64
2019-08-09 13:13:51 GMT 51.496719 7.838597 34,000 302 422 -64
2019-08-09 13:13:48 GMT 51.492828 7.848692 34,000 303 422 -64
2019-08-09 13:13:45 GMT 51.490128 7.855530 34,000 303 422 -64
2019-08-09 13:13:42 GMT 51.485985 7.866135 34,000 302 421 64
2019-08-09 13:13:39 GMT 51.483215 7.873263 34,000 302 421 0
2019-08-09 13:13:36 GMT 51.481064 7.878830 33,975 302 422 64
2019-08-09 13:13:33 GMT 51.474976 7.894493 34,000 302 422 -64
2019-08-09 13:13:30 GMT 51.471413 7.903748 34,000 302 421 0
2019-08-09 13:13:27 GMT 51.471413 7.903748 34,000 302 421 -64
2019-08-09 13:13:23 GMT 51.464676 7.921291 34,000 302 421 64
2019-08-09 13:13:17 GMT 51.461033 7.930832 34,000 302 421 128
2019-08-09 13:13:14 GMT 51.457867 7.939072 34,000 302 421 64
2019-08-09 13:13:08 GMT 51.452606 7.952576 33,975 302 421 -64
2019-08-09 13:13:05 GMT 51.448792 7.962341 33,975 303 422 64
2019-08-09 13:13:02 GMT 51.445816 7.969987 33,975 303 422 64
2019-08-09 13:12:58 GMT 51.441879 7.980009 34,000 302 421 64
2019-08-09 13:12:55 GMT 51.438175 7.989578 33,975 302 421 -192
2019-08-09 13:12:52 GMT 51.435516 7.996414 33,975 302 421 -64
2019-08-09 13:12:49 GMT 51.429516 8.012085 34,000 302 421 -64
2019-08-09 13:12:46 GMT 51.429516 8.012085 33,975 302 421 -64
2019-08-09 13:12:43 GMT 51.425743 8.021851 34,000 302 420 -64
2019-08-09 13:12:40 GMT 51.420685 8.034792 34,000 302 420 0
2019-08-09 13:12:37 GMT 51.418030 8.041621 34,000 303 421 -64
2019-08-09 13:12:34 GMT 51.418030 8.041621 34,000 302 421 0
2019-08-09 13:12:31 GMT 51.413361 8.053498 34,000 302 420 0
2019-08-09 13:12:26 GMT 51.408241 8.066711 34,000 302 420 64
2019-08-09 13:12:23 GMT 51.405773 8.073044 34,000 302 421 0
2019-08-09 13:12:20 GMT 51.403214 8.079605 34,000 302 420 0
2019-08-09 13:12:16 GMT 51.395672 8.098907 34,000 302 421 -64
2019-08-09 13:12:13 GMT 51.395672 8.098907 34,000 302 421 -64
2019-08-09 13:12:10 GMT 51.392925 8.106003 34,000 302 420 -64
2019-08-09 13:12:07 GMT 51.388409 8.117676 34,000 302 421 0
2019-08-09 13:12:04 GMT 51.385944 8.124008 34,000 302 420 -64
2019-08-09 13:12:01 GMT 51.383240 8.130848 34,000 303 421 -64
2019-08-09 13:11:58 GMT 51.380169 8.138733 34,000 303 421 0
2019-08-09 13:11:55 GMT 51.376537 8.147964 34,000 303 421 0
2019-08-09 13:11:52 GMT 51.374268 8.153711 34,000 302 420 -64
2019-08-09 13:11:49 GMT 51.370834 8.162396 34,000 303 421 -64
2019-08-09 13:11:46 GMT 51.368591 8.168186 34,000 302 420 -64
2019-08-09 13:11:43 GMT 51.365112 8.177169 34,000 302 420 0
2019-08-09 13:11:40 GMT 51.361595 8.186111 34,000 302 420 -64
2019-08-09 13:11:37 GMT 51.358662 8.193741 34,000 302 420 64
2019-08-09 13:11:34 GMT 51.355965 8.200607 34,000 302 420 0
2019-08-09 13:11:31 GMT 51.352203 8.210350 34,000 302 420 64
2019-08-09 13:11:28 GMT 51.349491 8.217163 34,000 303 420 64
2019-08-09 13:11:24 GMT 51.344929 8.228683 34,000 303 421 64
2019-08-09 13:11:21 GMT 51.339157 8.243408 34,000 303 420 64
2019-08-09 13:11:18 GMT 51.339157 8.243408 34,000 303 421 64
2019-08-09 13:11:12 GMT 51.332409 8.260422 34,000 302 420 64
2019-08-09 13:11:09 GMT 51.330139 8.266173 34,000 302 420 0
2019-08-09 13:11:06 GMT 51.326614 8.275155 34,000 302 420 64
2019-08-09 13:11:03 GMT 51.322540 8.285621 34,000 302 420 64
2019-08-09 13:11:00 GMT 51.319519 8.293267 34,000 303 421 0
2019-08-09 13:10:57 GMT 51.317371 8.298798 34,000 303 420 -64
2019-08-09 13:10:54 GMT 51.313568 8.308485 34,000 303 420 -64
2019-08-09 13:10:49 GMT 51.308201 8.322144 34,000 303 420 -64
2019-08-09 13:10:46 GMT 51.305500 8.328934 34,000 303 419 -64
2019-08-09 13:10:42 GMT 51.301868 8.338089 34,000 303 418 -64
2019-08-09 13:10:39 GMT 51.298798 8.345947 34,000 303 420 0
2019-08-09 13:10:36 GMT 51.295898 8.353247 34,000 303 419 0
2019-08-09 13:10:32 GMT 51.291733 8.363713 34,000 303 420 0
2019-08-09 13:10:29 GMT 51.287888 8.373438 34,000 303 420 0
2019-08-09 13:10:26 GMT 51.284180 8.382791 34,000 303 420 0
2019-08-09 13:10:23 GMT 51.282120 8.388062 34,000 303 420 0
2019-08-09 13:10:20 GMT 51.278313 8.397751 34,000 303 419 0
2019-08-09 13:10:16 GMT 51.275024 8.406100 34,000 303 419 0
2019-08-09 13:10:13 GMT 51.271820 8.414191 34,000 302 419 -64
2019-08-09 13:10:10 GMT 51.269470 8.420181 34,000 303 419 -64
2019-08-09 13:10:07 GMT 51.265743 8.429642 34,000 302 419 -64
2019-08-09 13:10:04 GMT 51.262711 8.437500 34,000 302 419 -64
2019-08-09 13:10:01 GMT 51.256947 8.452148 34,000 303 418 64
2019-08-09 13:09:55 GMT 51.252960 8.462293 34,000 303 418 64
2019-08-09 13:09:52 GMT 51.250900 8.467490 34,000 303 419 -64
2019-08-09 13:09:49 GMT 51.246231 8.479218 34,000 303 419 0
2019-08-09 13:09:45 GMT 51.243759 8.485454 34,000 303 419 0
2019-08-09 13:09:42 GMT 51.240555 8.493545 34,000 303 419 0
2019-08-09 13:09:39 GMT 51.235886 8.505274 34,000 303 419 -64
2019-08-09 13:09:36 GMT 51.233185 8.512029 34,000 303 418 -64
2019-08-09 13:09:33 GMT 51.230988 8.517448 34,000 303 418 -64
2019-08-09 13:09:30 GMT 51.227898 8.525238 34,000 303 418 -64
2019-08-09 13:09:27 GMT 51.224579 8.533630 34,025 303 418 0
2019-08-09 13:09:23 GMT 51.220356 8.544235 34,025 303 418 0
2019-08-09 13:09:20 GMT 51.217655 8.551025 34,000 303 418 64
2019-08-09 13:09:17 GMT 51.214417 8.559018 34,000 303 418 64
2019-08-09 13:09:14 GMT 51.210800 8.568074 34,000 303 418 0
2019-08-09 13:09:11 GMT 51.207779 8.575646 34,000 303 418 0
2019-08-09 13:09:04 GMT 51.201176 8.592224 34,000 303 417 0
2019-08-09 13:09:01 GMT 51.196522 8.603897 34,000 303 416 0
2019-08-09 13:08:58 GMT 51.194382 8.609314 34,000 303 417 0
2019-08-09 13:08:55 GMT 51.190796 8.618477 34,000 303 417 -64
2019-08-09 13:08:52 GMT 51.187500 8.626717 34,000 303 417 -64
2019-08-09 13:08:49 GMT 51.185444 8.631973 34,000 303 417 -64
2019-08-09 13:08:46 GMT 51.182278 8.639984 34,000 303 417 0
2019-08-09 13:08:43 GMT 51.179203 8.647766 34,000 303 416 0
2019-08-09 13:08:40 GMT 51.175003 8.658414 34,000 303 417 0
2019-08-09 13:08:37 GMT 51.173244 8.662796 34,000 303 416 0
2019-08-09 13:08:34 GMT 51.166542 8.679581 34,000 303 417 -64
2019-08-09 13:08:28 GMT 51.158707 8.699242 34,000 303 416 -64
2019-08-09 13:08:24 GMT 51.158707 8.699242 34,000 303 416 -64
2019-08-09 13:08:21 GMT 51.156738 8.704141 34,000 303 417 -64
2019-08-09 13:08:18 GMT 51.153740 8.711624 34,000 303 416 -64
2019-08-09 13:08:15 GMT 51.150017 8.720932 34,000 303 416 -64
2019-08-09 13:08:12 GMT 51.147125 8.728118 34,000 303 416 64
2019-08-09 13:08:08 GMT 51.142914 8.738733 34,000 303 416 64
2019-08-09 13:08:05 GMT 51.139030 8.748550 34,000 303 416 0
2019-08-09 13:08:02 GMT 51.136330 8.755264 34,000 303 416 0
2019-08-09 13:07:58 GMT 51.131699 8.766793 34,000 303 416 0
2019-08-09 13:07:55 GMT 51.129181 8.773028 34,000 303 416 0
2019-08-09 13:07:52 GMT 51.126480 8.779709 34,000 303 416 -64
2019-08-09 13:07:49 GMT 51.123367 8.787355 34,000 303 415 0
2019-08-09 13:07:46 GMT 51.120483 8.794556 34,000 303 415 0
2019-08-09 13:07:43 GMT 51.114395 8.809773 34,000 303 415 64
2019-08-09 13:07:37 GMT 51.110073 8.820572 34,000 303 415 64
2019-08-09 13:07:33 GMT 51.107002 8.828278 34,000 303 415 64
2019-08-09 13:07:30 GMT 51.103821 8.836274 34,000 303 415 0
2019-08-09 13:07:27 GMT 51.100857 8.843765 34,000 303 415 0
2019-08-09 13:07:23 GMT 51.097038 8.853302 34,000 303 415 -64
2019-08-09 13:07:20 GMT 51.093967 8.861008 34,000 303 415 0
2019-08-09 13:07:17 GMT 51.089447 8.872277 34,000 303 415 0
2019-08-09 13:07:12 GMT 51.085327 8.882595 34,000 303 415 -64
2019-08-09 13:07:09 GMT 51.081909 8.891068 34,000 303 413 64
2019-08-09 13:07:06 GMT 51.079651 8.896699 34,000 303 415 -64
2019-08-09 13:07:03 GMT 51.076466 8.904648 34,000 303 415 -64
2019-08-09 13:07:00 GMT 51.072876 8.913624 34,000 303 415 -64
2019-08-09 13:06:57 GMT 51.069580 8.921789 34,000 303 415 0
2019-08-09 13:06:54 GMT 51.066689 8.928986 34,000 303 414 0
2019-08-09 13:06:51 GMT 51.064453 8.934631 34,000 303 414 64
2019-08-09 13:06:48 GMT 51.060516 8.944356 34,000 303 414 64
2019-08-09 13:06:45 GMT 51.058182 8.950220 34,000 303 414 0
2019-08-09 13:06:42 GMT 51.054955 8.958130 34,000 303 414 -64
2019-08-09 13:06:39 GMT 51.051464 8.966827 34,000 303 414 0
2019-08-09 13:06:36 GMT 51.044807 8.983078 34,000 304 414 0
2019-08-09 13:06:33 GMT 51.040924 8.992532 34,000 303 414 0
2019-08-09 13:06:26 GMT 51.037720 9.000401 34,000 303 413 64
2019-08-09 13:06:23 GMT 51.034653 9.008047 34,000 303 414 0
2019-08-09 13:06:20 GMT 51.031216 9.016495 34,000 303 414 0
2019-08-09 13:06:17 GMT 51.028748 9.022596 34,000 304 412 0
2019-08-09 13:06:14 GMT 51.025162 9.031525 34,000 303 413 0
2019-08-09 13:06:10 GMT 51.018368 9.048386 34,000 303 413 -64
2019-08-09 13:06:07 GMT 51.018368 9.048386 34,000 303 413 0
2019-08-09 13:06:04 GMT 51.015293 9.056015 34,000 304 412 0
2019-08-09 13:06:01 GMT 51.011307 9.065948 34,000 303 412 0
2019-08-09 13:05:58 GMT 51.005951 9.079161 34,000 303 413 0
2019-08-09 13:05:52 GMT 51.001923 9.089108 34,000 304 412 0
2019-08-09 13:05:48 GMT 50.997803 9.099204 34,000 303 412 0
2019-08-09 13:05:45 GMT 50.990524 9.116945 34,000 303 412 0
2019-08-09 13:05:40 GMT 50.990524 9.116945 34,000 304 412 0
2019-08-09 13:05:36 GMT 50.986176 9.127560 34,000 303 412 0
2019-08-09 13:05:33 GMT 50.982651 9.136171 34,000 303 412 0
2019-08-09 13:05:29 GMT 50.975647 9.153393 34,000 303 412 0
2019-08-09 13:05:25 GMT 50.975647 9.153393 34,000 303 412 0
2019-08-09 13:05:22 GMT 50.971756 9.163043 34,000 303 412 -64
2019-08-09 13:05:19 GMT 50.969055 9.169650 34,000 303 411 0
2019-08-09 13:05:15 GMT 50.960815 9.189915 34,000 303 411 0
2019-08-09 13:05:12 GMT 50.960815 9.189915 34,000 303 411 0
2019-08-09 13:05:09 GMT 50.957943 9.197006 34,000 303 411 0
2019-08-09 13:05:06 GMT 50.954868 9.204559 34,000 303 412 0
2019-08-09 13:05:03 GMT 50.949471 9.217682 34,000 304 411 -64
2019-08-09 13:04:57 GMT 50.945984 9.226289 34,000 303 411 0
2019-08-09 13:04:54 GMT 50.941864 9.236384 34,000 303 411 0
2019-08-09 13:04:51 GMT 50.940113 9.240646 34,000 303 411 0
2019-08-09 13:04:48 GMT 50.933395 9.257095 34,000 304 411 -64
2019-08-09 13:04:45 GMT 50.933395 9.257095 34,000 303 411 64
2019-08-09 13:04:42 GMT 50.929825 9.265929 34,000 304 411 0
2019-08-09 13:04:39 GMT 50.928242 9.269714 34,000 304 411 -64
2019-08-09 13:04:36 GMT 50.924835 9.278028 34,000 304 411 -64
2019-08-09 13:04:33 GMT 50.921211 9.286804 34,000 304 411 -64
2019-08-09 13:04:30 GMT 50.918198 9.294137 34,000 304 411 0
2019-08-09 13:04:26 GMT 50.914215 9.303713 33,975 303 411 -64
2019-08-09 13:04:23 GMT 50.910225 9.313507 33,975 303 410 -64
2019-08-09 13:04:20 GMT 50.907524 9.320068 34,000 303 410 -64
2019-08-09 13:04:15 GMT 50.902592 9.332123 34,000 303 410 -64
2019-08-09 13:04:12 GMT 50.896118 9.348068 34,000 303 410 0
2019-08-09 13:04:04 GMT 50.891605 9.359131 34,000 303 410 128
2019-08-09 13:04:01 GMT 50.888718 9.366150 34,000 303 410 0
2019-08-09 13:03:58 GMT 50.885742 9.373491 34,000 303 410 64
2019-08-09 13:03:53 GMT 50.880432 9.386555 33,975 303 409 0
2019-08-09 13:03:50 GMT 50.877079 9.394836 33,975 303 409 0
2019-08-09 13:03:47 GMT 50.874100 9.402161 33,975 303 410 -64
2019-08-09 13:03:42 GMT 50.868004 9.417267 34,000 303 409 -128
2019-08-09 13:03:39 GMT 50.866058 9.422113 33,975 303 409 64
2019-08-09 13:03:36 GMT 50.862991 9.429610 34,000 303 409 64
2019-08-09 13:03:33 GMT 50.858963 9.439706 34,000 303 409 0
2019-08-09 13:03:30 GMT 50.857040 9.444456 34,000 303 409 64
2019-08-09 13:03:27 GMT 50.849663 9.462585 34,000 304 408 0
2019-08-09 13:03:23 GMT 50.849663 9.462585 34,000 303 408 64
2019-08-09 13:03:20 GMT 50.846695 9.469844 34,000 303 409 0
2019-08-09 13:03:17 GMT 50.843239 9.478378 34,000 303 408 64
2019-08-09 13:03:14 GMT 50.840073 9.486160 34,000 303 409 0
2019-08-09 13:03:11 GMT 50.836487 9.494934 34,000 303 409 -64
2019-08-09 13:03:05 GMT 50.831726 9.506737 34,000 303 409 -64
2019-08-09 13:03:02 GMT 50.827286 9.517798 34,000 303 409 -64
2019-08-09 13:02:59 GMT 50.821152 9.532867 34,000 303 408 -64
2019-08-09 13:02:56 GMT 50.821152 9.532867 34,000 304 409 0
2019-08-09 13:02:53 GMT 50.818192 9.540100 34,000 304 408 64
2019-08-09 13:02:50 GMT 50.815796 9.545783 34,000 304 409 0
2019-08-09 13:02:47 GMT 50.812729 9.552983 34,000 305 409 0
2019-08-09 13:02:44 GMT 50.809204 9.561149 34,000 305 409 -128
2019-08-09 13:02:41 GMT 50.803253 9.574956 34,000 305 409 -64
2019-08-09 13:02:38 GMT 50.799683 9.583047 34,000 305 409 -64
2019-08-09 13:02:35 GMT 50.799683 9.583047 34,000 305 409 -64
2019-08-09 13:02:32 GMT 50.795708 9.592361 34,000 305 409 -64
2019-08-09 13:02:28 GMT 50.791611 9.601440 34,000 305 409 128
2019-08-09 13:02:24 GMT 50.787964 9.609771 34,000 305 409 128
2019-08-09 13:02:20 GMT 50.784485 9.617565 34,000 306 411 0
2019-08-09 13:02:17 GMT 50.779739 9.628372 34,000 305 410 128
2019-08-09 13:02:14 GMT 50.777115 9.634193 34,000 305 410 192
2019-08-09 13:02:11 GMT 50.773453 9.642581 33,975 305 410 0
2019-08-09 13:02:08 GMT 50.769871 9.650650 33,975 305 410 -64
2019-08-09 13:02:04 GMT 50.762604 9.667078 34,000 305 410 -64
2019-08-09 13:02:01 GMT 50.762604 9.667078 34,000 305 410 -64
2019-08-09 13:01:58 GMT 50.759678 9.673691 34,000 305 410 0
2019-08-09 13:01:55 GMT 50.756977 9.679794 34,000 305 410 -64
2019-08-09 13:01:51 GMT 50.752167 9.690535 34,000 306 410 0
2019-08-09 13:01:48 GMT 50.748276 9.699369 34,000 306 410 -64
2019-08-09 13:01:45 GMT 50.745758 9.704971 34,000 306 410 -64
2019-08-09 13:01:42 GMT 50.742828 9.711617 34,000 305 410 0
2019-08-09 13:01:39 GMT 50.738388 9.721638 34,000 305 410 0
2019-08-09 13:01:36 GMT 50.734818 9.729730 34,000 305 410 -64
2019-08-09 13:01:32 GMT 50.731018 9.738266 34,000 305 410 0
2019-08-09 13:01:29 GMT 50.727879 9.745407 34,000 305 410 -64
2019-08-09 13:01:26 GMT 50.724289 9.753484 34,000 306 411 0
2019-08-09 13:01:23 GMT 50.722759 9.756927 34,000 305 410 0
2019-08-09 13:01:20 GMT 50.718750 9.765955 34,000 305 410 0
2019-08-09 13:01:17 GMT 50.711243 9.782880 34,000 306 411 0
2019-08-09 13:01:14 GMT 50.711243 9.782880 34,000 306 411 0
2019-08-09 13:01:10 GMT 50.707855 9.790451 34,000 305 410 0
2019-08-09 13:01:06 GMT 50.703533 9.800262 34,000 305 410 0
2019-08-09 13:01:03 GMT 50.695770 9.817917 34,000 306 411 -128
2019-08-09 13:00:59 GMT 50.695770 9.817917 34,000 306 411 0
2019-08-09 13:00:56 GMT 50.687027 9.837218 34,000 306 411 -64
2019-08-09 13:00:52 GMT 50.687027 9.837218 34,000 306 411 0
2019-08-09 13:00:48 GMT 50.680206 9.852287 34,000 306 411 64
2019-08-09 13:00:45 GMT 50.680206 9.852287 34,000 306 411 0
2019-08-09 13:00:42 GMT 50.677464 9.858398 34,000 306 411 -128
2019-08-09 13:00:39 GMT 50.674297 9.865494 34,000 306 411 0
2019-08-09 13:00:36 GMT 50.670853 9.873369 34,000 305 411 0
2019-08-09 13:00:32 GMT 50.665329 9.885816 34,000 306 410 64
2019-08-09 13:00:28 GMT 50.660706 9.896080 34,000 306 411 0
2019-08-09 13:00:25 GMT 50.658657 9.900760 34,000 306 411 0
2019-08-09 13:00:22 GMT 50.655579 9.907572 34,000 306 411 64
2019-08-09 13:00:19 GMT 50.648209 9.924268 34,000 306 411 0
2019-08-09 13:00:16 GMT 50.648209 9.924268 34,000 306 411 0
2019-08-09 13:00:13 GMT 50.645462 9.930340 34,000 306 411 0
2019-08-09 13:00:10 GMT 50.642223 9.937728 34,000 305 412 -64
2019-08-09 13:00:07 GMT 50.639244 9.944334 34,000 305 412 0
2019-08-09 13:00:04 GMT 50.635666 9.952385 34,000 305 412 0
2019-08-09 13:00:01 GMT 50.632507 9.959468 34,000 306 412 0
2019-08-09 12:59:58 GMT 50.629982 9.965119 34,000 306 411 0
2019-08-09 12:59:54 GMT 50.625187 9.975883 34,000 306 412 0
2019-08-09 12:59:51 GMT 50.622208 9.982490 34,000 306 412 0
2019-08-09 12:59:48 GMT 50.618252 9.991323 34,000 306 413 0
2019-08-09 12:59:45 GMT 50.615643 9.997187 34,000 306 412 -64
2019-08-09 12:59:42 GMT 50.611454 10.006541 34,000 306 412 0
2019-08-09 12:59:39 GMT 50.607311 10.015894 34,000 305 413 -64
2019-08-09 12:59:36 GMT 50.604630 10.022061 34,000 305 413 0
2019-08-09 12:59:32 GMT 50.600922 10.030373 34,000 305 413 -64
2019-08-09 12:59:29 GMT 50.594463 10.044919 34,000 306 413 0
2019-08-09 12:59:23 GMT 50.587326 10.060875 34,000 306 413 0
2019-08-09 12:59:19 GMT 50.587326 10.060875 34,000 306 413 0
2019-08-09 12:59:16 GMT 50.582592 10.071419 34,000 306 413 64
2019-08-09 12:59:13 GMT 50.579315 10.078727 34,000 306 413 0
2019-08-09 12:59:10 GMT 50.576447 10.085078 34,000 306 413 0
2019-08-09 12:59:05 GMT 50.570347 10.098514 34,000 306 413 64
2019-08-09 12:59:02 GMT 50.567734 10.104386 34,000 306 413 64
2019-08-09 12:58:58 GMT 50.564201 10.112247 34,000 306 413 128
2019-08-09 12:58:55 GMT 50.555695 10.131129 34,000 306 413 64
2019-08-09 12:58:52 GMT 50.555695 10.131129 34,000 306 413 0
2019-08-09 12:58:49 GMT 50.553268 10.136478 34,000 306 413 0
2019-08-09 12:58:46 GMT 50.550468 10.142608 34,000 306 414 0
2019-08-09 12:58:43 GMT 50.546932 10.150402 34,000 306 413 -64
2019-08-09 12:58:39 GMT 50.542694 10.159679 34,000 306 414 -64
2019-08-09 12:58:36 GMT 50.538895 10.167991 34,000 306 413 64
2019-08-09 12:58:32 GMT 50.534595 10.177497 34,000 306 413 64
2019-08-09 12:58:29 GMT 50.531296 10.184832 34,000 306 412 0
2019-08-09 12:58:26 GMT 50.524246 10.200517 34,000 306 413 0
2019-08-09 12:58:23 GMT 50.524246 10.200517 34,000 306 413 0
2019-08-09 12:58:20 GMT 50.520493 10.208829 34,000 306 413 -64
2019-08-09 12:58:17 GMT 50.517975 10.214464 34,000 306 413 0
2019-08-09 12:58:13 GMT 50.513214 10.224947 34,000 306 413 64
2019-08-09 12:58:10 GMT 50.510155 10.231835 34,000 306 413 0
2019-08-09 12:58:07 GMT 50.506943 10.238887 34,000 306 413 0
2019-08-09 12:58:03 GMT 50.501404 10.251111 34,000 306 413 0
2019-08-09 12:58:00 GMT 50.498329 10.257964 34,000 306 413 -64
2019-08-09 12:57:57 GMT 50.495865 10.263309 34,000 306 413 0
2019-08-09 12:57:54 GMT 50.493210 10.269173 34,000 306 413 0
2019-08-09 12:57:51 GMT 50.489914 10.276554 34,000 306 413 0
2019-08-09 12:57:48 GMT 50.484924 10.287468 34,000 306 413 0
2019-08-09 12:57:45 GMT 50.481804 10.294338 34,000 306 413 0
2019-08-09 12:57:42 GMT 50.480175 10.297975 34,000 306 413 64
2019-08-09 12:57:39 GMT 50.475754 10.307774 34,000 306 413 64
2019-08-09 12:57:35 GMT 50.471924 10.316307 34,000 306 413 0
2019-08-09 12:57:31 GMT 50.463226 10.335605 34,000 306 413 -64
2019-08-09 12:57:28 GMT 50.463226 10.335605 34,000 306 413 -64
2019-08-09 12:57:24 GMT 50.459244 10.344423 34,000 306 413 -64
2019-08-09 12:57:20 GMT 50.454300 10.355337 34,000 306 412 -64
2019-08-09 12:57:16 GMT 50.450058 10.364636 34,000 306 412 64
2019-08-09 12:57:12 GMT 50.446518 10.372356 34,000 306 412 0
2019-08-09 12:57:09 GMT 50.442421 10.381412 34,000 306 412 0
2019-08-09 12:57:05 GMT 50.438141 10.390898 34,000 306 412 0
2019-08-09 12:56:59 GMT 50.432365 10.403533 34,000 306 412 0
2019-08-09 12:56:56 GMT 50.428940 10.410991 34,000 306 412 0
2019-08-09 12:56:53 GMT 50.423943 10.421943 34,000 306 412 0
2019-08-09 12:56:49 GMT 50.420731 10.428995 34,000 306 412 0
2019-08-09 12:56:46 GMT 50.417889 10.435304 34,000 306 412 0
2019-08-09 12:56:42 GMT 50.413326 10.445251 34,000 306 412 0
2019-08-09 12:56:39 GMT 50.409348 10.453997 34,000 306 413 0
2019-08-09 12:56:35 GMT 50.404724 10.464261 34,000 306 412 0
2019-08-09 12:56:32 GMT 50.402527 10.469103 34,000 306 412 0
2019-08-09 12:56:28 GMT 50.396896 10.481463 34,000 306 412 0
2019-08-09 12:56:25 GMT 50.394699 10.486378 34,000 306 412 0
2019-08-09 12:56:22 GMT 50.390305 10.496063 34,000 306 412 0
2019-08-09 12:56:19 GMT 50.387398 10.502336 34,000 306 412 0
2019-08-09 12:56:16 GMT 50.384537 10.508640 34,000 306 410 0
2019-08-09 12:56:13 GMT 50.381207 10.515920 34,000 306 412 0
2019-08-09 12:56:10 GMT 50.377995 10.522972 34,000 306 412 -64
2019-08-09 12:56:07 GMT 50.374466 10.530685 34,000 306 412 64
2019-08-09 12:56:04 GMT 50.366180 10.548827 34,000 306 412 0
2019-08-09 12:56:00 GMT 50.366180 10.548827 34,000 306 412 64
2019-08-09 12:55:57 GMT 50.363281 10.555115 34,000 306 412 64
2019-08-09 12:55:52 GMT 50.357986 10.566679 34,000 306 411 64
2019-08-09 12:55:49 GMT 50.355183 10.572708 34,000 306 411 -64
2019-08-09 12:55:46 GMT 50.351227 10.581393 34,000 306 411 -64
2019-08-09 12:55:42 GMT 50.345592 10.593715 34,000 306 411 -64
2019-08-09 12:55:39 GMT 50.342941 10.599505 34,000 306 411 -64
2019-08-09 12:55:33 GMT 50.335770 10.615168 34,000 306 410 0
2019-08-09 12:55:30 GMT 50.333633 10.619732 34,000 306 410 0
2019-08-09 12:55:27 GMT 50.329441 10.628901 34,000 306 410 0
2019-08-09 12:55:24 GMT 50.327671 10.632761 34,000 306 410 0
2019-08-09 12:55:21 GMT 50.322456 10.644045 34,000 306 410 0
2019-08-09 12:55:18 GMT 50.316925 10.656088 34,000 306 410 64
2019-08-09 12:55:15 GMT 50.316925 10.656088 34,000 306 410 64
2019-08-09 12:55:11 GMT 50.312218 10.666463 34,000 306 410 0
2019-08-09 12:55:05 GMT 50.301369 10.689994 34,000 306 410 64
2019-08-09 12:55:02 GMT 50.301369 10.689994 34,000 306 411 -64
2019-08-09 12:54:59 GMT 50.299133 10.694819 34,000 306 410 64
2019-08-09 12:54:56 GMT 50.295822 10.702057 34,000 306 410 64
2019-08-09 12:54:53 GMT 50.292057 10.710185 34,000 306 410 0
2019-08-09 12:54:50 GMT 50.288727 10.717380 34,000 306 410 64
2019-08-09 12:54:47 GMT 50.281998 10.732052 34,000 306 410 64
2019-08-09 12:54:44 GMT 50.281998 10.732052 34,000 306 410 64
2019-08-09 12:54:41 GMT 50.279114 10.738341 34,000 306 411 0
2019-08-09 12:54:38 GMT 50.275578 10.745965 34,000 306 411 0
2019-08-09 12:54:35 GMT 50.272705 10.752218 34,000 306 410 0
2019-08-09 12:54:32 GMT 50.269501 10.759229 33,975 306 410 0
2019-08-09 12:54:28 GMT 50.265381 10.768119 34,000 306 410 128
2019-08-09 12:54:24 GMT 50.260437 10.778889 33,975 306 410 0
2019-08-09 12:54:21 GMT 50.258011 10.784238 33,975 306 411 0
2019-08-09 12:54:18 GMT 50.253799 10.793345 34,000 306 410 -64
2019-08-09 12:54:14 GMT 50.248398 10.805126 34,000 306 410 -128
2019-08-09 12:54:10 GMT 50.245087 10.812328 34,000 306 410 -64
2019-08-09 12:54:07 GMT 50.241222 10.820717 34,000 306 410 -128
2019-08-09 12:54:04 GMT 50.238556 10.826448 34,000 306 409 0
2019-08-09 12:54:01 GMT 50.234009 10.836305 34,000 306 410 0
2019-08-09 12:53:57 GMT 50.230865 10.843000 34,000 306 410 -64
2019-08-09 12:53:54 GMT 50.227535 10.850187 34,000 306 410 0
2019-08-09 12:53:51 GMT 50.223999 10.857817 34,000 306 409 0
2019-08-09 12:53:48 GMT 50.217014 10.872902 34,000 306 409 0
2019-08-09 12:53:45 GMT 50.217014 10.872902 34,000 306 409 0
2019-08-09 12:53:42 GMT 50.214363 10.878692 34,000 306 409 0
2019-08-09 12:53:39 GMT 50.210724 10.886584 34,000 306 410 0
2019-08-09 12:53:36 GMT 50.207291 10.893956 34,000 306 409 64
2019-08-09 12:53:32 GMT 50.203629 10.901907 34,000 306 409 64
2019-08-09 12:53:29 GMT 50.199188 10.911448 34,000 306 410 0
2019-08-09 12:53:25 GMT 50.195206 10.920049 34,000 306 410 0
2019-08-09 12:53:22 GMT 50.188435 10.934588 34,000 306 409 0
2019-08-09 12:53:19 GMT 50.188435 10.934588 34,000 306 409 0
2019-08-09 12:53:16 GMT 50.185089 10.941732 34,000 306 409 0
2019-08-09 12:53:13 GMT 50.181774 10.948915 34,000 306 409 0
2019-08-09 12:53:10 GMT 50.178589 10.955827 34,000 306 409 0
2019-08-09 12:53:06 GMT 50.173462 10.966885 34,000 306 409 64
2019-08-09 12:53:03 GMT 50.170139 10.974006 34,000 306 409 64
2019-08-09 12:52:59 GMT 50.167160 10.980464 34,000 306 409 0
2019-08-09 12:52:56 GMT 50.162613 10.990231 34,000 306 409 0
2019-08-09 12:52:53 GMT 50.160187 10.995507 34,000 306 409 0
2019-08-09 12:52:50 GMT 50.155891 11.004812 34,000 307 409 -64
2019-08-09 12:52:44 GMT 50.149422 11.018693 34,000 306 410 0
2019-08-09 12:52:38 GMT 50.143616 11.031069 34,000 306 410 0
2019-08-09 12:52:34 GMT 50.135502 11.048460 34,000 307 409 0
2019-08-09 12:52:27 GMT 50.130524 11.059185 34,000 306 409 0
2019-08-09 12:52:23 GMT 50.125961 11.068948 34,000 306 410 -64
2019-08-09 12:52:16 GMT 50.117722 11.086541 34,000 307 409 -64
2019-08-09 12:52:13 GMT 50.114044 11.094410 34,000 306 410 0
2019-08-09 12:52:10 GMT 50.112041 11.098715 34,000 306 409 0
2019-08-09 12:52:07 GMT 50.109055 11.105154 34,000 307 409 0
2019-08-09 12:52:04 GMT 50.105385 11.112968 34,000 306 409 0
2019-08-09 12:52:01 GMT 50.102173 11.119871 34,000 307 409 0
2019-08-09 12:51:58 GMT 50.094070 11.137242 34,000 306 408 0
2019-08-09 12:51:54 GMT 50.094070 11.137242 34,000 307 409 -64
2019-08-09 12:51:51 GMT 50.090286 11.145341 34,000 306 408 0
2019-08-09 12:51:47 GMT 50.083923 11.158917 34,000 307 409 0
2019-08-09 12:51:41 GMT 50.079163 11.169120 34,000 307 409 0
2019-08-09 12:51:37 GMT 50.075409 11.177216 34,000 307 409 64
2019-08-09 12:51:33 GMT 50.070843 11.186903 34,000 307 409 64
2019-08-09 12:51:30 GMT 50.067490 11.194056 34,000 307 409 0
2019-08-09 12:51:27 GMT 50.064606 11.200200 34,000 307 409 0
2019-08-09 12:51:24 GMT 50.060928 11.208059 34,000 307 409 0
2019-08-09 12:51:20 GMT 50.056271 11.218006 34,000 307 408 0
2019-08-09 12:51:17 GMT 50.052704 11.225642 33,975 307 409 0
2019-08-09 12:51:14 GMT 50.049911 11.231569 34,000 307 409 0
2019-08-09 12:51:11 GMT 50.042027 11.248367 34,000 307 409 0
2019-08-09 12:51:07 GMT 50.042027 11.248367 34,000 307 408 0
2019-08-09 12:51:04 GMT 50.038651 11.255421 34,000 307 409 0
2019-08-09 12:51:01 GMT 50.035324 11.262545 34,000 307 409 0
2019-08-09 12:50:54 GMT 50.026886 11.280574 34,000 307 409 0
2019-08-09 12:50:50 GMT 50.020203 11.294813 33,975 307 409 0
2019-08-09 12:50:47 GMT 50.020203 11.294813 34,000 307 409 0
2019-08-09 12:50:44 GMT 50.015945 11.303775 34,000 307 409 -64
2019-08-09 12:50:40 GMT 50.012650 11.310931 34,000 307 409 0
2019-08-09 12:50:37 GMT 50.007298 11.322302 34,000 307 409 0
2019-08-09 12:50:34 GMT 50.003540 11.330374 34,000 307 409 0
2019-08-09 12:50:30 GMT 50.001385 11.334847 34,000 307 409 -64
2019-08-09 12:50:26 GMT 49.991821 11.355165 34,000 307 409 0
2019-08-09 12:50:23 GMT 49.991821 11.355165 34,000 307 409 0
2019-08-09 12:50:20 GMT 49.990028 11.358972 34,000 307 409 0
2019-08-09 12:50:15 GMT 49.983974 11.371666 34,000 307 409 0
2019-08-09 12:50:12 GMT 49.980652 11.378800 34,000 307 409 64
2019-08-09 12:50:08 GMT 49.976295 11.387997 34,000 307 409 0
2019-08-09 12:50:05 GMT 49.972851 11.395346 34,000 307 409 0
2019-08-09 12:50:02 GMT 49.968708 11.404031 34,000 307 409 0
2019-08-09 12:49:58 GMT 49.965225 11.411398 34,000 307 409 64
2019-08-09 12:49:55 GMT 49.960785 11.420794 34,000 307 409 0
2019-08-09 12:49:51 GMT 49.955997 11.430977 34,000 307 409 64
2019-08-09 12:49:48 GMT 49.954323 11.434541 34,000 307 409 64
2019-08-09 12:49:45 GMT 49.950829 11.441815 34,000 307 409 0
2019-08-09 12:49:42 GMT 49.942776 11.458814 34,000 307 409 0
2019-08-09 12:49:39 GMT 49.942776 11.458814 34,000 307 409 0
2019-08-09 12:49:36 GMT 49.939659 11.465421 34,000 307 409 -64
2019-08-09 12:49:33 GMT 49.937611 11.469652 34,000 307 409 -64
2019-08-09 12:49:30 GMT 49.933140 11.479080 34,000 307 409 -64
2019-08-09 12:49:27 GMT 49.931030 11.483604 34,000 307 409 0
2019-08-09 12:49:24 GMT 49.925995 11.494229 34,000 307 409 0
2019-08-09 12:49:18 GMT 49.920757 11.505358 34,000 307 409 0
2019-08-09 12:49:15 GMT 49.917068 11.513094 34,000 307 409 0
2019-08-09 12:49:12 GMT 49.909103 11.529862 34,000 307 409 0
2019-08-09 12:49:08 GMT 49.909103 11.529862 34,000 307 408 -64
2019-08-09 12:49:04 GMT 49.897575 11.554128 34,000 307 409 -64
2019-08-09 12:48:58 GMT 49.897575 11.554128 34,000 307 409 -64
2019-08-09 12:48:53 GMT 49.889191 11.571856 34,000 307 409 -64
2019-08-09 12:48:50 GMT 49.889191 11.571856 34,000 307 409 0
2019-08-09 12:48:47 GMT 49.885845 11.578922 34,000 307 409 0
2019-08-09 12:48:43 GMT 49.880264 11.590648 34,000 307 409 0
2019-08-09 12:48:39 GMT 49.877232 11.597034 34,000 307 409 0
2019-08-09 12:48:36 GMT 49.873306 11.605249 34,000 307 409 0
2019-08-09 12:48:33 GMT 49.869270 11.613737 34,000 307 409 0
2019-08-09 12:48:30 GMT 49.867126 11.618187 34,000 307 409 0
2019-08-09 12:48:27 GMT 49.863220 11.626356 34,000 307 409 0
2019-08-09 12:48:24 GMT 49.855591 11.642400 34,000 307 406 -64
2019-08-09 12:48:20 GMT 49.855591 11.642400 34,000 307 408 64
2019-08-09 12:48:17 GMT 49.848221 11.657867 34,000 307 408 0
2019-08-09 12:48:11 GMT 49.844318 11.666144 34,000 307 407 0
2019-08-09 12:48:08 GMT 49.842316 11.670372 34,000 307 408 0
2019-08-09 12:48:05 GMT 49.839066 11.677166 34,000 307 408 0
2019-08-09 12:48:01 GMT 49.833572 11.688658 34,000 307 407 -64
2019-08-09 12:47:58 GMT 49.831470 11.693090 34,000 307 408 0
2019-08-09 12:47:54 GMT 49.826523 11.703403 34,000 307 408 -64
2019-08-09 12:47:51 GMT 49.822720 11.711352 34,000 307 407 0
2019-08-09 12:47:48 GMT 49.819508 11.718181 34,000 307 407 0
2019-08-09 12:47:45 GMT 49.816681 11.724002 34,000 307 407 0
2019-08-09 12:47:42 GMT 49.812801 11.732211 34,000 307 407 -64
2019-08-09 12:47:39 GMT 49.808441 11.741349 34,000 307 407 -64
2019-08-09 12:47:34 GMT 49.804096 11.750472 34,000 307 407 -64
2019-08-09 12:47:31 GMT 49.800751 11.757467 34,000 307 407 -64
2019-08-09 12:47:27 GMT 49.793297 11.773187 34,000 307 406 -64
2019-08-09 12:47:24 GMT 49.793297 11.773187 34,000 307 406 -64
2019-08-09 12:47:21 GMT 49.789528 11.781130 34,000 307 406 -64
2019-08-09 12:47:17 GMT 49.781425 11.798129 34,000 307 406 -64
2019-08-09 12:47:13 GMT 49.777863 11.805605 34,000 307 406 0
2019-08-09 12:47:10 GMT 49.777863 11.805605 34,000 307 406 0
2019-08-09 12:47:07 GMT 49.774166 11.813272 34,000 307 405 0
2019-08-09 12:47:03 GMT 49.768486 11.825075 34,000 307 405 64
2019-08-09 12:46:59 GMT 49.765686 11.830830 34,000 307 406 0
2019-08-09 12:46:56 GMT 49.762108 11.838288 34,000 307 405 0
2019-08-09 12:46:53 GMT 49.755684 11.851724 34,000 307 405 0
2019-08-09 12:46:46 GMT 49.750351 11.862921 34,000 307 405 0
2019-08-09 12:46:40 GMT 49.744556 11.874959 34,000 307 404 0
2019-08-09 12:46:36 GMT 49.739456 11.885617 34,000 307 403 0
2019-08-09 12:46:29 GMT 49.732174 11.900643 34,000 307 404 0
2019-08-09 12:46:26 GMT 49.728058 11.909252 34,000 307 404 -64
2019-08-09 12:46:21 GMT 49.723068 11.919588 34,000 307 404 0
2019-08-09 12:46:18 GMT 49.719467 11.926995 34,000 307 403 -64
2019-08-09 12:46:15 GMT 49.716022 11.934122 34,000 307 404 -64
2019-08-09 12:46:11 GMT 49.707001 11.952836 34,000 307 403 0
2019-08-09 12:46:07 GMT 49.707001 11.952836 34,000 307 403 128
2019-08-09 12:46:04 GMT 49.704300 11.958329 34,000 308 403 64
2019-08-09 12:46:01 GMT 49.700378 11.966338 34,000 308 403 192
2019-08-09 12:45:58 GMT 49.696243 11.974809 33,975 308 403 64
2019-08-09 12:45:54 GMT 49.692856 11.981747 33,975 308 403 -64
2019-08-09 12:45:51 GMT 49.685390 11.996773 33,975 308 403 -64
2019-08-09 12:45:45 GMT 49.682365 12.002935 34,000 308 403 -64
2019-08-09 12:45:42 GMT 49.677933 12.011815 34,000 308 403 -64
2019-08-09 12:45:39 GMT 49.676193 12.015212 34,000 308 403 -64
2019-08-09 12:45:36 GMT 49.667862 12.031692 34,000 309 403 0
2019-08-09 12:45:33 GMT 49.667862 12.031692 34,000 309 402 0
2019-08-09 12:45:29 GMT 49.664429 12.038486 34,000 309 403 0
2019-08-09 12:45:25 GMT 49.659458 12.048142 34,000 316 403 64
2019-08-09 12:45:22 GMT 49.655960 12.054893 34,000 310 403 -64
2019-08-09 12:45:19 GMT 49.652573 12.061326 34,000 310 403 -64
2019-08-09 12:45:15 GMT 49.647308 12.071302 34,000 310 403 0
2019-08-09 12:45:11 GMT 49.642189 12.080804 34,000 311 402 0
2019-08-09 12:45:05 GMT 49.635811 12.092384 34,000 316 403 64
2019-08-09 12:45:02 GMT 49.631760 12.099510 34,000 312 403 -64
2019-08-09 12:44:57 GMT 49.625385 12.110348 34,000 313 403 0
2019-08-09 12:44:54 GMT 49.621216 12.117197 34,000 314 403 0
2019-08-09 12:44:50 GMT 49.616364 12.124786 34,000 316 403 64
2019-08-09 12:44:47 GMT 49.613605 12.129055 34,000 316 403 64
2019-08-09 12:44:43 GMT 49.607601 12.138111 34,000 317 404 64
2019-08-09 12:44:40 GMT 49.603546 12.144085 33,975 317 404 64
2019-08-09 12:44:37 GMT 49.599655 12.149867 33,975 317 404 0
2019-08-09 12:44:33 GMT 49.593430 12.158974 33,975 317 404 0
2019-08-09 12:44:29 GMT 49.588982 12.165503 33,975 317 404 0
2019-08-09 12:44:26 GMT 49.585770 12.170328 33,975 317 404 0
2019-08-09 12:44:23 GMT 49.581711 12.176321 33,975 317 403 0
2019-08-09 12:44:20 GMT 49.576080 12.184633 33,975 317 404 64
2019-08-09 12:44:17 GMT 49.571102 12.192003 33,975 317 404 0
2019-08-09 12:44:14 GMT 49.568405 12.196012 33,975 316 403 0
2019-08-09 12:44:11 GMT 49.565613 12.200169 33,975 316 403 0
2019-08-09 12:44:08 GMT 49.559555 12.209208 33,975 316 403 0
2019-08-09 12:44:04 GMT 49.554066 12.217316 33,975 316 403 -64
2019-08-09 12:44:01 GMT 49.550079 12.223374 33,975 316 404 0
2019-08-09 12:43:57 GMT 49.544449 12.231759 33,975 316 404 0
2019-08-09 12:43:54 GMT 49.540970 12.236963 33,975 316 403 -64
2019-08-09 12:43:50 GMT 49.536003 12.244337 33,975 316 403 -64
2019-08-09 12:43:45 GMT 49.529846 12.253514 34,000 316 404 -64
2019-08-09 12:43:41 GMT 49.524879 12.260891 34,000 316 404 -64
2019-08-09 12:43:38 GMT 49.519943 12.268314 34,000 316 404 -64
2019-08-09 12:43:34 GMT 49.515930 12.274258 34,000 316 403 0
2019-08-09 12:43:31 GMT 49.511005 12.281676 34,000 316 403 0
2019-08-09 12:43:28 GMT 49.508072 12.286055 34,000 316 403 0
2019-08-09 12:43:24 GMT 49.502068 12.295112 34,000 316 403 64
2019-08-09 12:43:20 GMT 49.493134 12.308446 34,000 316 403 64
2019-08-09 12:43:14 GMT 49.488327 12.315674 33,975 316 403 64
2019-08-09 12:43:11 GMT 49.484985 12.320661 33,975 316 403 64
2019-08-09 12:43:07 GMT 49.479126 12.329479 33,975 316 403 0
2019-08-09 12:43:04 GMT 49.475647 12.334683 33,975 316 403 0
2019-08-09 12:43:01 GMT 49.471668 12.340616 33,975 316 403 0
2019-08-09 12:42:57 GMT 49.460590 12.357244 33,975 316 403 0
2019-08-09 12:42:53 GMT 49.460590 12.357244 33,975 316 403 0
2019-08-09 12:42:50 GMT 49.457245 12.362221 34,000 316 403 0
2019-08-09 12:42:47 GMT 49.453125 12.368437 34,000 316 403 -64
2019-08-09 12:42:44 GMT 49.448318 12.375593 34,000 316 404 -64
2019-08-09 12:42:41 GMT 49.443783 12.382408 34,000 316 404 0
2019-08-09 12:42:37 GMT 49.439640 12.388644 34,000 316 405 -64
2019-08-09 12:42:33 GMT 49.434055 12.397106 34,000 316 405 -64
2019-08-09 12:42:30 GMT 49.429916 12.403348 34,000 316 405 64
2019-08-09 12:42:27 GMT 49.425629 12.409780 34,000 316 405 -64
2019-08-09 12:42:22 GMT 49.419346 12.419177 34,000 316 405 -64
2019-08-09 12:42:19 GMT 49.414967 12.425826 34,000 316 405 -64
2019-08-09 12:42:16 GMT 49.410824 12.432042 34,000 316 405 -64
2019-08-09 12:42:13 GMT 49.406914 12.437897 34,000 316 405 64
2019-08-09 12:42:10 GMT 49.402908 12.443918 34,000 316 405 64
2019-08-09 12:42:06 GMT 49.394669 12.456383 34,000 316 405 64
2019-08-09 12:41:59 GMT 49.387688 12.466880 34,000 316 405 0
2019-08-09 12:41:55 GMT 49.377029 12.482998 34,000 316 405 0
2019-08-09 12:41:51 GMT 49.377029 12.482998 34,000 316 405 64
2019-08-09 12:41:48 GMT 49.373165 12.488853 34,000 316 406 64
2019-08-09 12:41:45 GMT 49.369446 12.494483 34,000 316 406 0
2019-08-09 12:41:39 GMT 49.361435 12.506596 33,975 316 406 64
2019-08-09 12:41:35 GMT 49.349979 12.523980 33,975 316 406 0
2019-08-09 12:41:31 GMT 49.349979 12.523980 33,975 316 406 0
2019-08-09 12:41:28 GMT 49.346767 12.528823 33,975 316 406 0
2019-08-09 12:41:25 GMT 49.343140 12.534244 33,975 316 406 0
2019-08-09 12:41:22 GMT 49.339828 12.539274 33,975 316 406 -64
2019-08-09 12:41:19 GMT 49.335663 12.545542 33,975 316 406 -64
2019-08-09 12:41:16 GMT 49.331085 12.552373 34,000 316 408 128
2019-08-09 12:41:12 GMT 49.325726 12.560481 34,000 316 408 64
2019-08-09 12:41:09 GMT 49.322376 12.565541 33,975 316 408 64
2019-08-09 12:41:05 GMT 49.315933 12.575261 33,975 316 408 64
2019-08-09 12:41:01 GMT 49.311668 12.581731 33,975 316 412 -64
2019-08-09 12:40:58 GMT 49.306686 12.589276 33,975 316 409 64
2019-08-09 12:40:55 GMT 49.302521 12.595543 33,975 316 410 0
2019-08-09 12:40:52 GMT 49.298492 12.601680 33,975 315 413 64
2019-08-09 12:40:49 GMT 49.295654 12.605966 33,975 316 410 0
2019-08-09 12:40:46 GMT 49.291443 12.612234 33,975 315 414 0
2019-08-09 12:40:43 GMT 49.285599 12.620978 33,975 316 412 -64
2019-08-09 12:40:40 GMT 49.281509 12.627094 33,975 316 412 0
2019-08-09 12:40:35 GMT 49.275219 12.636446 33,975 315 415 0
2019-08-09 12:40:32 GMT 49.270844 12.642940 33,975 316 412 0
2019-08-09 12:40:29 GMT 49.267582 12.647866 33,975 316 412 0
2019-08-09 12:40:25 GMT 49.262554 12.655455 33,975 316 413 0
2019-08-09 12:40:22 GMT 49.258274 12.662105 33,975 315 412 64
2019-08-09 12:40:19 GMT 49.253849 12.668899 33,975 315 413 0
2019-08-09 12:40:14 GMT 49.246216 12.680758 33,975 315 413 64
2019-08-09 12:40:10 GMT 49.242050 12.687237 33,975 315 414 64
2019-08-09 12:40:07 GMT 49.237106 12.694913 33,975 315 414 -64
2019-08-09 12:40:03 GMT 49.228249 12.708652 33,975 315 414 -192
2019-08-09 12:40:00 GMT 49.228249 12.708652 34,000 315 415 -128
2019-08-09 12:39:54 GMT 49.220146 12.721156 34,000 315 415 0
2019-08-09 12:39:51 GMT 49.216515 12.726794 33,975 315 415 64
2019-08-09 12:39:46 GMT 49.210464 12.736183 33,825 315 415 1088
2019-08-09 12:39:43 GMT 49.206692 12.741972 33,975 315 415 448
2019-08-09 12:39:40 GMT 49.201992 12.749345 33,925 315 415 768
2019-08-09 12:39:37 GMT 49.198196 12.755127 33,900 315 420 1280
2019-08-09 12:39:34 GMT 49.192841 12.763437 33,650 315 420 1216
2019-08-09 12:39:30 GMT 49.187943 12.770973 33,600 315 416 1408
2019-08-09 12:39:27 GMT 49.184006 12.776959 33,675 315 417 1408
2019-08-09 12:39:23 GMT 49.173267 12.793435 33,425 315 420 1280
2019-08-09 12:39:20 GMT 49.173267 12.793435 32,900 315 420 1216
2019-08-09 12:39:17 GMT 49.170567 12.797627 33,400 315 418 1408
2019-08-09 12:39:14 GMT 49.166752 12.803481 33,375 315 418 1408
2019-08-09 12:39:10 GMT 49.159927 12.813932 33,325 315 419 1280
2019-08-09 12:39:07 GMT 49.155991 12.819989 33,225 315 419 1280
2019-08-09 12:39:04 GMT 49.153244 12.824214 32,950 315 420 1216
2019-08-09 12:39:00 GMT 49.147797 12.832595 33,100 315 420 1344
2019-08-09 12:38:57 GMT 49.142624 12.840623 33,025 315 420 1216
2019-08-09 12:38:52 GMT 49.135654 12.851330 32,850 315 420 1216
2019-08-09 12:38:46 GMT 49.128571 12.862244 32,800 315 420 1216
2019-08-09 12:38:43 GMT 49.122849 12.871047 32,725 315 420 1216
2019-08-09 12:38:40 GMT 49.120525 12.874603 32,700 315 420 1216
2019-08-09 12:38:34 GMT 49.105255 12.898238 32,550 315 420 1280
2019-08-09 12:38:29 GMT 49.105255 12.898238 32,475 315 422 1664
2019-08-09 12:38:26 GMT 49.099949 12.906406 32,350 315 420 1280
2019-08-09 12:38:18 GMT 49.085938 12.928089 32,100 315 422 1664
2019-08-09 12:38:15 GMT 49.082912 12.932715 32,150 315 420 1472
2019-08-09 12:38:09 GMT 49.074600 12.945557 31,550 315 420 1664
2019-08-09 12:38:02 GMT 49.068012 12.955627 31,675 315 422 1600
2019-08-09 12:37:59 GMT 49.064575 12.960909 31,775 315 422 1600
2019-08-09 12:37:54 GMT 49.056564 12.973093 31,550 316 423 1600
2019-08-09 12:37:50 GMT 49.052418 12.979407 31,475 315 425 -128
2019-08-09 12:37:46 GMT 49.046997 12.987530 31,400 315 426 192
2019-08-09 12:37:42 GMT 49.040634 12.997249 31,025 315 425 1664
2019-08-09 12:37:38 GMT 49.034218 13.006945 31,225 315 425 1600
2019-08-09 12:37:34 GMT 49.028259 13.016052 31,200 315 426 1472
2019-08-09 12:37:31 GMT 49.026031 13.019433 31,075 315 426 1088
2019-08-09 12:37:28 GMT 49.021183 13.026894 31,025 315 426 448
2019-08-09 12:37:25 GMT 49.017178 13.033110 31,025 315 426 192
2019-08-09 12:37:22 GMT 49.011406 13.042072 31,000 315 425 0
2019-08-09 12:37:19 GMT 49.003235 13.054645 31,000 315 426 -128
2019-08-09 12:37:15 GMT 49.003235 13.054645 31,000 315 426 640
2019-08-09 12:37:11 GMT 48.997925 13.062674 31,000 315 426 -64
2019-08-09 12:37:08 GMT 48.993904 13.068816 31,000 315 427 192
2019-08-09 12:37:05 GMT 48.989044 13.076266 31,000 315 426 640
2019-08-09 12:37:01 GMT 48.982635 13.085984 30,925 315 426 1088
2019-08-09 12:36:58 GMT 48.979706 13.090427 30,875 315 425 1088
2019-08-09 12:36:54 GMT 48.974445 13.098522 30,625 315 425 1024
2019-08-09 12:36:50 GMT 48.963596 13.115001 30,000 315 425 1024
2019-08-09 12:36:47 GMT 48.963596 13.115001 30,700 315 425 1088
2019-08-09 12:36:42 GMT 48.958191 13.123310 30,475 315 424 1024
2019-08-09 12:36:39 GMT 48.952972 13.131338 30,575 315 424 1088
2019-08-09 12:36:36 GMT 48.949493 13.136685 30,500 316 427 1024
2019-08-09 12:36:33 GMT 48.945210 13.143190 30,475 315 425 1024
2019-08-09 12:36:30 GMT 48.932144 13.163030 30,225 316 426 1024
2019-08-09 12:36:25 GMT 48.932144 13.163030 30,325 316 426 1024
2019-08-09 12:36:21 GMT 48.927986 13.169355 30,000 316 432 640
2019-08-09 12:36:13 GMT 48.915939 13.187608 30,000 316 430 1024
2019-08-09 12:36:09 GMT 48.909878 13.196748 30,075 316 430 1024
2019-08-09 12:36:02 GMT 48.901428 13.209581 30,000 315 432 0
2019-08-09 12:35:58 GMT 48.894791 13.219651 30,000 315 432 0
2019-08-09 12:35:49 GMT 48.883202 13.237224 30,000 315 432 0
2019-08-09 12:35:45 GMT 48.876965 13.246693 30,000 315 433 0
2019-08-09 12:35:41 GMT 48.871609 13.254860 30,000 315 433 0
2019-08-09 12:35:38 GMT 48.863976 13.266425 30,000 316 433 64
2019-08-09 12:35:32 GMT 48.858856 13.274161 30,000 316 433 0
2019-08-09 12:35:27 GMT 48.851498 13.285290 30,000 315 433 0
2019-08-09 12:35:23 GMT 48.847122 13.291939 30,000 315 433 0
2019-08-09 12:35:19 GMT 48.840363 13.302260 30,000 315 432 0
2019-08-09 12:35:14 GMT 48.834274 13.311486 30,000 315 433 -64
2019-08-09 12:35:09 GMT 48.827339 13.322007 30,000 316 433 -64
2019-08-09 12:35:05 GMT 48.819717 13.333529 30,000 316 433 -64
2019-08-09 12:35:01 GMT 48.816029 13.339065 30,000 315 432 0
2019-08-09 12:34:57 GMT 48.809921 13.348318 30,000 316 433 64
2019-08-09 12:34:53 GMT 48.796616 13.368482 30,000 315 433 64
2019-08-09 12:34:49 GMT 48.796616 13.368482 30,000 315 433 64
2019-08-09 12:34:46 GMT 48.794357 13.371911 30,000 315 433 0
2019-08-09 12:34:43 GMT 48.789677 13.378962 30,000 315 433 0
2019-08-09 12:34:38 GMT 48.778931 13.395292 30,000 315 434 -64
2019-08-09 12:34:32 GMT 48.764191 13.417617 30,000 315 434 0
2019-08-09 12:34:25 GMT 48.764191 13.417617 30,000 315 434 0
2019-08-09 12:34:21 GMT 48.751144 13.437336 30,000 315 434 0
2019-08-09 12:34:16 GMT 48.751144 13.437336 30,000 315 434 0
2019-08-09 12:34:12 GMT 48.746059 13.445025 30,000 315 434 0
2019-08-09 12:34:09 GMT 48.739681 13.454638 30,000 315 434 0
2019-08-09 12:34:05 GMT 48.734699 13.462155 30,000 316 434 0
2019-08-09 12:34:02 GMT 48.731735 13.466633 30,000 316 434 0
2019-08-09 12:33:58 GMT 48.725903 13.475454 30,000 316 434 0
2019-08-09 12:33:52 GMT 48.717911 13.487338 30,000 316 434 0
2019-08-09 12:33:49 GMT 48.713608 13.493746 30,000 316 434 64
2019-08-09 12:33:44 GMT 48.704163 13.507763 30,000 316 434 64
2019-08-09 12:33:41 GMT 48.700012 13.513958 30,000 319 436 0
2019-08-09 12:33:38 GMT 48.696526 13.519038 30,000 316 435 64
2019-08-09 12:33:32 GMT 48.688614 13.530649 29,975 321 437 -64
2019-08-09 12:33:29 GMT 48.683258 13.538466 30,000 317 435 0
2019-08-09 12:33:24 GMT 48.671391 13.555394 29,975 317 436 0
2019-08-09 12:33:20 GMT 48.671391 13.555394 29,975 318 436 64
2019-08-09 12:33:17 GMT 48.666916 13.561566 29,975 318 436 64
2019-08-09 12:33:13 GMT 48.655468 13.576933 29,975 321 437 -64
2019-08-09 12:33:07 GMT 48.651649 13.581920 29,975 320 437 -64
2019-08-09 12:33:02 GMT 48.643570 13.592060 30,000 322 438 -64
2019-08-09 12:32:59 GMT 48.637127 13.599918 30,000 324 438 -64
2019-08-09 12:32:54 GMT 48.631210 13.606920 30,000 323 438 0
2019-08-09 12:32:50 GMT 48.623428 13.615652 30,000 324 439 0
2019-08-09 12:32:47 GMT 48.619492 13.619948 30,000 325 439 -64
2019-08-09 12:32:44 GMT 48.615372 13.624455 30,000 325 440 -64
2019-08-09 12:32:40 GMT 48.601330 13.639526 30,000 325 439 -64
2019-08-09 12:32:36 GMT 48.601330 13.639526 30,000 325 439 -64
2019-08-09 12:32:33 GMT 48.596191 13.645090 30,000 325 439 0
2019-08-09 12:32:30 GMT 48.591042 13.650585 30,000 325 439 0
2019-08-09 12:32:26 GMT 48.583126 13.659114 30,000 325 439 0
2019-08-09 12:32:23 GMT 48.578842 13.663682 30,000 325 439 0
2019-08-09 12:32:20 GMT 48.569229 13.674035 30,000 325 439 0
2019-08-09 12:32:17 GMT 48.561813 13.681993 30,000 325 439 0
2019-08-09 12:32:13 GMT 48.561813 13.681993 30,000 325 439 0
2019-08-09 12:32:10 GMT 48.552216 13.692290 30,000 325 439 0
2019-08-09 12:32:06 GMT 48.545418 13.699590 30,000 325 439 64
2019-08-09 12:32:02 GMT 48.545418 13.699590 30,000 325 440 64
2019-08-09 12:31:59 GMT 48.532333 13.713614 30,000 325 439 0
2019-08-09 12:31:55 GMT 48.532333 13.713614 30,000 325 439 0
2019-08-09 12:31:50 GMT 48.518604 13.728357 29,975 325 440 64
2019-08-09 12:31:46 GMT 48.518604 13.728357 30,000 325 439 64
2019-08-09 12:31:42 GMT 48.511482 13.736018 29,975 325 439 0
2019-08-09 12:31:36 GMT 48.502258 13.745939 29,975 325 439 0
2019-08-09 12:31:32 GMT 48.496120 13.752498 29,975 325 439 0
2019-08-09 12:31:29 GMT 48.486202 13.763123 29,975 325 439 0
2019-08-09 12:31:23 GMT 48.480743 13.768968 29,975 325 439 0
2019-08-09 12:31:18 GMT 48.473099 13.777067 29,975 325 439 0
2019-08-09 12:31:15 GMT 48.467350 13.783288 29,975 325 439 0
2019-08-09 12:31:12 GMT 48.463211 13.787701 29,975 325 439 0
2019-08-09 12:31:09 GMT 48.456085 13.795503 29,975 325 438 0
2019-08-09 12:31:06 GMT 48.452087 13.799532 29,975 325 438 0
2019-08-09 12:31:02 GMT 48.445004 13.807140 29,975 325 438 0
2019-08-09 12:30:59 GMT 48.440208 13.812127 29,975 325 438 0
2019-08-09 12:30:55 GMT 48.432587 13.820590 29,975 325 438 0
2019-08-09 12:30:52 GMT 48.429245 13.823899 29,975 325 438 0
2019-08-09 12:30:49 GMT 48.424477 13.829041 29,975 325 438 0
2019-08-09 12:30:44 GMT 48.416840 13.837136 29,975 325 439 64
2019-08-09 12:30:39 GMT 48.407730 13.846858 29,975 325 439 0
2019-08-09 12:30:35 GMT 48.395508 13.859957 29,975 325 439 0
2019-08-09 12:30:32 GMT 48.395508 13.859957 29,975 325 439 -64
2019-08-09 12:30:27 GMT 48.387726 13.868267 29,975 325 439 -64
2019-08-09 12:30:24 GMT 48.383930 13.872335 29,975 325 439 -64
2019-08-09 12:30:21 GMT 48.379272 13.877250 30,000 325 439 -64
2019-08-09 12:30:18 GMT 48.364883 13.892564 30,000 325 439 -64
2019-08-09 12:30:14 GMT 48.364883 13.892564 30,000 325 439 0
2019-08-09 12:30:10 GMT 48.360744 13.896982 30,000 325 439 0
2019-08-09 12:30:07 GMT 48.348503 13.910065 30,000 325 439 0
2019-08-09 12:30:03 GMT 48.348503 13.910065 30,000 325 439 0
2019-08-09 12:30:00 GMT 48.342358 13.916497 30,000 325 438 -64
2019-08-09 12:29:57 GMT 48.337692 13.921438 30,000 325 439 0
2019-08-09 12:29:53 GMT 48.330917 13.928692 30,000 325 439 -64
2019-08-09 12:29:47 GMT 48.320663 13.939627 30,000 325 439 -64
2019-08-09 12:29:42 GMT 48.312054 13.948734 30,000 325 438 -64
2019-08-09 12:29:39 GMT 48.308075 13.952989 30,000 325 439 0
2019-08-09 12:29:36 GMT 48.302948 13.958412 30,000 325 439 0
2019-08-09 12:29:32 GMT 48.294983 13.966863 30,000 325 439 0
2019-08-09 12:29:29 GMT 48.291988 13.970056 30,000 325 439 0
2019-08-09 12:29:26 GMT 48.286541 13.975838 30,000 325 439 64
2019-08-09 12:29:22 GMT 48.281570 13.981300 30,000 325 439 64
2019-08-09 12:29:18 GMT 48.274796 13.988272 30,000 325 439 64
2019-08-09 12:29:15 GMT 48.267826 13.995642 30,000 325 439 64
2019-08-09 12:29:10 GMT 48.259354 14.004605 30,000 325 439 0
2019-08-09 12:29:05 GMT 48.252548 14.011794 30,000 325 439 -64
2019-08-09 12:29:02 GMT 48.246780 14.017921 30,000 325 439 -64
2019-08-09 12:28:59 GMT 48.240780 14.024265 30,000 325 439 0
2019-08-09 12:28:54 GMT 48.228195 14.037569 30,000 325 439 0
2019-08-09 12:28:50 GMT 48.228195 14.037569 30,000 325 439 0
2019-08-09 12:28:47 GMT 48.221230 14.044936 30,000 325 439 64
2019-08-09 12:28:44 GMT 48.217224 14.049128 30,000 325 440 64
2019-08-09 12:28:40 GMT 48.210754 14.056021 30,000 325 440 64
2019-08-09 12:28:37 GMT 48.206612 14.060404 30,000 325 440 0
2019-08-09 12:28:33 GMT 48.197952 14.069511 30,000 325 440 0
2019-08-09 12:28:29 GMT 48.185486 14.082642 30,000 325 440 0
2019-08-09 12:28:26 GMT 48.185486 14.082642 30,000 325 440 -64
2019-08-09 12:28:23 GMT 48.177517 14.091050 30,000 325 440 -64
2019-08-09 12:28:20 GMT 48.177517 14.091050 30,000 325 440 0
2019-08-09 12:28:17 GMT 48.173721 14.095107 30,000 325 440 -64
2019-08-09 12:28:14 GMT 48.166580 14.102642 30,000 325 440 -64
2019-08-09 12:28:11 GMT 48.162735 14.106657 30,000 325 440 -64
2019-08-09 12:28:07 GMT 48.155731 14.114067 30,000 325 440 -64
2019-08-09 12:28:03 GMT 48.149586 14.120530 30,000 325 440 0
2019-08-09 12:28:00 GMT 48.144104 14.126289 30,000 325 440 -64
2019-08-09 12:27:57 GMT 48.137482 14.133348 30,000 325 440 -64
2019-08-09 12:27:53 GMT 48.132339 14.138786 30,000 325 440 64
2019-08-09 12:27:49 GMT 48.126205 14.145241 30,000 325 440 64
2019-08-09 12:27:45 GMT 48.119202 14.152588 30,000 325 440 0
2019-08-09 12:27:41 GMT 48.111877 14.160278 30,000 325 440 64
2019-08-09 12:27:38 GMT 48.108200 14.164264 30,000 325 440 64
2019-08-09 12:27:35 GMT 48.101715 14.170921 30,000 325 440 64
2019-08-09 12:27:32 GMT 48.097401 14.175462 30,000 325 440 64
2019-08-09 12:27:29 GMT 48.091415 14.181770 29,975 325 440 0
2019-08-09 12:27:25 GMT 48.085419 14.188019 30,000 325 440 0
2019-08-09 12:27:20 GMT 48.075577 14.198318 30,000 325 440 0
2019-08-09 12:27:17 GMT 48.073059 14.200928 30,000 325 440 0
2019-08-09 12:27:13 GMT 48.067234 14.207083 30,000 325 440 0
2019-08-09 12:27:10 GMT 48.060764 14.213914 30,000 325 440 -64
2019-08-09 12:27:07 GMT 48.056435 14.218421 30,000 325 440 0
2019-08-09 12:27:04 GMT 48.045586 14.229760 30,000 325 440 -64
2019-08-09 12:27:01 GMT 48.045586 14.229760 30,000 325 440 0
2019-08-09 12:26:56 GMT 48.036278 14.239549 30,000 325 440 -64
2019-08-09 12:26:53 GMT 48.031265 14.244736 30,000 325 440 -64
2019-08-09 12:26:50 GMT 48.027805 14.248422 30,000 326 441 -64
2019-08-09 12:26:46 GMT 48.020920 14.255516 30,000 325 441 -64
2019-08-09 12:26:43 GMT 48.016911 14.259691 30,000 326 441 0
2019-08-09 12:26:40 GMT 48.011261 14.265610 30,000 326 441 0
2019-08-09 12:26:37 GMT 47.999405 14.278038 30,000 325 441 -64
2019-08-09 12:26:33 GMT 47.999405 14.278038 30,000 325 441 0
2019-08-09 12:26:30 GMT 47.993729 14.283987 30,000 325 441 0
2019-08-09 12:26:25 GMT 47.984371 14.293776 30,000 325 441 0
2019-08-09 12:26:22 GMT 47.981068 14.297227 30,000 325 442 0
2019-08-09 12:26:19 GMT 47.976688 14.301805 30,000 325 441 -64
2019-08-09 12:26:15 GMT 47.969707 14.309129 30,000 325 441 0
2019-08-09 12:26:12 GMT 47.963703 14.315467 30,000 325 441 0
2019-08-09 12:26:09 GMT 47.959511 14.319834 30,000 325 441 0
2019-08-09 12:26:05 GMT 47.950668 14.329059 30,000 325 442 0
2019-08-09 12:26:02 GMT 47.941315 14.338806 30,000 325 442 0
2019-08-09 12:25:59 GMT 47.941315 14.338806 30,000 326 441 0
2019-08-09 12:25:54 GMT 47.933304 14.347159 30,000 326 441 0
2019-08-09 12:25:51 GMT 47.928463 14.352229 30,000 326 441 0
2019-08-09 12:25:48 GMT 47.923946 14.356877 30,000 326 441 0
2019-08-09 12:25:41 GMT 47.911240 14.370117 30,000 326 441 0
2019-08-09 12:25:38 GMT 47.907234 14.374272 30,000 325 440 0
2019-08-09 12:25:31 GMT 47.890045 14.392159 30,000 325 440 0
2019-08-09 12:25:28 GMT 47.890045 14.392159 30,000 325 440 -64
2019-08-09 12:25:21 GMT 47.878326 14.404344 30,000 326 441 -64
2019-08-09 12:25:17 GMT 47.872147 14.410767 30,000 326 441 0
2019-08-09 12:25:09 GMT 47.858963 14.424431 30,000 326 440 0
2019-08-09 12:25:06 GMT 47.855141 14.428359 30,000 326 440 0
2019-08-09 12:25:00 GMT 47.837448 14.446747 30,000 326 440 0
2019-08-09 12:24:56 GMT 47.837448 14.446747 30,000 326 440 -64
2019-08-09 12:24:50 GMT 47.826782 14.457802 30,000 326 440 0
2019-08-09 12:24:47 GMT 47.822296 14.462471 30,000 326 439 0
2019-08-09 12:24:44 GMT 47.818314 14.466591 30,000 326 439 64
2019-08-09 12:24:37 GMT 47.806496 14.478854 30,000 326 439 64
2019-08-09 12:24:34 GMT 47.800644 14.484856 30,000 326 439 64
2019-08-09 12:24:31 GMT 47.794159 14.491601 30,000 326 438 64
2019-08-09 12:24:28 GMT 47.790665 14.495224 30,000 326 438 64
2019-08-09 12:24:24 GMT 47.782837 14.503326 30,000 326 438 0
2019-08-09 12:24:16 GMT 47.770370 14.516249 30,000 326 438 -64
2019-08-09 12:24:13 GMT 47.764389 14.522415 30,000 326 438 0
2019-08-09 12:24:08 GMT 47.758080 14.528926 30,000 326 438 0
2019-08-09 12:24:03 GMT 47.750259 14.537025 30,000 326 438 0
2019-08-09 12:23:59 GMT 47.737976 14.549744 30,000 326 438 0
2019-08-09 12:23:51 GMT 47.723351 14.564843 30,000 326 438 0
2019-08-09 12:23:48 GMT 47.723351 14.564843 30,000 326 438 0
2019-08-09 12:23:44 GMT 47.716370 14.572026 30,000 326 438 0
2019-08-09 12:23:40 GMT 47.709713 14.578928 30,000 326 438 0
2019-08-09 12:23:37 GMT 47.705383 14.583321 30,000 326 438 0
2019-08-09 12:23:31 GMT 47.697048 14.591957 30,000 326 438 64
2019-08-09 12:23:27 GMT 47.685272 14.604070 30,000 326 438 0
2019-08-09 12:23:21 GMT 47.679932 14.609550 30,000 326 439 0
2019-08-09 12:23:18 GMT 47.667938 14.621910 30,000 326 439 -64
2019-08-09 12:23:11 GMT 47.662766 14.627197 30,000 326 439 -64
2019-08-09 12:23:05 GMT 47.650909 14.639351 30,000 326 439 0
2019-08-09 12:23:02 GMT 47.647247 14.643127 30,000 326 438 0
2019-08-09 12:22:57 GMT 47.637791 14.652874 30,000 326 438 0
2019-08-09 12:22:52 GMT 47.631271 14.659607 30,000 326 438 0
2019-08-09 12:22:48 GMT 47.623123 14.667945 30,000 326 438 0
2019-08-09 12:22:45 GMT 47.618980 14.672241 30,000 326 438 0
2019-08-09 12:22:40 GMT 47.612320 14.679108 30,000 326 438 0
2019-08-09 12:22:36 GMT 47.603668 14.687946 30,000 326 438 0
2019-08-09 12:22:33 GMT 47.598171 14.693580 30,000 326 438 0
2019-08-09 12:22:30 GMT 47.593140 14.698746 30,000 326 439 0
2019-08-09 12:22:24 GMT 47.582485 14.709637 30,000 326 439 0
2019-08-09 12:22:19 GMT 47.575829 14.716468 30,000 326 439 0
2019-08-09 12:22:16 GMT 47.569656 14.722778 30,000 326 439 0
2019-08-09 12:22:12 GMT 47.563339 14.729301 30,000 326 439 0
2019-08-09 12:22:09 GMT 47.557663 14.735069 30,000 326 439 0
2019-08-09 12:22:05 GMT 47.553017 14.739849 29,975 326 439 0
2019-08-09 12:22:02 GMT 47.546997 14.745987 29,975 326 439 0
2019-08-09 12:21:58 GMT 47.540821 14.752315 30,000 326 439 -64
2019-08-09 12:21:55 GMT 47.535507 14.757797 30,000 326 439 -64
2019-08-09 12:21:51 GMT 47.528503 14.764938 30,000 326 439 -64
2019-08-09 12:21:48 GMT 47.522827 14.770706 30,000 326 439 0
2019-08-09 12:21:42 GMT 47.514130 14.779564 30,000 326 439 0
2019-08-09 12:21:38 GMT 47.508957 14.784851 30,000 326 439 0
2019-08-09 12:21:35 GMT 47.502274 14.791649 30,000 326 439 0
2019-08-09 12:21:27 GMT 47.487808 14.806480 30,000 326 439 0
2019-08-09 12:21:24 GMT 47.483780 14.810600 30,000 326 438 0
2019-08-09 12:21:17 GMT 47.473320 14.821261 30,000 326 439 -64
2019-08-09 12:21:14 GMT 47.467484 14.827217 30,000 326 438 0
2019-08-09 12:21:09 GMT 47.457321 14.837585 30,000 326 438 0
2019-08-09 12:21:04 GMT 47.451462 14.843559 30,000 326 438 64
2019-08-09 12:21:01 GMT 47.444778 14.850288 30,000 326 438 64
2019-08-09 12:20:58 GMT 47.439289 14.855910 30,000 326 438 64
2019-08-09 12:20:55 GMT 47.434078 14.861192 30,000 326 439 64
2019-08-09 12:20:52 GMT 47.430908 14.864365 30,000 326 439 0
2019-08-09 12:20:49 GMT 47.419052 14.876450 30,000 326 439 0
2019-08-09 12:20:46 GMT 47.419052 14.876450 30,000 326 439 0
2019-08-09 12:20:42 GMT 47.415550 14.879995 30,000 326 439 0
2019-08-09 12:20:38 GMT 47.407215 14.888517 30,000 326 439 0
2019-08-09 12:20:35 GMT 47.401211 14.894644 30,000 326 439 0
2019-08-09 12:20:31 GMT 47.389526 14.906616 30,000 326 439 0
2019-08-09 12:20:28 GMT 47.389526 14.906616 30,000 326 438 0
2019-08-09 12:20:23 GMT 47.381287 14.914856 30,000 326 439 0
2019-08-09 12:20:17 GMT 47.371094 14.925208 30,000 326 438 0
2019-08-09 12:20:10 GMT 47.359726 14.936737 30,000 326 439 0
2019-08-09 12:20:06 GMT 47.353214 14.943378 30,000 326 439 0
2019-08-09 12:20:00 GMT 47.343861 14.952886 30,000 326 439 64
2019-08-09 12:19:56 GMT 47.332314 14.964576 30,000 326 439 0
2019-08-09 12:19:53 GMT 47.332314 14.964576 30,000 326 439 64
2019-08-09 12:19:50 GMT 47.327271 14.969627 30,000 326 439 0
2019-08-09 12:19:47 GMT 47.310528 14.986619 30,000 326 439 0
2019-08-09 12:19:41 GMT 47.310528 14.986619 30,000 326 440 0
2019-08-09 12:19:38 GMT 47.307358 14.989815 30,000 326 440 0
2019-08-09 12:19:31 GMT 47.295956 15.001338 30,000 326 440 0
2019-08-09 12:19:28 GMT 47.289917 15.007462 30,000 326 440 0
2019-08-09 12:19:19 GMT 47.267467 15.030142 30,000 326 440 0
2019-08-09 12:19:11 GMT 47.260578 15.037044 30,000 326 440 0
2019-08-09 12:19:08 GMT 47.256729 15.040970 30,000 326 440 0
2019-08-09 12:19:05 GMT 47.250000 15.047699 30,000 326 440 0
2019-08-09 12:19:01 GMT 47.243446 15.054298 30,000 326 441 0
2019-08-09 12:18:57 GMT 47.239441 15.058382 30,000 326 441 0
2019-08-09 12:18:54 GMT 47.232880 15.065002 30,000 326 440 0
2019-08-09 12:18:49 GMT 47.225151 15.072749 30,000 326 440 0
2019-08-09 12:18:45 GMT 47.218960 15.079017 30,000 326 440 0
2019-08-09 12:18:38 GMT 47.205872 15.092194 30,000 326 440 0
2019-08-09 12:18:34 GMT 47.200523 15.097609 30,000 326 440 0
2019-08-09 12:18:29 GMT 47.185581 15.112610 30,000 326 440 0
2019-08-09 12:18:26 GMT 47.185581 15.112610 30,000 326 440 -64
2019-08-09 12:18:18 GMT 47.174362 15.123948 30,000 326 440 64
2019-08-09 12:18:15 GMT 47.168472 15.129822 30,000 326 440 0
2019-08-09 12:18:11 GMT 47.161747 15.136625 30,000 326 441 0
2019-08-09 12:18:08 GMT 47.156067 15.142319 30,000 326 441 0
2019-08-09 12:18:05 GMT 47.149502 15.148879 30,000 326 441 0
2019-08-09 12:18:00 GMT 47.135399 15.163105 30,000 326 441 0
2019-08-09 12:17:56 GMT 47.135399 15.163105 30,000 326 441 0
2019-08-09 12:17:51 GMT 47.126953 15.171501 30,000 326 441 0
2019-08-09 12:17:47 GMT 47.120544 15.177956 30,000 326 441 0
2019-08-09 12:17:43 GMT 47.115520 15.182965 30,000 326 441 0
2019-08-09 12:17:40 GMT 47.101509 15.196979 30,000 326 445 0
2019-08-09 12:17:36 GMT 47.096786 15.201714 30,000 326 442 0
2019-08-09 12:17:28 GMT 47.088181 15.210365 30,000 326 442 0
2019-08-09 12:17:23 GMT 47.079254 15.219304 30,000 326 442 -64
2019-08-09 12:17:17 GMT 47.071156 15.227403 30,000 326 442 0
2019-08-09 12:17:14 GMT 47.065430 15.233162 30,000 326 442 -64
2019-08-09 12:17:11 GMT 47.060493 15.238108 30,000 326 443 -64
2019-08-09 12:17:07 GMT 47.054256 15.244375 30,000 326 444 0
2019-08-09 12:17:02 GMT 47.044601 15.254036 30,000 326 443 0
2019-08-09 12:16:54 GMT 47.031586 15.267052 30,000 326 444 0
2019-08-09 12:16:51 GMT 47.026653 15.271912 30,000 326 444 0
2019-08-09 12:16:44 GMT 47.015480 15.283109 30,000 326 444 0
2019-08-09 12:16:41 GMT 47.009216 15.289330 30,000 326 444 -64
2019-08-09 12:16:33 GMT 46.996998 15.301490 30,000 326 444 0
2019-08-09 12:16:30 GMT 46.990852 15.307617 30,000 326 444 0
2019-08-09 12:16:22 GMT 46.975937 15.322495 30,000 326 445 0
2019-08-09 12:16:16 GMT 46.965912 15.332520 30,000 326 444 0
2019-08-09 12:16:13 GMT 46.961849 15.336562 30,000 326 444 0
2019-08-09 12:16:09 GMT 46.955891 15.342478 30,000 326 445 0
2019-08-09 12:16:01 GMT 46.941975 15.356281 30,000 326 445 0
2019-08-09 12:15:58 GMT 46.937691 15.360506 30,000 326 446 0
2019-08-09 12:15:54 GMT 46.929729 15.368465 30,000 326 445 0
2019-08-09 12:15:48 GMT 46.918167 15.379967 30,000 326 445 0
2019-08-09 12:15:42 GMT 46.908829 15.389240 30,000 326 446 0
2019-08-09 12:15:39 GMT 46.902328 15.395691 30,000 326 446 -64
2019-08-09 12:15:36 GMT 46.898941 15.399055 30,000 326 446 64
2019-08-09 12:15:31 GMT 46.891754 15.406197 30,000 326 446 0
2019-08-09 12:15:26 GMT 46.883057 15.414780 30,000 326 446 0
2019-08-09 12:15:23 GMT 46.876236 15.421577 30,000 326 446 0
2019-08-09 12:15:17 GMT 46.866714 15.431035 30,000 326 446 -64
2019-08-09 12:15:14 GMT 46.849148 15.448425 30,000 326 446 0
2019-08-09 12:15:06 GMT 46.849148 15.448425 30,000 326 446 0
2019-08-09 12:15:01 GMT 46.840771 15.456734 30,000 326 446 0
2019-08-09 12:14:55 GMT 46.829178 15.468214 30,000 326 445 0
2019-08-09 12:14:51 GMT 46.821671 15.475583 30,000 326 445 0
2019-08-09 12:14:47 GMT 46.814327 15.482826 30,000 326 446 0
2019-08-09 12:14:44 GMT 46.809219 15.487909 30,000 326 445 0
2019-08-09 12:14:39 GMT 46.802547 15.494431 30,000 326 445 0
2019-08-09 12:14:35 GMT 46.794022 15.502915 30,000 326 445 0
2019-08-09 12:14:32 GMT 46.789078 15.507738 30,000 326 445 0
2019-08-09 12:14:24 GMT 46.775597 15.521072 30,000 326 445 64
2019-08-09 12:14:21 GMT 46.772198 15.524437 30,000 326 445 64
2019-08-09 12:14:17 GMT 46.763165 15.533363 30,000 326 445 0
2019-08-09 12:14:12 GMT 46.756325 15.540092 30,000 326 445 0
2019-08-09 12:14:05 GMT 46.738953 15.557244 30,000 326 446 0
2019-08-09 12:14:02 GMT 46.738953 15.557244 30,000 326 446 0
2019-08-09 12:13:52 GMT 46.721512 15.574393 30,000 326 446 0
2019-08-09 12:13:44 GMT 46.707024 15.588707 30,000 326 446 0
2019-08-09 12:13:39 GMT 46.699310 15.596232 30,000 326 446 0
2019-08-09 12:13:31 GMT 46.681049 15.614182 30,000 326 446 -64
2019-08-09 12:13:28 GMT 46.681049 15.614182 30,000 326 446 0
2019-08-09 12:13:23 GMT 46.671616 15.623429 30,000 326 446 0
2019-08-09 12:13:19 GMT 46.665482 15.629459 30,000 326 447 0
2019-08-09 12:13:12 GMT 46.653351 15.641373 30,000 326 446 0
2019-08-09 12:13:08 GMT 46.647530 15.647072 30,000 327 445 0
2019-08-09 12:13:04 GMT 46.639805 15.654625 30,000 327 447 0
2019-08-09 12:13:01 GMT 46.635544 15.658867 30,000 327 447 0
2019-08-09 12:12:58 GMT 46.628864 15.665405 30,000 327 447 0
2019-08-09 12:12:55 GMT 46.623882 15.670212 30,000 327 447 0
2019-08-09 12:12:51 GMT 46.617554 15.676418 30,000 327 447 0
2019-08-09 12:12:47 GMT 46.604191 15.689507 30,000 327 447 0
2019-08-09 12:12:44 GMT 46.604191 15.689507 30,000 327 447 0
2019-08-09 12:12:41 GMT 46.600231 15.693352 30,000 327 447 0
2019-08-09 12:12:38 GMT 46.594070 15.699396 30,000 327 447 0
2019-08-09 12:12:35 GMT 46.590317 15.703080 30,000 327 447 0
2019-08-09 12:12:31 GMT 46.582260 15.710918 30,000 327 447 0
2019-08-09 12:12:26 GMT 46.574203 15.718823 30,000 327 447 0
2019-08-09 12:12:23 GMT 46.567337 15.725455 30,000 327 447 0
2019-08-09 12:12:20 GMT 46.564270 15.728469 30,000 327 447 0
2019-08-09 12:12:16 GMT 46.556007 15.736542 30,000 327 447 0
2019-08-09 12:12:10 GMT 46.546051 15.746222 30,000 327 447 0
2019-08-09 12:12:05 GMT 46.537674 15.754462 30,000 327 447 0
2019-08-09 12:11:59 GMT 46.528061 15.763773 30,000 327 447 0
2019-08-09 12:11:54 GMT 46.518631 15.773018 30,000 327 447 64
2019-08-09 12:11:48 GMT 46.510059 15.781380 30,000 327 448 0
2019-08-09 12:11:42 GMT 46.499908 15.791306 30,000 327 448 0
2019-08-09 12:11:38 GMT 46.492886 15.798134 30,000 326 447 0
2019-08-09 12:11:31 GMT 46.479477 15.811249 30,000 326 448 0
2019-08-09 12:11:28 GMT 46.474686 15.815891 30,000 326 448 0
2019-08-09 12:11:21 GMT 46.456665 15.833496 30,000 326 448 0
2019-08-09 12:11:10 GMT 46.444096 15.845787 30,000 326 448 0
2019-08-09 12:11:07 GMT 46.438614 15.851128 30,000 326 448 0
2019-08-09 12:10:59 GMT 46.425941 15.863571 30,000 326 448 0
2019-08-09 12:10:56 GMT 46.406017 15.883072 30,000 326 448 -64
2019-08-09 12:10:49 GMT 46.402618 15.886436 30,000 326 448 0
2019-08-09 12:10:43 GMT 46.388885 15.899895 30,000 326 448 0
2019-08-09 12:10:38 GMT 46.382217 15.906461 30,000 326 448 0
2019-08-09 12:10:34 GMT 46.372406 15.916031 30,000 327 449 0
2019-08-09 12:10:28 GMT 46.366928 15.921400 30,000 328 450 0
2019-08-09 12:10:25 GMT 46.366928 15.921400 30,000 326 449 0
2019-08-09 12:10:19 GMT 46.355927 15.932098 30,000 326 449 0
2019-08-09 12:10:15 GMT 46.348015 15.939857 30,000 326 448 0
2019-08-09 12:10:11 GMT 46.343033 15.944733 30,000 327 449 0
2019-08-09 12:10:04 GMT 46.322269 15.964508 30,000 328 449 0
2019-08-09 12:09:59 GMT 46.313324 15.972781 30,000 328 450 0
2019-08-09 12:09:54 GMT 46.313324 15.972781 30,000 328 450 -64
2019-08-09 12:09:50 GMT 46.307556 15.978140 30,000 328 449 -64
2019-08-09 12:09:43 GMT 46.293915 15.990802 30,000 328 450 0
2019-08-09 12:09:38 GMT 46.285168 15.998840 30,000 328 449 0
2019-08-09 12:09:33 GMT 46.276749 16.006611 30,000 328 450 0
2019-08-09 12:09:28 GMT 46.267822 16.014851 30,000 328 450 0
2019-08-09 12:09:25 GMT 46.262741 16.019608 30,000 328 450 0
2019-08-09 12:09:22 GMT 46.257141 16.024796 30,000 328 450 -64
2019-08-09 12:09:16 GMT 46.246765 16.034346 30,000 328 450 0
2019-08-09 12:09:12 GMT 46.238567 16.041962 30,000 328 451 0
2019-08-09 12:09:06 GMT 46.224697 16.054802 30,000 328 451 -64
2019-08-09 12:09:00 GMT 46.219437 16.059668 30,000 328 451 -64
2019-08-09 12:08:55 GMT 46.209751 16.068535 30,000 328 451 0
2019-08-09 12:08:50 GMT 46.201355 16.076281 30,000 328 451 0
2019-08-09 12:08:47 GMT 46.197144 16.080166 30,000 328 451 64
2019-08-09 12:08:43 GMT 46.187622 16.088942 30,000 328 451 0
2019-08-09 12:08:40 GMT 46.182194 16.093941 30,000 328 451 -64
2019-08-09 12:08:36 GMT 46.175858 16.099728 30,000 328 451 0
2019-08-09 12:08:28 GMT 46.162689 16.111862 30,000 328 451 -64
2019-08-09 12:08:23 GMT 46.154755 16.119154 30,000 328 452 0
2019-08-09 12:08:16 GMT 46.140858 16.131981 30,000 328 452 64
2019-08-09 12:08:07 GMT 46.106548 16.163498 30,000 328 452 0
2019-08-09 12:07:57 GMT 46.106548 16.163498 30,000 328 452 0
2019-08-09 12:07:46 GMT 46.082062 16.185951 30,000 328 451 0
2019-08-09 12:07:39 GMT 46.076614 16.190964 30,000 328 451 -64
2019-08-09 12:07:35 GMT 46.069397 16.197556 30,000 328 452 0
2019-08-09 12:07:28 GMT 46.046822 16.218292 30,000 328 451 -64
2019-08-09 12:07:23 GMT 46.046822 16.218292 30,000 328 452 -64
2019-08-09 12:07:18 GMT 46.038719 16.225639 30,000 328 451 0
2019-08-09 12:07:14 GMT 46.030609 16.233105 30,000 328 451 0
2019-08-09 12:07:07 GMT 46.018284 16.244385 30,000 328 452 0
2019-08-09 12:07:02 GMT 46.011063 16.250990 30,000 328 452 0
2019-08-09 12:06:56 GMT 45.993240 16.267250 30,000 328 452 0
2019-08-09 12:06:52 GMT 45.993240 16.267250 30,000 328 452 0
2019-08-09 12:06:44 GMT 45.977692 16.281464 30,000 328 452 0
2019-08-09 12:06:41 GMT 45.973827 16.284966 30,000 328 453 64
2019-08-09 12:06:35 GMT 45.961487 16.296274 30,000 328 452 0
2019-08-09 12:06:32 GMT 45.957230 16.300159 30,000 328 452 0
2019-08-09 12:06:29 GMT 45.953156 16.303848 30,000 328 453 0
2019-08-09 12:06:25 GMT 45.944546 16.311745 30,000 328 453 -64
2019-08-09 12:06:22 GMT 45.938690 16.317108 30,000 328 452 0
2019-08-09 12:06:18 GMT 45.933418 16.321907 30,000 328 453 0
2019-08-09 12:06:11 GMT 45.920517 16.333654 30,000 328 452 -64
2019-08-09 12:06:08 GMT 45.915710 16.337942 30,000 328 452 0
2019-08-09 12:06:00 GMT 45.901440 16.351021 30,000 328 452 0
2019-08-09 12:05:57 GMT 45.897720 16.354422 30,000 328 452 0
2019-08-09 12:05:51 GMT 45.883934 16.366951 30,000 328 453 64
2019-08-09 12:05:46 GMT 45.877930 16.372375 30,000 328 453 64
2019-08-09 12:05:42 GMT 45.869614 16.379877 30,000 328 452 -64
2019-08-09 12:05:39 GMT 45.863777 16.385216 30,000 328 452 0
2019-08-09 12:05:35 GMT 45.858471 16.390022 30,000 328 452 -64
2019-08-09 12:05:31 GMT 45.851578 16.396292 30,000 328 452 64
2019-08-09 12:05:28 GMT 45.844849 16.402388 30,000 328 452 0
2019-08-09 12:05:20 GMT 45.831619 16.414446 30,000 328 453 0
2019-08-09 12:05:17 GMT 45.820995 16.424011 30,000 328 453 0
2019-08-09 12:05:14 GMT 45.820995 16.424011 30,000 328 453 0
2019-08-09 12:05:06 GMT 45.806332 16.437332 30,000 328 453 0
2019-08-09 12:05:03 GMT 45.801361 16.441845 30,000 328 453 0
2019-08-09 12:04:56 GMT 45.786484 16.455309 30,000 328 453 64
2019-08-09 12:04:52 GMT 45.782402 16.458961 30,000 328 453 -64
2019-08-09 12:04:48 GMT 45.774815 16.465828 30,000 328 453 0
2019-08-09 12:04:42 GMT 45.763321 16.476210 30,000 328 453 0
2019-08-09 12:04:34 GMT 45.749176 16.489004 30,000 328 453 0
2019-08-09 12:04:31 GMT 45.744736 16.493025 30,000 328 453 -64
2019-08-09 12:04:27 GMT 45.736595 16.500366 30,000 328 453 0
2019-08-09 12:04:23 GMT 45.730267 16.506134 30,000 328 453 64
2019-08-09 12:04:20 GMT 45.725098 16.510777 30,000 328 453 0
2019-08-09 12:04:15 GMT 45.715927 16.519112 30,000 328 453 0
2019-08-09 12:04:12 GMT 45.710266 16.524240 30,000 328 453 -64
2019-08-09 12:04:08 GMT 45.703732 16.530098 30,000 328 453 0
2019-08-09 12:04:02 GMT 45.691864 16.540789 30,000 328 453 0
2019-08-09 12:03:58 GMT 45.687103 16.545141 30,000 328 453 0
2019-08-09 12:03:51 GMT 45.673325 16.557535 30,000 328 453 -64
2019-08-09 12:03:47 GMT 45.667839 16.562508 30,000 329 450 64
2019-08-09 12:03:40 GMT 45.653873 16.575073 30,000 328 453 0
2019-08-09 12:03:37 GMT 45.649776 16.578781 30,000 328 453 0
2019-08-09 12:03:30 GMT 45.635300 16.591827 30,000 328 453 0
2019-08-09 12:03:26 GMT 45.630318 16.596291 30,000 328 453 0
2019-08-09 12:03:19 GMT 45.615654 16.609474 30,000 328 453 0
2019-08-09 12:03:16 GMT 45.612122 16.612667 30,000 328 452 -64
2019-08-09 12:03:07 GMT 45.596382 16.626846 30,000 328 452 0
2019-08-09 12:03:03 GMT 45.589462 16.633034 30,000 328 452 0
2019-08-09 12:02:54 GMT 45.573715 16.647167 30,000 328 452 128
2019-08-09 12:02:43 GMT 45.534576 16.682281 30,000 328 452 0
2019-08-09 12:02:32 GMT 45.534576 16.682281 30,000 328 452 0
2019-08-09 12:02:22 GMT 45.515285 16.699488 30,000 328 452 0
2019-08-09 12:02:18 GMT 45.509792 16.704445 30,000 328 452 64
2019-08-09 12:02:10 GMT 45.474926 16.735594 30,000 328 451 0
2019-08-09 12:01:59 GMT 45.474926 16.735594 30,000 328 452 0
2019-08-09 12:01:46 GMT 45.452408 16.755589 30,000 328 451 0
2019-08-09 12:01:36 GMT 45.434521 16.771502 30,000 329 452 0
2019-08-09 12:01:27 GMT 45.413956 16.789724 30,000 329 450 64
2019-08-09 12:01:24 GMT 45.413956 16.789724 30,000 329 452 0
2019-08-09 12:01:16 GMT 45.399605 16.802383 30,000 329 450 64
2019-08-09 12:01:12 GMT 45.391937 16.809082 30,000 329 450 0
2019-08-09 12:01:02 GMT 45.374588 16.824385 30,000 329 450 0
2019-08-09 12:00:52 GMT 45.356506 16.840342 30,000 329 450 0
2019-08-09 12:00:42 GMT 45.338806 16.855907 30,000 329 450 -64
2019-08-09 12:00:31 GMT 45.317596 16.874607 30,000 329 450 64
2019-08-09 12:00:24 GMT 45.305969 16.884939 30,000 328 450 0
2019-08-09 12:00:21 GMT 45.299973 16.890303 30,000 328 449 0
2019-08-09 12:00:16 GMT 45.291046 16.898312 30,000 328 450 0
2019-08-09 12:00:09 GMT 45.281734 16.906754 30,000 329 449 0
2019-08-09 12:00:02 GMT 45.268932 16.918276 30,000 328 449 0
2019-08-09 11:59:58 GMT 45.261383 16.924961 30,000 328 449 0
2019-08-09 11:59:53 GMT 45.252548 16.932743 30,000 329 448 0
2019-08-09 11:59:47 GMT 45.241837 16.942226 30,000 329 448 64
2019-08-09 11:59:42 GMT 45.232315 16.950596 30,000 329 448 -64
2019-08-09 11:59:38 GMT 45.227051 16.955238 30,000 329 447 0
2019-08-09 11:59:33 GMT 45.217346 16.963741 30,000 329 448 64
2019-08-09 11:59:27 GMT 45.207870 16.972111 30,000 329 448 64
2019-08-09 11:59:21 GMT 45.196777 16.981983 30,000 329 448 64
2019-08-09 11:59:17 GMT 45.188873 16.988787 30,000 329 447 0
2019-08-09 11:59:11 GMT 45.179352 16.997091 30,000 329 447 0
2019-08-09 11:59:06 GMT 45.169876 17.005463 30,000 329 447 -64
2019-08-09 11:59:03 GMT 45.165665 17.009190 30,000 329 447 -64
2019-08-09 11:59:00 GMT 45.160400 17.013832 30,000 328 447 0
2019-08-09 11:58:55 GMT 45.150784 17.022310 30,000 328 447 0
2019-08-09 11:58:50 GMT 45.141129 17.030968 30,000 328 447 0
2019-08-09 11:58:42 GMT 45.126434 17.043814 30,000 328 444 0
2019-08-09 11:58:39 GMT 45.123642 17.046333 30,000 328 446 0
2019-08-09 11:58:33 GMT 45.112473 17.056210 30,000 328 446 0
2019-08-09 11:58:29 GMT 45.105114 17.062704 30,000 328 446 0
2019-08-09 11:58:21 GMT 45.091690 17.074846 30,000 328 445 0
2019-08-09 11:58:18 GMT 45.085751 17.079922 30,000 328 445 0
2019-08-09 11:58:11 GMT 45.074249 17.090172 30,000 328 445 0
2019-08-09 11:58:08 GMT 45.068527 17.095316 30,000 328 445 0
2019-08-09 11:58:03 GMT 45.060150 17.102837 30,000 328 445 0
2019-08-09 11:57:58 GMT 45.049713 17.112122 30,000 328 445 0
2019-08-09 11:57:52 GMT 45.041012 17.119982 30,000 328 446 0
2019-08-09 11:57:49 GMT 45.035797 17.124613 30,000 328 446 0
2019-08-09 11:57:46 GMT 45.031284 17.128691 30,000 328 446 0
2019-08-09 11:57:36 GMT 45.012726 17.145473 30,000 328 445 0
2019-08-09 11:57:28 GMT 44.999023 17.157831 30,000 328 446 64
2019-08-09 11:57:25 GMT 44.993820 17.162540 30,000 328 446 64
2019-08-09 11:57:17 GMT 44.978680 17.176119 30,000 328 445 0
2019-08-09 11:57:13 GMT 44.973091 17.181009 30,000 329 445 0
2019-08-09 11:57:07 GMT 44.962006 17.190466 30,000 330 445 0
2019-08-09 11:57:03 GMT 44.956467 17.194977 30,000 331 445 0
2019-08-09 11:56:54 GMT 44.939018 17.208675 30,000 332 445 0
2019-08-09 11:56:43 GMT 44.917370 17.225491 30,000 332 445 0
2019-08-09 11:56:32 GMT 44.900070 17.238989 30,000 332 445 0
2019-08-09 11:56:22 GMT 44.880920 17.253826 30,000 332 445 0
2019-08-09 11:56:13 GMT 44.865051 17.266191 30,000 332 445 0
2019-08-09 11:56:10 GMT 44.859272 17.270641 30,000 332 445 0
2019-08-09 11:55:59 GMT 44.839462 17.286007 30,000 332 446 0
2019-08-09 11:55:52 GMT 44.826824 17.295830 30,000 332 446 64
2019-08-09 11:55:48 GMT 44.821014 17.300327 30,000 332 446 64
2019-08-09 11:55:41 GMT 44.807133 17.311037 30,000 332 446 0
2019-08-09 11:55:38 GMT 44.801872 17.315123 30,000 332 446 0
2019-08-09 11:55:27 GMT 44.782562 17.330082 30,000 332 446 0
2019-08-09 11:55:20 GMT 44.769196 17.340414 30,000 332 446 0
2019-08-09 11:55:17 GMT 44.764305 17.344196 30,000 332 446 0
2019-08-09 11:55:08 GMT 44.738796 17.363825 30,000 332 446 0
2019-08-09 11:54:56 GMT 44.725388 17.374159 29,975 332 447 0
2019-08-09 11:54:47 GMT 44.707993 17.387566 29,975 332 447 0
2019-08-09 11:54:41 GMT 44.699505 17.394171 30,000 332 447 0
2019-08-09 11:54:37 GMT 44.692429 17.399597 30,000 332 447 -64
2019-08-09 11:54:34 GMT 44.687164 17.403652 30,000 332 447 0
2019-08-09 11:54:26 GMT 44.672459 17.414938 30,000 332 447 0
2019-08-09 11:54:23 GMT 44.666500 17.419559 30,000 332 447 0
2019-08-09 11:54:16 GMT 44.653976 17.429140 30,000 332 447 0
2019-08-09 11:54:13 GMT 44.648895 17.433079 30,000 332 447 0
2019-08-09 11:54:04 GMT 44.631500 17.446486 30,000 332 448 0
2019-08-09 11:53:52 GMT 44.608978 17.463749 30,000 332 448 0
2019-08-09 11:53:44 GMT 44.595879 17.473755 30,000 332 449 -64
2019-08-09 11:53:39 GMT 44.587509 17.480228 30,000 332 449 -64
2019-08-09 11:53:33 GMT 44.573116 17.491240 30,000 332 449 -64
2019-08-09 11:53:21 GMT 44.553799 17.506044 30,000 332 449 64
2019-08-09 11:53:12 GMT 44.536835 17.519009 30,000 332 450 0
2019-08-09 11:53:09 GMT 44.532486 17.522343 30,000 332 450 0
2019-08-09 11:52:59 GMT 44.512207 17.537907 30,000 332 450 -64
2019-08-09 11:52:49 GMT 44.494907 17.551128 30,000 332 451 0
2019-08-09 11:52:39 GMT 44.475174 17.566290 30,000 332 450 64
2019-08-09 11:52:27 GMT 44.455765 17.581068 30,000 332 451 0
2019-08-09 11:52:22 GMT 44.447006 17.587772 30,000 332 451 0
2019-08-09 11:52:19 GMT 44.438023 17.594604 30,000 332 451 0
2019-08-09 11:52:12 GMT 44.427612 17.602516 30,000 332 451 0
2019-08-09 11:52:08 GMT 44.419922 17.608402 30,000 332 451 -64
2019-08-09 11:52:00 GMT 44.406189 17.618866 30,000 332 451 -64
2019-08-09 11:51:55 GMT 44.397217 17.625668 30,000 332 451 -64
2019-08-09 11:51:49 GMT 44.386395 17.633928 30,000 332 451 0
2019-08-09 11:51:45 GMT 44.377411 17.640760 30,000 332 451 64
2019-08-09 11:51:36 GMT 44.361649 17.652740 30,000 332 451 0
2019-08-09 11:51:32 GMT 44.354694 17.658045 30,000 332 451 0
2019-08-09 11:51:24 GMT 44.339859 17.669285 30,000 332 451 0
2019-08-09 11:51:12 GMT 44.317337 17.686483 30,000 332 451 0
2019-08-09 11:51:02 GMT 44.300461 17.699244 30,000 332 451 0
2019-08-09 11:50:53 GMT 44.280670 17.714212 30,000 332 451 0
2019-08-09 11:50:41 GMT 44.260895 17.729252 30,000 332 451 0
2019-08-09 11:50:32 GMT 44.243500 17.742397 30,000 332 451 0
2019-08-09 11:50:19 GMT 44.220566 17.759661 30,000 332 450 0
2019-08-09 11:50:10 GMT 44.204098 17.772127 30,000 332 450 64
2019-08-09 11:50:03 GMT 44.191452 17.781628 30,000 332 450 64
2019-08-09 11:49:58 GMT 44.181931 17.788845 30,000 332 450 0
2019-08-09 11:49:48 GMT 44.164169 17.802259 30,000 332 450 0
2019-08-09 11:49:37 GMT 44.144394 17.817142 30,000 332 450 0
2019-08-09 11:49:34 GMT 44.139084 17.821165 30,000 332 451 0
2019-08-09 11:49:25 GMT 44.119278 17.836042 30,000 332 450 0
2019-08-09 11:49:15 GMT 44.103916 17.847616 30,000 332 450 0
2019-08-09 11:49:11 GMT 44.093994 17.855019 30,000 332 450 0
2019-08-09 11:49:02 GMT 44.079712 17.865812 30,000 332 450 0
2019-08-09 11:48:58 GMT 44.072212 17.871487 30,000 332 450 0
2019-08-09 11:48:53 GMT 44.057373 17.882612 30,000 332 451 0
2019-08-09 11:48:43 GMT 44.044785 17.892193 30,000 332 451 0
2019-08-09 11:48:39 GMT 44.035995 17.898821 30,000 332 451 0
2019-08-09 11:48:30 GMT 44.020615 17.910398 30,000 332 451 0
2019-08-09 11:48:24 GMT 44.009789 17.918570 30,000 332 451 0
2019-08-09 11:48:19 GMT 44.001362 17.924849 30,000 332 451 0
2019-08-09 11:48:10 GMT 43.985046 17.937098 30,000 332 451 0
2019-08-09 11:48:07 GMT 43.979900 17.940935 30,000 332 451 0
2019-08-09 11:47:56 GMT 43.959141 17.956369 30,000 332 451 0
2019-08-09 11:47:49 GMT 43.945404 17.966671 30,000 332 451 0
2019-08-09 11:47:46 GMT 43.940048 17.970631 30,000 332 451 0
2019-08-09 11:47:43 GMT 43.934738 17.974590 30,000 332 451 0
2019-08-09 11:47:38 GMT 43.925537 17.981489 30,000 332 451 0
2019-08-09 11:47:34 GMT 43.918213 17.986982 30,000 332 451 0
2019-08-09 11:47:28 GMT 43.907001 17.995344 30,000 332 451 0
2019-08-09 11:47:22 GMT 43.896194 18.003462 30,000 332 451 0
2019-08-09 11:47:15 GMT 43.883305 18.013000 30,000 332 451 0
2019-08-09 11:47:11 GMT 43.875626 18.018822 30,000 332 451 -64
2019-08-09 11:47:05 GMT 43.864964 18.026733 30,000 332 451 0
2019-08-09 11:46:53 GMT 43.841454 18.044258 30,000 332 451 64
2019-08-09 11:46:45 GMT 43.827816 18.054396 30,000 332 451 64
2019-08-09 11:46:41 GMT 43.821575 18.059038 30,000 332 451 0
2019-08-09 11:46:35 GMT 43.811104 18.066887 30,000 332 451 0
2019-08-09 11:46:31 GMT 43.800488 18.074799 30,000 332 451 0
2019-08-09 11:46:22 GMT 43.785778 18.085785 30,000 332 451 0
2019-08-09 11:46:19 GMT 43.781204 18.089182 30,000 332 451 0
2019-08-09 11:46:09 GMT 43.761337 18.103899 30,000 332 451 0
2019-08-09 11:46:00 GMT 43.745132 18.115879 30,000 332 451 0
2019-08-09 11:45:50 GMT 43.728058 18.128592 30,000 332 451 -64
2019-08-09 11:45:46 GMT 43.720688 18.134020 30,000 332 451 0
2019-08-09 11:45:39 GMT 43.699562 18.149740 30,000 332 451 0
2019-08-09 11:45:35 GMT 43.699562 18.149740 30,000 332 451 0
2019-08-09 11:45:26 GMT 43.682850 18.162167 30,000 332 451 0
2019-08-09 11:45:21 GMT 43.674591 18.168257 30,000 332 451 0
2019-08-09 11:45:15 GMT 43.663925 18.176176 30,000 332 451 0
2019-08-09 11:45:12 GMT 43.658615 18.180138 30,000 332 451 0
2019-08-09 11:45:07 GMT 43.648865 18.187290 30,000 332 451 0
2019-08-09 11:45:02 GMT 43.639652 18.194078 30,000 332 451 0
2019-08-09 11:44:55 GMT 43.624058 18.205654 30,000 332 451 64
2019-08-09 11:44:40 GMT 43.598465 18.224529 30,000 332 451 0
2019-08-09 11:44:32 GMT 43.583405 18.235643 30,000 332 451 0
2019-08-09 11:44:25 GMT 43.570892 18.244825 30,000 332 451 64
2019-08-09 11:44:22 GMT 43.564796 18.249336 30,000 332 451 64
2019-08-09 11:44:12 GMT 43.546593 18.262743 30,000 332 451 0
2019-08-09 11:44:01 GMT 43.526016 18.277914 30,000 332 451 0
2019-08-09 11:43:51 GMT 43.508514 18.290798 30,000 332 451 0
2019-08-09 11:43:43 GMT 43.494003 18.301498 30,000 332 451 0
2019-08-09 11:43:40 GMT 43.486633 18.306927 30,000 332 451 -64
2019-08-09 11:43:26 GMT 43.462875 18.324366 30,000 332 451 0
2019-08-09 11:43:20 GMT 43.420670 18.355280 29,975 332 452 0
2019-08-09 11:43:04 GMT 43.420670 18.355280 29,975 333 451 64
2019-08-09 11:42:57 GMT 43.409821 18.363255 29,975 332 452 0
2019-08-09 11:42:47 GMT 43.391014 18.376987 29,975 332 452 -64
2019-08-09 11:42:37 GMT 43.373154 18.390091 29,975 332 451 -64
2019-08-09 11:42:31 GMT 43.361546 18.398634 30,000 332 451 -64
2019-08-09 11:42:00 GMT 43.304810 18.439978 29,975 332 450 0
2019-08-09 11:41:50 GMT 43.285339 18.454220 30,000 332 450 -64
2019-08-09 11:41:36 GMT 43.259399 18.473127 30,000 332 450 0
2019-08-09 11:41:28 GMT 43.245255 18.483475 30,000 332 451 0
2019-08-09 11:41:21 GMT 43.232738 18.492605 30,000 332 451 0
2019-08-09 11:41:11 GMT 43.214722 18.505768 30,000 332 450 0
2019-08-09 11:41:08 GMT 43.209229 18.509855 30,000 332 451 0
2019-08-09 11:41:02 GMT 43.196915 18.518925 30,000 332 450 -64
2019-08-09 11:40:46 GMT 43.167797 18.540541 30,000 332 451 0
2019-08-09 11:40:40 GMT 43.157547 18.548180 30,000 331 450 0
2019-08-09 11:40:36 GMT 43.150269 18.553736 30,000 331 451 0
2019-08-09 11:40:27 GMT 43.133743 18.566446 30,000 331 450 64
2019-08-09 11:40:15 GMT 43.113007 18.582916 30,000 329 451 0
2019-08-09 11:40:06 GMT 43.095383 18.597618 30,000 329 451 0
2019-08-09 11:39:55 GMT 43.075974 18.613714 30,000 329 451 0
2019-08-09 11:39:44 GMT 43.057617 18.628981 30,000 329 451 -64
2019-08-09 11:39:35 GMT 43.040524 18.643209 30,000 329 451 0
2019-08-09 11:39:24 GMT 43.021500 18.659065 30,000 329 451 0
2019-08-09 11:39:13 GMT 43.002258 18.675058 30,000 329 450 0
2019-08-09 11:39:03 GMT 42.983215 18.690752 30,000 329 450 0
2019-08-09 11:38:58 GMT 42.975723 18.696964 30,000 329 450 0
2019-08-09 11:38:53 GMT 42.966644 18.704420 30,000 329 450 64
2019-08-09 11:38:49 GMT 42.958263 18.711351 30,000 329 450 64
2019-08-09 11:38:43 GMT 42.948303 18.719553 30,000 329 450 0
2019-08-09 11:38:32 GMT 42.929497 18.735155 30,000 329 449 0
2019-08-09 11:38:21 GMT 42.909943 18.751299 30,000 329 449 -64
2019-08-09 11:38:06 GMT 42.882294 18.774229 30,000 329 448 64
2019-08-09 11:37:51 GMT 42.856384 18.795628 30,000 329 448 64
2019-08-09 11:37:41 GMT 42.837975 18.810818 30,000 329 448 0
2019-08-09 11:37:33 GMT 42.824524 18.822006 30,000 329 448 0
2019-08-09 11:37:30 GMT 42.818481 18.826925 30,000 329 448 0
2019-08-09 11:37:20 GMT 42.800766 18.841553 30,000 329 447 0
2019-08-09 11:37:10 GMT 42.782913 18.856283 30,000 329 447 0
2019-08-09 11:36:59 GMT 42.764145 18.871639 30,000 329 446 0
2019-08-09 11:36:50 GMT 42.747711 18.885180 30,000 329 446 -64
2019-08-09 11:36:47 GMT 42.743473 18.888693 30,000 329 446 -64
2019-08-09 11:36:38 GMT 42.727413 18.901850 30,000 329 446 0
2019-08-09 11:36:28 GMT 42.709396 18.916605 30,000 329 446 0
2019-08-09 11:36:17 GMT 42.690353 18.932253 30,000 329 445 -64
2019-08-09 11:36:07 GMT 42.672901 18.946562 30,000 329 445 0
2019-08-09 11:36:03 GMT 42.664810 18.953226 30,000 329 445 0
2019-08-09 11:35:56 GMT 42.653721 18.962275 30,000 329 445 0
2019-08-09 11:35:47 GMT 42.636612 18.976198 30,000 329 444 0
2019-08-09 11:35:39 GMT 42.622719 18.987570 30,000 329 443 64
2019-08-09 11:35:35 GMT 42.615688 18.993317 30,000 329 444 64
2019-08-09 11:35:28 GMT 42.604431 19.002478 30,000 329 444 0
2019-08-09 11:35:25 GMT 42.598297 19.007534 30,000 329 444 0
2019-08-09 11:35:18 GMT 42.586361 19.017334 30,000 329 443 0
2019-08-09 11:35:15 GMT 42.580719 19.021891 30,000 329 443 0
2019-08-09 11:35:09 GMT 42.570007 19.030630 30,000 329 443 0
2019-08-09 11:35:05 GMT 42.562805 19.036495 30,000 329 443 64
2019-08-09 11:34:55 GMT 42.545059 19.050980 30,000 329 443 0
2019-08-09 11:34:44 GMT 42.526108 19.066399 30,000 329 443 0
2019-08-09 11:34:33 GMT 42.506477 19.082357 30,000 329 442 0
2019-08-09 11:34:23 GMT 42.489437 19.096218 30,000 329 442 64
2019-08-09 11:34:13 GMT 42.472092 19.110344 30,000 329 442 0
2019-08-09 11:34:03 GMT 42.435669 19.139908 30,000 329 442 0
2019-08-09 11:33:52 GMT 42.435669 19.139908 30,000 329 442 0
2019-08-09 11:33:42 GMT 42.416931 19.155163 30,000 329 441 0
2019-08-09 11:33:38 GMT 42.411510 19.159645 30,000 329 441 0
2019-08-09 11:33:30 GMT 42.397545 19.171015 30,000 329 441 0
2019-08-09 11:33:27 GMT 42.392097 19.175486 30,000 329 442 0
2019-08-09 11:33:19 GMT 42.375385 19.189283 30,000 329 442 -64
2019-08-09 11:33:10 GMT 42.360580 19.201481 30,000 329 441 0
2019-08-09 11:33:04 GMT 42.351654 19.208782 30,000 329 441 0
2019-08-09 11:33:00 GMT 42.326843 19.229008 30,000 329 441 0
2019-08-09 11:32:50 GMT 42.326843 19.229008 30,000 329 441 0
2019-08-09 11:32:44 GMT 42.316040 19.237871 30,000 329 440 -64
2019-08-09 11:32:40 GMT 42.309082 19.243614 30,000 329 440 0
2019-08-09 11:32:32 GMT 42.295715 19.254601 30,000 329 440 64
2019-08-09 11:32:27 GMT 42.287727 19.261206 30,000 329 440 64
2019-08-09 11:32:18 GMT 42.271683 19.274326 30,000 329 440 0
2019-08-09 11:32:12 GMT 42.260727 19.283304 30,000 329 440 0
2019-08-09 11:32:08 GMT 42.253967 19.288872 30,000 329 440 0
2019-08-09 11:31:59 GMT 42.238129 19.301792 30,000 329 440 0
2019-08-09 11:31:47 GMT 42.217117 19.319021 30,000 329 439 64
2019-08-09 11:31:36 GMT 42.198166 19.334501 30,000 329 440 0
2019-08-09 11:31:27 GMT 42.181541 19.347754 30,000 330 439 0
2019-08-09 11:31:17 GMT 42.165573 19.360283 30,000 330 439 -64
2019-08-09 11:31:14 GMT 42.160492 19.364277 30,000 330 439 -64
2019-08-09 11:31:04 GMT 42.127495 19.389591 30,000 331 439 0
2019-08-09 11:30:56 GMT 42.127495 19.389591 30,000 331 439 64
2019-08-09 11:30:53 GMT 42.120743 19.394573 30,000 332 439 0
2019-08-09 11:30:46 GMT 42.109665 19.402685 30,000 334 437 0
2019-08-09 11:30:41 GMT 42.099983 19.409584 30,000 333 438 0
2019-08-09 11:30:36 GMT 42.091743 19.415333 30,000 333 437 0
2019-08-09 11:30:25 GMT 42.071770 19.428682 30,000 334 437 0
2019-08-09 11:30:14 GMT 42.051315 19.441807 30,000 336 437 0
2019-08-09 11:30:05 GMT 42.034744 19.451857 30,000 336 436 0
2019-08-09 11:29:54 GMT 42.015022 19.463686 30,000 336 437 0
2019-08-09 11:29:47 GMT 42.001190 19.472017 30,000 336 436 0
2019-08-09 11:29:44 GMT 41.996384 19.474953 30,000 336 436 0
2019-08-09 11:29:40 GMT 41.989746 19.478951 30,000 336 436 0
2019-08-09 11:29:32 GMT 41.967133 19.492619 30,000 336 436 0
2019-08-09 11:29:22 GMT 41.954956 19.499922 30,000 336 436 0
2019-08-09 11:29:11 GMT 41.933743 19.512613 30,000 336 435 0
2019-08-09 11:29:01 GMT 41.916275 19.523081 30,000 336 435 0
2019-08-09 11:28:52 GMT 41.901157 19.532158 30,000 336 436 0
2019-08-09 11:28:49 GMT 41.892517 19.537374 30,000 336 436 0
2019-08-09 11:28:40 GMT 41.878345 19.545828 30,000 336 435 0
2019-08-09 11:28:37 GMT 41.870991 19.550236 30,000 336 435 -64
2019-08-09 11:28:29 GMT 41.858688 19.557598 30,000 336 435 0
2019-08-09 11:28:25 GMT 41.850266 19.562654 30,000 336 435 -64
2019-08-09 11:28:19 GMT 41.840332 19.568584 30,000 336 435 64
2019-08-09 11:28:14 GMT 41.828396 19.575720 30,000 337 434 128
2019-08-09 11:28:08 GMT 41.820877 19.580196 30,000 336 434 0
2019-08-09 11:27:59 GMT 41.803253 19.590809 30,000 336 434 0
2019-08-09 11:27:48 GMT 41.783428 19.602484 30,000 336 435 0
2019-08-09 11:27:38 GMT 41.764709 19.613653 30,000 336 434 0
2019-08-09 11:27:28 GMT 41.745811 19.624968 30,000 337 434 0
2019-08-09 11:27:17 GMT 41.727283 19.635954 30,000 336 433 0
2019-08-09 11:27:08 GMT 41.703125 19.650389 30,000 336 434 -64
2019-08-09 11:27:05 GMT 41.703125 19.650389 30,000 336 434 -64
2019-08-09 11:26:57 GMT 41.689407 19.658598 30,000 336 432 0
2019-08-09 11:26:51 GMT 41.677872 19.665464 30,000 336 432 0
2019-08-09 11:26:46 GMT 41.669495 19.670460 30,000 337 433 64
2019-08-09 11:26:43 GMT 41.663277 19.674150 30,000 337 433 64
2019-08-09 11:26:36 GMT 41.651730 19.680984 30,000 337 433 0
2019-08-09 11:26:32 GMT 41.642235 19.686670 30,000 337 433 0
2019-08-09 11:26:27 GMT 41.633423 19.691870 30,000 336 433 64
2019-08-09 11:26:20 GMT 41.620468 19.699549 29,975 337 433 64
2019-08-09 11:26:15 GMT 41.613327 19.703793 29,975 337 433 64
2019-08-09 11:26:10 GMT 41.602158 19.710409 29,975 337 433 0
2019-08-09 11:26:06 GMT 41.595169 19.714520 29,975 337 432 -64
2019-08-09 11:25:59 GMT 41.582016 19.722332 30,000 337 433 0
2019-08-09 11:25:55 GMT 41.576550 19.725569 30,000 336 432 0
2019-08-09 11:25:48 GMT 41.561188 19.734703 30,000 336 432 0
2019-08-09 11:25:44 GMT 41.556580 19.737387 30,000 336 432 64
2019-08-09 11:25:35 GMT 41.538849 19.747925 29,975 336 432 0
2019-08-09 11:25:25 GMT 41.519852 19.759161 29,975 337 432 0
2019-08-09 11:25:14 GMT 41.499737 19.770983 29,975 337 432 0
2019-08-09 11:25:06 GMT 41.485657 19.779324 29,975 336 432 0
2019-08-09 11:25:02 GMT 41.478333 19.783630 29,975 336 432 0
2019-08-09 11:24:54 GMT 41.464451 19.791870 29,975 336 432 64
2019-08-09 11:24:51 GMT 41.458282 19.795553 29,975 337 432 0
2019-08-09 11:24:43 GMT 41.444759 19.803495 29,975 336 432 0
2019-08-09 11:24:38 GMT 41.435448 19.809052 29,975 336 432 0
2019-08-09 11:24:33 GMT 41.426102 19.814529 29,975 336 432 0
2019-08-09 11:24:29 GMT 41.416965 19.819910 29,975 336 432 0
2019-08-09 11:24:22 GMT 41.407146 19.825724 29,975 336 432 64
2019-08-09 11:24:17 GMT 41.395088 19.832876 29,975 337 432 0
2019-08-09 11:24:11 GMT 41.387405 19.837349 29,975 337 432 64
2019-08-09 11:24:05 GMT 41.374977 19.844679 29,975 337 432 64
2019-08-09 11:24:01 GMT 41.368240 19.848694 29,975 337 432 0
2019-08-09 11:23:54 GMT 41.354004 19.857056 29,975 337 431 0
2019-08-09 11:23:50 GMT 41.347824 19.860840 29,975 337 431 -64
2019-08-09 11:23:45 GMT 41.338531 19.866211 29,975 337 431 0
2019-08-09 11:23:40 GMT 41.330338 19.871033 29,975 337 431 0
2019-08-09 11:23:29 GMT 41.309143 19.883362 30,000 337 430 -64
2019-08-09 11:23:19 GMT 41.292023 19.893370 30,000 337 430 0
2019-08-09 11:23:09 GMT 41.273254 19.904358 30,000 337 429 0
2019-08-09 11:22:58 GMT 41.253250 19.916016 30,000 337 428 -64
2019-08-09 11:22:53 GMT 41.244350 19.921209 30,000 337 429 0
2019-08-09 11:22:47 GMT 41.232742 19.927979 30,000 336 429 64
2019-08-09 11:22:36 GMT 41.213718 19.939249 30,000 337 427 -64
2019-08-09 11:22:32 GMT 41.206284 19.943604 30,000 337 427 0
2019-08-09 11:22:26 GMT 41.195610 19.949862 30,000 337 427 0
2019-08-09 11:22:15 GMT 41.175751 19.961426 30,000 337 427 64
2019-08-09 11:22:04 GMT 41.156433 19.972656 30,000 337 425 0
2019-08-09 11:21:55 GMT 41.140213 19.982134 30,000 337 425 0
2019-08-09 11:21:51 GMT 41.132858 19.986450 30,000 337 425 0
2019-08-09 11:21:41 GMT 41.115074 19.996864 30,000 337 424 0
2019-08-09 11:21:31 GMT 41.096603 20.007690 30,000 337 423 0
2019-08-09 11:21:21 GMT 41.077789 20.018677 30,000 337 422 -64
2019-08-09 11:21:12 GMT 41.061356 20.028263 30,000 337 421 0
2019-08-09 11:21:00 GMT 41.041245 20.039936 30,000 337 419 -64
2019-08-09 11:20:48 GMT 41.018509 20.053101 30,000 337 418 0
2019-08-09 11:20:38 GMT 40.984264 20.072958 30,000 337 415 64
2019-08-09 11:20:28 GMT 40.984264 20.072958 30,000 337 416 0
2019-08-09 11:20:19 GMT 40.967880 20.082520 30,000 337 415 0
2019-08-09 11:20:16 GMT 40.962433 20.085693 30,000 337 415 0
2019-08-09 11:20:05 GMT 40.943344 20.096863 30,000 337 413 0
2019-08-09 11:19:59 GMT 40.933685 20.102478 29,975 337 413 0
2019-08-09 11:19:53 GMT 40.923523 20.108337 29,975 337 413 0
2019-08-09 11:19:48 GMT 40.914391 20.113594 30,000 337 413 -64
2019-08-09 11:19:45 GMT 40.909313 20.116529 30,000 337 412 0
2019-08-09 11:19:41 GMT 40.902145 20.120667 29,975 337 412 64
2019-08-09 11:19:38 GMT 40.897259 20.123520 30,000 337 412 64
2019-08-09 11:19:30 GMT 40.882919 20.131760 29,975 337 412 0
2019-08-09 11:19:26 GMT 40.876099 20.135742 29,975 337 411 0
2019-08-09 11:19:21 GMT 40.866535 20.141310 29,975 337 411 0
2019-08-09 11:19:18 GMT 40.861267 20.144348 29,975 337 412 0
2019-08-09 11:19:11 GMT 40.848541 20.151672 30,000 337 412 0
2019-08-09 11:19:00 GMT 40.830185 20.162292 29,975 337 413 0
2019-08-09 11:18:53 GMT 40.817234 20.169838 29,975 337 413 0
2019-08-09 11:18:49 GMT 40.811787 20.172958 30,000 337 413 0
2019-08-09 11:18:46 GMT 40.806519 20.176025 29,975 337 413 0
2019-08-09 11:18:40 GMT 40.793198 20.183716 29,975 337 414 0
2019-08-09 11:18:37 GMT 40.789352 20.185913 29,975 337 414 0
2019-08-09 11:18:29 GMT 40.775478 20.193932 29,975 337 415 64
2019-08-09 11:18:26 GMT 40.770870 20.196554 29,975 337 415 0
2019-08-09 11:18:21 GMT 40.761883 20.201735 29,975 337 415 64
2019-08-09 11:18:18 GMT 40.756622 20.204773 29,975 337 416 0
2019-08-09 11:18:09 GMT 40.738907 20.214966 29,975 337 418 0
2019-08-09 11:18:04 GMT 40.731670 20.219151 29,975 337 418 0
2019-08-09 11:18:01 GMT 40.724716 20.223145 29,975 337 419 0
2019-08-09 11:17:58 GMT 40.721191 20.225220 29,975 337 419 0
2019-08-09 11:17:47 GMT 40.701416 20.236572 29,975 337 421 -64
2019-08-09 11:17:42 GMT 40.692123 20.241882 30,000 337 421 -64
2019-08-09 11:17:38 GMT 40.683723 20.246742 30,000 337 422 0
2019-08-09 11:17:31 GMT 40.673492 20.252625 30,000 337 423 0
2019-08-09 11:17:27 GMT 40.664867 20.257603 30,000 337 424 0
2019-08-09 11:17:22 GMT 40.657280 20.261909 30,000 337 424 64
2019-08-09 11:17:17 GMT 40.647034 20.267822 30,000 337 426 64
2019-08-09 11:17:12 GMT 40.638336 20.272772 30,000 337 427 0
2019-08-09 11:17:07 GMT 40.629868 20.277710 29,975 337 427 0
2019-08-09 11:17:04 GMT 40.625114 20.280388 30,000 337 429 0
2019-08-09 11:16:55 GMT 40.608444 20.290039 30,000 337 429 0
2019-08-09 11:16:46 GMT 40.589264 20.300964 29,975 337 431 64
2019-08-09 11:16:40 GMT 40.581074 20.305731 29,975 337 431 128
2019-08-09 11:16:35 GMT 40.570461 20.311848 29,975 337 432 0
2019-08-09 11:16:27 GMT 40.554291 20.321045 29,975 337 434 0
2019-08-09 11:16:22 GMT 40.547279 20.325083 30,000 337 436 0
2019-08-09 11:16:15 GMT 40.533264 20.333073 30,000 337 436 0
2019-08-09 11:16:04 GMT 40.513435 20.344433 29,975 337 437 0
2019-08-09 11:15:54 GMT 40.494644 20.355225 30,000 337 439 64
2019-08-09 11:15:43 GMT 40.473907 20.367065 30,000 337 441 64
2019-08-09 11:15:32 GMT 40.454361 20.378174 29,975 337 443 -64
2019-08-09 11:15:22 GMT 40.435692 20.388815 30,000 337 446 -64
2019-08-09 11:15:12 GMT 40.415768 20.400051 30,000 337 447 -64
2019-08-09 11:15:01 GMT 40.394852 20.411926 30,000 337 449 64
2019-08-09 11:14:50 GMT 40.374382 20.423523 30,000 337 451 0
2019-08-09 11:14:42 GMT 40.347290 20.438814 30,000 337 453 0
2019-08-09 11:14:37 GMT 40.347290 20.438814 30,000 337 453 0
2019-08-09 11:14:29 GMT 40.317581 20.455811 30,000 337 455 0
2019-08-09 11:14:20 GMT 40.317581 20.455811 29,975 337 457 -128
2019-08-09 11:14:15 GMT 40.307907 20.461287 30,000 337 457 -64
2019-08-09 11:14:11 GMT 40.297394 20.467224 30,025 337 458 0
2019-08-09 11:14:07 GMT 40.292313 20.470089 29,975 337 460 0
2019-08-09 11:14:00 GMT 40.277508 20.478516 30,000 337 459 128
2019-08-09 11:13:57 GMT 40.272263 20.481506 29,975 337 460 0
2019-08-09 11:13:50 GMT 40.257385 20.489929 29,975 337 461 -128
2019-08-09 11:13:44 GMT 40.244690 20.497181 30,000 337 461 -64
2019-08-09 11:13:39 GMT 40.237839 20.501038 30,000 337 461 -64
2019-08-09 11:13:35 GMT 40.228443 20.506418 30,025 337 462 -64
2019-08-09 11:13:29 GMT 40.217270 20.512785 30,000 337 462 64
2019-08-09 11:13:24 GMT 40.206482 20.518982 30,000 337 463 128
2019-08-09 11:13:19 GMT 40.196693 20.524584 30,000 337 463 0
2019-08-09 11:13:15 GMT 40.175858 20.536499 30,000 337 463 -64
2019-08-09 11:13:09 GMT 40.175858 20.536499 30,000 337 464 -64
2019-08-09 11:13:03 GMT 40.165878 20.542297 30,000 336 464 -64
2019-08-09 11:12:57 GMT 40.154068 20.549133 30,025 336 464 -128
2019-08-09 11:12:54 GMT 40.147980 20.552612 30,025 335 465 0
2019-08-09 11:12:47 GMT 40.134384 20.560303 30,000 338 464 128
2019-08-09 11:12:37 GMT 40.112900 20.572523 30,000 335 465 0
2019-08-09 11:12:26 GMT 40.091534 20.587006 30,000 331 464 -64
2019-08-09 11:12:15 GMT 40.071655 20.603235 29,975 326 465 128
2019-08-09 11:12:06 GMT 40.057968 20.616344 29,975 321 465 -64
2019-08-09 11:12:03 GMT 40.053635 20.620911 29,975 320 465 -128
2019-08-09 11:11:53 GMT 40.036228 20.641750 30,000 316 464 -64
2019-08-09 11:11:42 GMT 40.019760 20.663086 30,000 316 464 0
2019-08-09 11:11:31 GMT 40.003922 20.683655 30,000 316 465 0
2019-08-09 11:11:24 GMT 39.992020 20.699036 30,000 316 465 -64
2019-08-09 11:11:21 GMT 39.987900 20.704407 30,000 316 465 -64
2019-08-09 11:11:12 GMT 39.974762 20.721436 30,000 316 465 0
2019-08-09 11:11:09 GMT 39.970642 20.726746 30,000 316 465 64
2019-08-09 11:10:59 GMT 39.955353 20.746521 30,000 316 466 -64
2019-08-09 11:10:51 GMT 39.942490 20.763062 30,000 316 465 -64
2019-08-09 11:10:48 GMT 39.938515 20.768217 30,025 316 466 -64
2019-08-09 11:10:40 GMT 39.926319 20.784010 30,000 316 465 64
2019-08-09 11:10:37 GMT 39.920929 20.790909 30,000 316 466 0
2019-08-09 11:10:30 GMT 39.906418 20.809658 30,000 316 466 64
2019-08-09 11:10:20 GMT 39.895733 20.823486 30,000 316 465 64
2019-08-09 11:10:17 GMT 39.890659 20.830017 30,000 316 466 0
2019-08-09 11:10:09 GMT 39.877998 20.846436 30,000 316 465 -64
2019-08-09 11:10:06 GMT 39.873367 20.852348 30,000 316 465 -64
2019-08-09 11:09:57 GMT 39.860355 20.869080 30,000 316 465 -64
2019-08-09 11:09:54 GMT 39.855743 20.874979 30,000 316 465 0
2019-08-09 11:09:49 GMT 39.841507 20.893309 30,000 316 465 0
2019-08-09 11:09:46 GMT 39.841507 20.893309 30,000 316 465 0
2019-08-09 11:09:37 GMT 39.830154 20.907879 30,000 316 466 0
2019-08-09 11:09:32 GMT 39.822182 20.918152 30,000 316 466 0
2019-08-09 11:09:26 GMT 39.811939 20.931335 30,000 316 466 0
2019-08-09 11:09:22 GMT 39.806587 20.938232 30,000 316 466 0
2019-08-09 11:09:16 GMT 39.797836 20.949495 30,000 316 465 0
2019-08-09 11:09:12 GMT 39.790943 20.958313 30,000 316 466 0
2019-08-09 11:09:06 GMT 39.775726 20.977797 30,000 316 465 -64
2019-08-09 11:09:02 GMT 39.775726 20.977797 30,000 316 465 -64
2019-08-09 11:08:54 GMT 39.762085 20.995291 30,025 316 465 0
2019-08-09 11:08:51 GMT 39.759018 20.999172 30,000 316 465 128
2019-08-09 11:08:46 GMT 39.750584 21.009949 30,000 316 466 128
2019-08-09 11:08:40 GMT 39.742435 21.020386 30,000 316 466 0
2019-08-09 11:08:33 GMT 39.730801 21.035339 30,000 316 467 0
2019-08-09 11:08:29 GMT 39.725121 21.042603 30,000 316 466 0
2019-08-09 11:08:23 GMT 39.716080 21.054222 30,000 316 467 0
2019-08-09 11:08:20 GMT 39.711479 21.060120 30,000 316 467 0
2019-08-09 11:08:14 GMT 39.701797 21.072510 30,000 316 466 -64
2019-08-09 11:08:09 GMT 39.694721 21.081543 30,000 316 466 -64
2019-08-09 11:08:03 GMT 39.683624 21.095661 30,000 316 466 64
2019-08-09 11:07:58 GMT 39.677811 21.103125 30,000 316 466 128
2019-08-09 11:07:55 GMT 39.668106 21.115484 30,000 316 467 0
2019-08-09 11:07:52 GMT 39.668106 21.115484 30,000 316 467 0
2019-08-09 11:07:48 GMT 39.662552 21.122559 30,000 316 467 -64
2019-08-09 11:07:45 GMT 39.656845 21.129873 30,000 316 468 -64
2019-08-09 11:07:41 GMT 39.651611 21.136536 30,000 316 468 -64
2019-08-09 11:07:38 GMT 39.646820 21.142578 30,000 316 467 0
2019-08-09 11:07:32 GMT 39.636337 21.155966 30,000 316 468 0
2019-08-09 11:07:21 GMT 39.620636 21.175968 30,000 316 467 0
2019-08-09 11:07:17 GMT 39.614326 21.184021 30,000 316 467 0
2019-08-09 11:07:13 GMT 39.603989 21.197205 30,000 316 467 64
2019-08-09 11:07:10 GMT 39.603989 21.197205 30,000 316 467 64
2019-08-09 11:07:06 GMT 39.597977 21.204807 30,000 316 467 0
2019-08-09 11:07:00 GMT 39.587185 21.218567 30,000 316 467 0
2019-08-09 11:06:55 GMT 39.580715 21.226807 30,000 316 467 0
2019-08-09 11:06:50 GMT 39.572380 21.237427 30,000 316 468 -64
2019-08-09 11:06:43 GMT 39.560791 21.252136 30,000 316 467 0
2019-08-09 11:06:40 GMT 39.554970 21.259583 30,000 316 467 0
2019-08-09 11:06:32 GMT 39.544312 21.273071 30,000 316 467 0
2019-08-09 11:06:29 GMT 39.539841 21.278748 30,000 316 467 64
2019-08-09 11:06:21 GMT 39.528442 21.293236 30,000 316 467 0
2019-08-09 11:06:18 GMT 39.524109 21.298706 30,000 316 467 0
2019-08-09 11:06:14 GMT 39.515915 21.309082 30,000 316 467 0
2019-08-09 11:06:10 GMT 39.511002 21.315329 30,000 316 467 -64
2019-08-09 11:06:06 GMT 39.505417 21.322372 30,000 316 468 64
2019-08-09 11:05:58 GMT 39.492325 21.338972 30,000 316 467 64
2019-08-09 11:05:55 GMT 39.487656 21.344883 30,000 316 467 0
2019-08-09 11:05:51 GMT 39.480579 21.353821 30,000 316 467 0
2019-08-09 11:05:47 GMT 39.476067 21.359497 30,000 316 468 0
2019-08-09 11:05:44 GMT 39.470352 21.366735 30,000 316 467 0
2019-08-09 11:05:38 GMT 39.460052 21.379883 30,000 316 468 -64
2019-08-09 11:05:34 GMT 39.453232 21.388470 30,000 316 468 0
2019-08-09 11:05:30 GMT 39.448601 21.394348 30,000 316 467 0
2019-08-09 11:05:27 GMT 39.443985 21.400173 30,000 316 467 -64
2019-08-09 11:05:24 GMT 39.439178 21.406204 30,000 316 467 -64
2019-08-09 11:05:20 GMT 39.432072 21.415222 30,000 316 467 -64
2019-08-09 11:05:16 GMT 39.427597 21.420832 30,000 316 467 0
2019-08-09 11:05:13 GMT 39.422997 21.426697 30,000 316 466 0
2019-08-09 11:05:09 GMT 39.416340 21.435059 30,000 316 466 0
2019-08-09 11:05:05 GMT 39.410339 21.442684 30,000 316 466 0
2019-08-09 11:04:59 GMT 39.400772 21.454805 30,000 316 466 0
2019-08-09 11:04:53 GMT 39.390610 21.467644 30,000 316 466 64
2019-08-09 11:04:49 GMT 39.385071 21.474628 30,000 316 466 0
2019-08-09 11:04:44 GMT 39.378296 21.483227 30,000 316 466 0
2019-08-09 11:04:38 GMT 39.368389 21.495667 30,000 316 466 0
2019-08-09 11:04:35 GMT 39.364563 21.500483 30,000 316 466 -64
2019-08-09 11:04:31 GMT 39.356506 21.510574 30,000 316 466 -64
2019-08-09 11:04:27 GMT 39.352699 21.515442 30,000 316 466 -64
2019-08-09 11:04:23 GMT 39.345749 21.524187 30,000 316 466 0
2019-08-09 11:04:17 GMT 39.336502 21.535830 30,000 316 466 0
2019-08-09 11:04:12 GMT 39.329544 21.544548 30,000 316 465 0
2019-08-09 11:04:06 GMT 39.320442 21.555908 30,000 316 465 0
2019-08-09 11:03:59 GMT 39.307617 21.571955 30,000 316 465 0
2019-08-09 11:03:55 GMT 39.303131 21.577566 30,000 316 465 0
2019-08-09 11:03:51 GMT 39.296677 21.585688 30,000 316 465 0
2019-08-09 11:03:48 GMT 39.291458 21.592314 30,000 316 465 -64
2019-08-09 11:03:45 GMT 39.287621 21.597107 30,000 316 464 -64
2019-08-09 11:03:41 GMT 39.280563 21.606047 30,000 316 464 -64
2019-08-09 11:03:35 GMT 39.272587 21.616089 30,000 316 463 0
2019-08-09 11:03:30 GMT 39.264393 21.626282 30,000 316 463 0
2019-08-09 11:03:25 GMT 39.256714 21.635900 30,000 316 463 64
2019-08-09 11:03:19 GMT 39.247169 21.647827 30,000 316 463 64
2019-08-09 11:03:15 GMT 39.241333 21.655188 30,000 316 463 64
2019-08-09 11:03:12 GMT 39.236740 21.660950 30,000 316 463 0
2019-08-09 11:03:09 GMT 39.232132 21.666712 30,000 316 463 -64
2019-08-09 11:03:04 GMT 39.224625 21.676146 30,000 316 463 -64
2019-08-09 11:02:59 GMT 39.216019 21.686953 30,000 316 463 0
2019-08-09 11:02:54 GMT 39.208878 21.696028 30,000 316 463 0
2019-08-09 11:02:48 GMT 39.200336 21.706787 30,000 316 462 0
2019-08-09 11:02:43 GMT 39.191120 21.718262 30,000 316 462 0
2019-08-09 11:02:37 GMT 39.183426 21.727852 30,000 316 462 0
2019-08-09 11:02:32 GMT 39.175919 21.737226 30,000 316 461 -64
2019-08-09 11:02:27 GMT 39.167816 21.747316 30,000 316 461 -64
2019-08-09 11:02:23 GMT 39.161839 21.754822 30,000 316 461 0
2019-08-09 11:02:20 GMT 39.154667 21.763794 30,000 316 461 0
2019-08-09 11:02:16 GMT 39.151596 21.767639 30,000 316 461 0
2019-08-09 11:02:13 GMT 39.145065 21.775858 30,000 316 460 0
2019-08-09 11:02:10 GMT 39.141678 21.780037 30,000 316 461 0
2019-08-09 11:02:06 GMT 39.134930 21.788391 30,000 316 460 0
2019-08-09 11:02:00 GMT 39.126083 21.799438 30,000 316 460 0
2019-08-09 11:01:55 GMT 39.119007 21.808167 30,000 316 460 64
2019-08-09 11:01:49 GMT 39.109837 21.819580 30,000 316 460 0
2019-08-09 11:01:45 GMT 39.102814 21.828341 30,000 316 459 -64
2019-08-09 11:01:41 GMT 39.097458 21.834969 30,000 316 459 -64
2019-08-09 11:01:38 GMT 39.093174 21.840271 30,000 316 459 0
2019-08-09 11:01:33 GMT 39.085876 21.849419 30,000 316 458 0
2019-08-09 11:01:28 GMT 39.077160 21.860229 30,000 316 458 0
2019-08-09 11:01:23 GMT 39.070129 21.868958 30,000 316 458 0
2019-08-09 11:01:18 GMT 39.060516 21.880884 30,000 316 458 0
2019-08-09 11:01:13 GMT 39.054581 21.888245 30,000 316 458 0
2019-08-09 11:01:10 GMT 39.049366 21.894714 30,000 316 458 0
2019-08-09 11:01:07 GMT 39.044815 21.900410 30,000 316 458 0
2019-08-09 11:01:02 GMT 39.037354 21.909664 30,000 316 458 0
2019-08-09 11:00:59 GMT 39.032516 21.915710 30,000 316 458 0
2019-08-09 11:00:55 GMT 39.026871 21.922741 30,000 316 458 0
2019-08-09 11:00:49 GMT 39.017853 21.933899 29,975 316 458 0
2019-08-09 11:00:44 GMT 39.006592 21.947878 29,975 316 458 0
2019-08-09 11:00:38 GMT 39.001419 21.954285 29,975 316 458 0
2019-08-09 11:00:33 GMT 38.992947 21.964905 29,975 316 458 0
2019-08-09 11:00:29 GMT 38.986240 21.973206 29,975 316 458 0
2019-08-09 11:00:21 GMT 38.974976 21.987183 29,975 316 457 -64
2019-08-09 11:00:17 GMT 38.969345 21.994141 29,975 316 457 -64
2019-08-09 11:00:10 GMT 38.954773 22.012268 29,975 317 458 -64
2019-08-09 11:00:07 GMT 38.942902 22.026978 29,975 316 458 64
2019-08-09 11:00:00 GMT 38.942902 22.026978 30,000 316 457 -64
2019-08-09 10:59:57 GMT 38.939117 22.031708 30,000 316 457 0
2019-08-09 10:59:47 GMT 38.923416 22.051052 30,000 316 457 0
2019-08-09 10:59:40 GMT 38.912613 22.064428 30,000 316 457 -64
2019-08-09 10:59:37 GMT 38.908035 22.070129 30,000 316 457 -64
2019-08-09 10:59:30 GMT 38.896954 22.083862 30,000 317 458 0
2019-08-09 10:59:26 GMT 38.891602 22.090462 30,000 317 458 -64
2019-08-09 10:59:18 GMT 38.879059 22.105865 30,000 317 458 0
2019-08-09 10:59:15 GMT 38.863342 22.125305 30,000 316 458 64
2019-08-09 10:59:07 GMT 38.863342 22.125305 30,000 316 458 64
2019-08-09 10:59:04 GMT 38.857571 22.132446 30,000 316 458 64
2019-08-09 10:58:57 GMT 38.847328 22.145081 30,000 317 458 64
2019-08-09 10:58:53 GMT 38.841064 22.152796 30,000 317 458 0
2019-08-09 10:58:42 GMT 38.824127 22.173695 29,975 317 458 64
2019-08-09 10:58:35 GMT 38.814232 22.185913 29,975 317 458 0
2019-08-09 10:58:32 GMT 38.809483 22.191772 29,975 317 458 0
2019-08-09 10:58:29 GMT 38.803989 22.198547 29,975 317 458 -64
2019-08-09 10:58:25 GMT 38.798172 22.205688 29,975 317 458 -64
2019-08-09 10:58:21 GMT 38.792072 22.213196 29,975 317 459 0
2019-08-09 10:58:18 GMT 38.788395 22.217712 29,975 317 459 0
2019-08-09 10:58:15 GMT 38.782902 22.224487 29,975 317 459 0
2019-08-09 10:58:08 GMT 38.772949 22.236687 29,975 317 459 64
2019-08-09 10:58:04 GMT 38.766861 22.244209 29,975 317 459 64
2019-08-09 10:57:58 GMT 38.757065 22.256226 29,975 317 459 64
2019-08-09 10:57:54 GMT 38.750793 22.263912 29,975 317 459 -64
2019-08-09 10:57:50 GMT 38.743565 22.272766 29,975 317 459 -192
2019-08-09 10:57:43 GMT 38.735001 22.283325 30,000 317 459 -128
2019-08-09 10:57:39 GMT 38.727951 22.291977 30,000 317 461 128
2019-08-09 10:57:36 GMT 38.723190 22.297829 30,000 317 461 128
2019-08-09 10:57:32 GMT 38.718288 22.303894 29,975 317 461 256
2019-08-09 10:57:29 GMT 38.713165 22.310181 29,950 317 463 640
2019-08-09 10:57:25 GMT 38.704834 22.320374 29,925 317 463 768
2019-08-09 10:57:21 GMT 38.701309 22.324757 29,875 317 463 960
2019-08-09 10:57:18 GMT 38.695244 22.332153 29,800 317 464 1536
2019-08-09 10:57:14 GMT 38.690002 22.338608 29,725 317 464 1728
2019-08-09 10:57:11 GMT 38.685516 22.344103 29,650 317 464 1920
2019-08-09 10:57:07 GMT 38.678970 22.352102 29,500 317 466 1920
2019-08-09 10:57:04 GMT 38.673981 22.358192 29,425 317 467 1920
2019-08-09 10:57:01 GMT 38.669128 22.364103 29,325 317 468 1920
2019-08-09 10:56:56 GMT 38.661484 22.373478 29,175 317 469 1856
2019-08-09 10:56:50 GMT 38.652557 22.384405 29,000 317 470 1728
2019-08-09 10:56:46 GMT 38.644966 22.393616 28,875 317 471 1664
2019-08-09 10:56:43 GMT 38.639923 22.399750 28,800 317 471 1728
2019-08-09 10:56:40 GMT 38.635796 22.404724 28,725 317 472 1728
2019-08-09 10:56:35 GMT 38.629303 22.412647 28,625 317 472 1728
2019-08-09 10:56:32 GMT 38.623924 22.419189 28,525 317 473 1664
2019-08-09 10:56:29 GMT 38.619186 22.424948 28,450 317 473 1600
2019-08-09 10:56:24 GMT 38.610626 22.435396 28,300 317 473 1472
2019-08-09 10:56:19 GMT 38.603165 22.444458 28,200 317 473 1536
2019-08-09 10:56:13 GMT 38.593002 22.456772 28,050 317 473 1600
2019-08-09 10:56:08 GMT 38.585678 22.465668 27,925 317 474 1536
2019-08-09 10:56:05 GMT 38.579681 22.473072 27,825 317 475 1408
2019-08-09 10:56:02 GMT 38.576202 22.477310 27,800 317 475 1280
2019-08-09 10:55:58 GMT 38.569382 22.485670 27,725 317 473 640
2019-08-09 10:55:54 GMT 38.563339 22.493013 27,675 317 473 512
2019-08-09 10:55:51 GMT 38.558754 22.498596 27,650 317 472 512
2019-08-09 10:55:47 GMT 38.552902 22.505732 27,625 317 471 576
2019-08-09 10:55:41 GMT 38.542831 22.517944 27,550 317 468 960
2019-08-09 10:55:36 GMT 38.535942 22.526367 27,475 317 468 1152
2019-08-09 10:55:33 GMT 38.529984 22.533569 27,400 317 468 1152
2019-08-09 10:55:30 GMT 38.525421 22.539124 27,350 317 467 1088
2019-08-09 10:55:26 GMT 38.519348 22.546513 27,300 317 467 1024
2019-08-09 10:55:23 GMT 38.513260 22.553917 27,225 317 466 896
2019-08-09 10:55:19 GMT 38.508102 22.560181 27,175 317 466 896
2019-08-09 10:55:15 GMT 38.502823 22.566633 27,125 317 464 896
2019-08-09 10:55:12 GMT 38.491951 22.579834 27,025 317 463 1152
2019-08-09 10:55:04 GMT 38.485107 22.588135 26,925 317 463 1344
2019-08-09 10:55:01 GMT 38.480942 22.593264 26,875 317 463 1344
2019-08-09 10:54:58 GMT 38.475357 22.600012 26,800 317 462 1344
2019-08-09 10:54:54 GMT 38.469604 22.606995 26,725 317 462 1280
2019-08-09 10:54:50 GMT 38.464371 22.613386 26,650 317 461 1344
2019-08-09 10:54:46 GMT 38.458008 22.621088 26,575 317 461 1280
2019-08-09 10:54:43 GMT 38.453384 22.626701 26,500 317 461 1280
2019-08-09 10:54:40 GMT 38.447819 22.633484 26,425 317 461 1344
2019-08-09 10:54:36 GMT 38.441803 22.640793 26,350 317 461 1408
2019-08-09 10:54:33 GMT 38.436554 22.647156 26,275 317 461 1408
2019-08-09 10:54:30 GMT 38.431961 22.652794 26,200 317 461 1408
2019-08-09 10:54:23 GMT 38.421329 22.665771 26,050 317 460 1408
2019-08-09 10:54:18 GMT 38.414291 22.674408 25,950 317 460 1344
2019-08-09 10:54:12 GMT 38.405224 22.685453 25,825 317 459 1280
2019-08-09 10:54:08 GMT 38.399265 22.692799 25,750 316 458 1280
2019-08-09 10:54:04 GMT 38.393448 22.699903 25,650 316 458 1408
2019-08-09 10:54:01 GMT 38.388748 22.705702 25,575 316 458 1472
2019-08-09 10:53:58 GMT 38.383255 22.712481 25,500 316 458 1536
2019-08-09 10:53:54 GMT 38.377480 22.719606 25,400 317 458 1536
2019-08-09 10:53:51 GMT 38.373093 22.725044 25,325 317 458 1536
2019-08-09 10:53:46 GMT 38.365402 22.734337 25,225 317 457 1472
2019-08-09 10:53:40 GMT 38.356438 22.744984 25,075 318 457 1408
2019-08-09 10:53:37 GMT 38.351036 22.751432 25,000 317 456 1536
2019-08-09 10:53:30 GMT 38.340683 22.764433 24,775 314 455 1280
2019-08-09 10:53:26 GMT 38.335300 22.771612 24,750 313 455 1216
2019-08-09 10:53:19 GMT 38.325386 22.785765 24,625 311 453 1216
2019-08-09 10:53:16 GMT 38.320816 22.792658 24,550 310 451 1472
2019-08-09 10:53:09 GMT 38.310909 22.808453 24,350 308 451 1536
2019-08-09 10:53:06 GMT 38.307137 22.814781 24,275 307 450 1472
2019-08-09 10:52:58 GMT 38.297596 22.832157 24,100 303 449 1408
2019-08-09 10:52:55 GMT 38.294815 22.837654 24,050 302 448 1472
2019-08-09 10:52:48 GMT 38.287994 22.852146 23,850 299 446 1728
2019-08-09 10:52:45 GMT 38.283443 22.862429 23,775 299 447 1792
2019-08-09 10:52:38 GMT 38.277420 22.876514 23,600 299 447 1664
2019-08-09 10:52:34 GMT 38.273529 22.885477 23,500 299 447 1472
2019-08-09 10:52:27 GMT 38.266891 22.900885 23,350 299 445 1408
2019-08-09 10:52:24 GMT 38.262909 22.910059 23,250 299 444 1472
2019-08-09 10:52:16 GMT 38.256363 22.925137 23,075 299 444 1856
2019-08-09 10:52:12 GMT 38.251968 22.935186 22,950 299 444 1920
2019-08-09 10:52:06 GMT 38.245834 22.949329 22,775 299 443 1600
2019-08-09 10:52:01 GMT 38.241257 22.959848 22,675 299 443 1408
2019-08-09 10:51:55 GMT 38.235031 22.974165 22,525 299 441 1344
2019-08-09 10:51:51 GMT 38.231506 22.982347 22,450 299 441 1408
2019-08-09 10:51:45 GMT 38.224880 22.997549 22,300 299 439 1600
2019-08-09 10:51:41 GMT 38.221157 23.006088 22,200 299 439 1536
2019-08-09 10:51:34 GMT 38.214615 23.021208 22,025 299 438 1600
2019-08-09 10:51:30 GMT 38.210217 23.031343 21,975 299 438 1600
2019-08-09 10:51:23 GMT 38.204361 23.044874 21,775 299 437 1664
2019-08-09 10:51:19 GMT 38.199184 23.056721 21,625 299 436 1856
2019-08-09 10:51:12 GMT 38.193420 23.069944 21,425 299 436 2176
2019-08-09 10:51:09 GMT 38.189453 23.079111 21,300 299 435 2176
2019-08-09 10:51:01 GMT 38.181355 23.097740 21,050 299 436 1728
2019-08-09 10:50:58 GMT 38.178955 23.103371 20,975 299 435 1600
2019-08-09 10:50:50 GMT 38.171310 23.121311 20,775 298 433 1600
2019-08-09 10:50:47 GMT 38.168335 23.128500 20,675 298 433 1728
2019-08-09 10:50:40 GMT 38.161663 23.144432 20,500 298 432 1856
2019-08-09 10:50:35 GMT 38.157520 23.154284 20,350 299 431 1920
2019-08-09 10:50:29 GMT 38.151886 23.167419 20,200 300 431 1600
2019-08-09 10:50:23 GMT 38.146545 23.179575 20,050 299 430 1472
2019-08-09 10:50:18 GMT 38.142113 23.190527 19,950 296 428 1536
2019-08-09 10:50:13 GMT 38.136757 23.205872 19,775 292 426 1728
2019-08-09 10:50:07 GMT 38.133732 23.216202 19,650 290 425 1664
2019-08-09 10:50:01 GMT 38.129883 23.231585 19,475 286 423 1728
2019-08-09 10:49:57 GMT 38.128193 23.239965 19,375 284 422 1728
2019-08-09 10:49:48 GMT 38.124607 23.264744 19,100 276 420 1664
2019-08-09 10:49:40 GMT 38.123474 23.290489 18,850 271 418 1920
2019-08-09 10:49:37 GMT 38.123474 23.290489 18,800 270 418 2048
2019-08-09 10:49:27 GMT 38.123585 23.316690 18,450 270 417 2304
2019-08-09 10:49:21 GMT 38.123676 23.328154 18,275 270 417 1984
2019-08-09 10:49:18 GMT 38.123703 23.336714 18,150 270 417 1984
2019-08-09 10:49:15 GMT 38.123749 23.342558 18,075 270 417 1984
2019-08-09 10:49:12 GMT 38.123817 23.352575 17,950 270 416 1920
2019-08-09 10:49:08 GMT 38.123932 23.368679 17,750 270 415 1920
2019-08-09 10:48:59 GMT 38.124001 23.383982 17,550 270 413 2048
2019-08-09 10:48:54 GMT 38.124069 23.395618 17,500 270 413 2048
2019-08-09 10:48:49 GMT 38.124142 23.414673 17,150 270 412 1984
2019-08-09 10:48:43 GMT 38.124187 23.421717 17,050 270 411 1920
2019-08-09 10:48:40 GMT 38.124252 23.431091 16,950 270 410 1856
2019-08-09 10:48:35 GMT 38.124344 23.439507 16,825 270 409 1920
2019-08-09 10:48:32 GMT 38.124374 23.447868 16,725 270 409 1920
2019-08-09 10:48:29 GMT 38.124390 23.454817 16,650 270 408 2048
2019-08-09 10:48:25 GMT 38.124466 23.465364 16,300 270 406 2432
2019-08-09 10:48:20 GMT 38.124527 23.479887 16,275 270 406 2432
2019-08-09 10:48:15 GMT 38.124516 23.489664 16,125 270 406 2304
2019-08-09 10:48:11 GMT 38.124561 23.497486 15,975 270 406 2240
2019-08-09 10:48:08 GMT 38.124573 23.505833 15,875 270 406 2240
2019-08-09 10:48:04 GMT 38.124607 23.515100 15,775 270 405 2240
2019-08-09 10:47:58 GMT 38.124664 23.529093 15,525 270 404 2240
2019-08-09 10:47:55 GMT 38.124710 23.536396 15,400 270 404 2240
2019-08-09 10:47:52 GMT 38.124710 23.542591 15,325 270 404 2176
2019-08-09 10:47:49 GMT 38.124756 23.553226 15,175 270 402 2112
2019-08-09 10:47:42 GMT 38.124802 23.566900 14,975 270 402 2048
2019-08-09 10:47:37 GMT 38.124840 23.577913 14,825 270 400 2112
2019-08-09 10:47:31 GMT 38.124893 23.592497 14,600 270 399 2304
2019-08-09 10:47:28 GMT 38.124931 23.603470 14,425 270 398 2240
2019-08-09 10:47:25 GMT 38.124939 23.609035 14,350 270 398 2240
2019-08-09 10:47:21 GMT 38.124985 23.614645 14,250 270 397 2304
2019-08-09 10:47:17 GMT 38.125031 23.625572 14,075 270 396 2176
2019-08-09 10:47:14 GMT 38.125031 23.633696 13,975 270 394 1600
2019-08-09 10:47:10 GMT 38.125072 23.640667 13,875 270 395 1728
2019-08-09 10:47:05 GMT 38.125072 23.652430 13,750 270 393 1472
2019-08-09 10:47:00 GMT 38.125118 23.664074 13,650 270 388 1280
2019-08-09 10:46:57 GMT 38.125122 23.673668 13,550 270 386 1280
2019-08-09 10:46:54 GMT 38.125168 23.680212 13,500 270 383 1216
2019-08-09 10:46:49 GMT 38.125168 23.688511 13,425 270 380 1152
2019-08-09 10:46:45 GMT 38.125214 23.696983 13,200 270 372 1280
2019-08-09 10:46:41 GMT 38.125259 23.706684 13,275 270 376 1280
2019-08-09 10:46:36 GMT 38.125259 23.720884 13,125 270 371 1280
2019-08-09 10:46:33 GMT 38.125259 23.725870 13,075 270 368 1216
2019-08-09 10:46:26 GMT 38.125259 23.740679 12,950 270 363 1088
2019-08-09 10:46:22 GMT 38.125259 23.747904 12,900 271 360 1024
2019-08-09 10:46:15 GMT 38.125168 23.765457 12,775 271 352 896
2019-08-09 10:46:11 GMT 38.125118 23.770414 12,725 271 349 896
2019-08-09 10:46:08 GMT 38.125072 23.778593 12,675 271 347 960
2019-08-09 10:46:03 GMT 38.125072 23.787668 12,625 271 344 1024
2019-08-09 10:46:00 GMT 38.125072 23.793102 12,550 271 340 1088
2019-08-09 10:45:56 GMT 38.125027 23.800447 12,475 270 336 1280
2019-08-09 10:45:52 GMT 38.125076 23.810822 12,375 270 331 1344
2019-08-09 10:45:49 GMT 38.125072 23.814896 12,325 270 331 1344
2019-08-09 10:45:44 GMT 38.125076 23.826073 12,225 270 325 1024
2019-08-09 10:45:41 GMT 38.125072 23.828928 12,125 270 323 1088
2019-08-09 10:45:38 GMT 38.125076 23.835949 12,125 271 321 1344
2019-08-09 10:45:34 GMT 38.125027 23.844393 11,975 271 317 1984
2019-08-09 10:45:31 GMT 38.125027 23.849407 11,925 271 316 2112
2019-08-09 10:45:27 GMT 38.125031 23.856110 11,800 270 315 2112
2019-08-09 10:45:23 GMT 38.125027 23.865528 11,700 270 314 2240
2019-08-09 10:45:19 GMT 38.125031 23.871012 11,625 270 314 2240
2019-08-09 10:45:16 GMT 38.125076 23.876680 11,400 270 312 2496
2019-08-09 10:45:12 GMT 38.125122 23.885096 11,275 270 312 2560
2019-08-09 10:45:09 GMT 38.125118 23.888577 11,200 270 311 2624
2019-08-09 10:45:02 GMT 38.125168 23.908100 10,725 270 310 2432
2019-08-09 10:44:54 GMT 38.125214 23.917177 10,525 270 310 2368
2019-08-09 10:44:50 GMT 38.125259 23.924641 10,375 270 309 2368
2019-08-09 10:44:47 GMT 38.125305 23.928455 10,300 270 309 2368
2019-08-09 10:44:40 GMT 38.125492 23.942015 10,050 269 308 2432
2019-08-09 10:44:37 GMT 38.125626 23.947390 9,900 269 307 2624
2019-08-09 10:44:32 GMT 38.125809 23.956566 9,625 269 306 2688
2019-08-09 10:44:29 GMT 38.125900 23.962116 9,625 269 306 2688
2019-08-09 10:44:26 GMT 38.126038 23.966791 9,450 269 306 2496
2019-08-09 10:44:21 GMT 38.126312 23.981634 9,225 269 304 2432
2019-08-09 10:44:18 GMT 38.126312 23.981634 9,125 269 304 2432
2019-08-09 10:44:10 GMT 38.126541 23.997414 8,850 270 300 1280
2019-08-09 10:44:05 GMT 38.126610 24.009485 8,700 270 295 1280
2019-08-09 10:43:58 GMT 38.126701 24.016472 8,500 270 290 2368
2019-08-09 10:43:55 GMT 38.126770 24.020729 8,475 269 289 2560
2019-08-09 10:43:52 GMT 38.126816 24.026808 8,350 269 288 2624
2019-08-09 10:43:46 GMT 38.126797 24.036772 8,125 274 286 2304
2019-08-09 10:43:43 GMT 38.126514 24.041430 8,025 277 285 2304
2019-08-09 10:43:36 GMT 38.124561 24.053074 7,750 291 278 2048
2019-08-09 10:43:33 GMT 38.123154 24.057663 7,675 294 276 2048
2019-08-09 10:43:28 GMT 38.119904 24.065252 7,525 332 257 2176
2019-08-09 10:43:25 GMT 38.117340 24.069700 7,375 310 267 2368
2019-08-09 10:43:17 GMT 38.108047 24.079987 6,975 331 257 2240
2019-08-09 10:43:07 GMT 38.097420 24.085613 6,725 343 253 2240
2019-08-09 10:42:55 GMT 38.086990 24.087233 6,350 0 249 2304
2019-08-09 10:42:52 GMT 38.083920 24.086987 6,225 5 248 2304
2019-08-09 10:42:45 GMT 38.072281 24.083345 5,875 21 246 1856
2019-08-09 10:42:35 GMT 38.064648 24.077852 5,675 35 241 1280
2019-08-09 10:42:31 GMT 38.061996 24.075485 5,650 37 239 1024
2019-08-09 10:42:23 GMT 38.054810 24.068533 5,500 37 231 1280
2019-08-09 10:42:20 GMT 38.052265 24.066090 5,400 37 227 2176
2019-08-09 10:42:15 GMT 38.047531 24.061460 5,200 37 226 2368
2019-08-09 10:42:12 GMT 38.046295 24.060234 5,150 37 225 2304
2019-08-09 10:42:09 GMT 38.043365 24.057428 5,025 36 225 2240
2019-08-09 10:42:01 GMT 38.036728 24.051176 4,775 36 222 1472
2019-08-09 10:41:58 GMT 38.034203 24.048714 4,725 37 220 960
2019-08-09 10:41:52 GMT 38.028625 24.043287 4,625 37 211 1088
2019-08-09 10:41:47 GMT 38.025497 24.040236 4,550 37 207 1728
2019-08-09 10:41:42 GMT 38.021587 24.036533 4,425 36 205 2112
2019-08-09 10:41:39 GMT 38.019562 24.034580 4,300 36 204 2048
2019-08-09 10:41:36 GMT 38.017273 24.032476 4,200 36 203 1920
2019-08-09 10:41:33 GMT 38.014893 24.030254 3,975 36 201 1984
2019-08-09 10:41:30 GMT 38.012650 24.028173 4,025 36 201 1984
2019-08-09 10:41:23 GMT 38.007061 24.022921 3,800 36 198 1472
2019-08-09 10:41:19 GMT 38.004730 24.020672 3,725 36 196 1280
2019-08-09 10:41:14 GMT 38.000702 24.016872 3,600 36 191 1984
2019-08-09 10:41:09 GMT 37.997658 24.013964 3,450 36 189 2304
2019-08-09 10:41:03 GMT 37.993095 24.009665 3,200 35 189 2624
2019-08-09 10:40:59 GMT 37.990582 24.007397 3,075 35 189 2688
2019-08-09 10:40:55 GMT 37.987701 24.004719 2,900 36 190 2368
2019-08-09 10:40:52 GMT 37.985275 24.002439 2,800 36 189 2048
2019-08-09 10:40:45 GMT 37.980835 23.998173 2,575 37 188 1856
2019-08-09 10:40:40 GMT 37.975983 23.993382 2,350 38 185 2304
2019-08-09 10:40:36 GMT 37.974472 23.991802 2,275 37 185 2624
2019-08-09 10:40:30 GMT 37.970379 23.987812 1,900 37 185 2944
2019-08-09 10:40:26 GMT 37.966965 23.984556 1,800 36 186 2816
2019-08-09 10:40:18 GMT 37.961884 23.979649 1,500 37 186 2240
2019-08-09 10:40:15 GMT 37.959915 23.977777 1,400 36 182 2048
2019-08-09 10:40:08 GMT 37.955250 23.973303 1,175 38 176 2688
2019-08-09 10:40:05 GMT 37.952911 23.970999 1,025 37 176 3008
2019-08-09 10:39:57 GMT 37.948082 23.966436 675 36 181 3392
2019-08-09 10:39:46 GMT 37.940876 23.959734 0 36 199
2019-08-09 10:39:35 GMT 37.934116 23.953300 0 36 145
2019-08-09 10:39:28 GMT 37.930492 23.949860 0 36 120
2019-08-09 10:39:24 GMT 37.929203 23.948627 0 36 110
2019-08-09 10:39:17 GMT 37.926773 23.946314 0 36 74
2019-08-09 10:39:13 GMT 37.925903 23.945492 0 36 59
2019-08-09 10:39:02 GMT 37.924519 23.944162 0 36 8
2019-08-09 10:38:47 GMT 37.924427 23.944075 0 39 0
2019-08-09 10:38:40 GMT 37.924419 23.944105 0 39 6
2019-08-09 10:38:37 GMT 37.924374 23.944016 0 42 4
2019-08-09 10:38:29 GMT 37.924278 23.943941 0 59 4
2019-08-09 10:38:23 GMT 37.924225 23.943851 0 73 4
2019-08-09 10:38:16 GMT 37.924175 23.943724 0 84 5
2019-08-09 10:38:07 GMT 37.924164 23.943533 0 87 6
2019-08-09 10:38:04 GMT 37.924152 23.943417 0 87 6
2019-08-09 10:37:54 GMT 37.924141 23.943119 0 87 7
2019-08-09 10:37:45 GMT 37.924118 23.942787 0 87 7
2019-08-09 10:37:33 GMT 37.924118 23.942379 0 95 6
2019-08-09 10:37:18 GMT 37.924129 23.942179 0 101 0
2019-08-09 10:36:50 GMT 37.924129 23.942175 0 101 0
2019-08-09 10:36:39 GMT 37.924129 23.942179 0 101 0
2019-08-09 10:36:28 GMT 37.924129 23.942165 0 104 4
2019-08-09 10:36:17 GMT 37.924164 23.941912 0 126 5
2019-08-09 10:36:06 GMT 37.924305 23.941687 0 151 7
2019-08-09 10:35:57 GMT 37.924553 23.941532 0 191 9
2019-08-09 10:35:54 GMT 37.924629 23.941553 0 208 9
2019-08-09 10:35:48 GMT 37.924828 23.941702 0 213 6
2019-08-09 10:35:43 GMT 37.924885 23.941767 0 213 5
2019-08-09 10:35:40 GMT 37.924953 23.941809 0 213 4
2019-08-09 10:35:33 GMT 37.925034 23.941883 0 216 4
2019-08-09 10:35:27 GMT 37.925114 23.941956 0 213 7
2019-08-09 10:35:22 GMT 37.925224 23.942060 0 210 7
2019-08-09 10:35:19 GMT 37.925327 23.942150 0 205 8
2019-08-09 10:35:11 GMT 37.925537 23.942284 0 199 8
2019-08-09 10:35:04 GMT 37.925766 23.942322 0 168 9
2019-08-09 10:34:59 GMT 37.926201 23.941868 0 129 9
2019-08-09 10:34:49 GMT 37.926201 23.941868 0 126 10
2019-08-09 10:34:38 GMT 37.926479 23.941374 0 126 10
2019-08-09 10:34:26 GMT 37.926727 23.940948 0 126 6
2019-08-09 10:29:36 GMT 37.926922 23.940641 0 126 0
2019-08-09 10:29:26 GMT 37.926910 23.940641 0 126 0
2019-08-09 10:29:17 GMT 37.926876 23.940702 0 129 2
2019-08-09 10:29:06 GMT 37.926842 23.940742 0 129 2
2019-08-09 10:28:54 GMT 37.926853 23.940830 0 109 2
2019-08-09 10:28:44 GMT 37.926888 23.940918 0 92 2
2019-08-09 10:28:33 GMT 37.926933 23.940990 0 73 2
2019-08-09 10:28:22 GMT 37.927006 23.941031 0 53 2
2019-08-09 10:28:11 GMT 37.927086 23.941074 0 39 3
2019-08-09 10:28:03 GMT 37.927151 23.941122 0 33 3
2019-08-09 10:28:00 GMT 37.927174 23.941137 0 33 3
2019-08-09 10:27:49 GMT 37.927254 23.941210 0 33 3
2019-08-09 10:27:38 GMT 37.927322 23.941269 0 33 3
2019-08-09 10:27:27 GMT 37.927402 23.941357 0 36 2
2019-08-09 10:27:15 GMT 37.927471 23.941416 0 36 2

Making use of Plane Finder data

You are free to use the raw flight data, aircraft information and images provided in this report for your own purposes provided the data is correctly attributed to Plane Finder. We ask that you please credit Plane Finder and link to planefinder.net in close proximity to the content.

Optionally one of the following logos (no smaller then 150x24px) can be used and must link to planefinder.net

Embedding the Plane Finder map

You are welcome to embed the Plane Finder playback map on your website to offer visitors a more interactive experience. We suggest using the following HTML code:

<iframe src="//planefinder.net/data/report/AC1901-C-FMLV-7700-squawk-2019-08-09/map" width="800" height="600" seamless="seamless"></iframe>

Where our data comes from

Plane Finder has a global network of data feeds and antenna radars that receive data broadcast directly from aircraft. The primary technologies used are ADS-B and MLAT. We also show feeds from the FAA and a FLARM glider feed.

Click here to find out more about the Plane Finder network.

How we collect our data